Wetterdaten: Samstag, 03.03.2018
Datum Zeit Temp. A. Feuchte A. Luftdruck Regen Wind Richtung Richtung Sonnenschein ET UV Solar Taupunkt Windchill Windböen
03.03.2018 00:00 0,8 °C 82 % 1000,8 hPa 0,0 mm 2,3 km/h (1 Bft) W-SW 248 ° 0 min 0,000 mm 0,0 UV-I 0 W/m² -1,9 °C 0,8 °C 4,8 km/h (1 Bft)
03.03.2018 00:01 0,7 °C 82 % 1000,8 hPa 0,0 mm 3,7 km/h (1 Bft) W-SW 248 ° 0 min 0,000 mm 0,0 UV-I 0 W/m² -2,0 °C 0,7 °C 4,8 km/h (1 Bft)
03.03.2018 00:02 0,7 °C 83 % 1000,8 hPa 0,0 mm 3,8 km/h (1 Bft) W-SW 253 ° 0 min 0,000 mm 0,0 UV-I 0 W/m² -1,8 °C 0,7 °C 4,8 km/h (1 Bft)
03.03.2018 00:03 0,6 °C 83 % 1000,8 hPa 0,0 mm 3,3 km/h (1 Bft) W-SW 253 ° 0 min 0,000 mm 0,0 UV-I 0 W/m² -1,9 °C 0,6 °C 4,8 km/h (1 Bft)
03.03.2018 00:04 0,6 °C 83 % 1000,8 hPa 0,0 mm 4,8 km/h (1 Bft) W 259 ° 0 min 0,000 mm 0,0 UV-I 0 W/m² -1,9 °C -0,8 °C 6,4 km/h (2 Bft)
03.03.2018 00:05 0,6 °C 83 % 1000,8 hPa 0,0 mm 4,5 km/h (1 Bft) W 265 ° 0 min 0,000 mm 0,0 UV-I 0 W/m² -1,9 °C 0,6 °C 6,4 km/h (2 Bft)
03.03.2018 00:06 0,5 °C 83 % 1000,8 hPa 0,0 mm 2,6 km/h (1 Bft) W 265 ° 0 min 0,000 mm 0,0 UV-I 0 W/m² -2,0 °C 0,5 °C 4,8 km/h (1 Bft)
03.03.2018 00:07 0,5 °C 83 % 1000,8 hPa 0,0 mm 4,2 km/h (1 Bft) W 259 ° 0 min 0,000 mm 0,0 UV-I 0 W/m² -2,0 °C 0,5 °C 6,4 km/h (2 Bft)
03.03.2018 00:08 0,4 °C 83 % 1000,8 hPa 0,0 mm 4,2 km/h (1 Bft) W 265 ° 0 min 0,000 mm 0,0 UV-I 0 W/m² -2,1 °C 0,4 °C 6,4 km/h (2 Bft)
03.03.2018 00:09 0,4 °C 83 % 1000,8 hPa 0,0 mm 5,2 km/h (1 Bft) W-SW 253 ° 0 min 0,000 mm 0,0 UV-I 0 W/m² -2,1 °C -1,2 °C 6,4 km/h (2 Bft)
03.03.2018 00:10 0,4 °C 83 % 1000,8 hPa 0,0 mm 3,0 km/h (1 Bft) W-SW 253 ° 0 min 0,000 mm 0,0 UV-I 0 W/m² -2,1 °C 0,4 °C 3,2 km/h (1 Bft)
03.03.2018 00:11 0,3 °C 83 % 1000,8 hPa 0,0 mm 4,1 km/h (1 Bft) W-SW 256 ° 0 min 0,000 mm 0,0 UV-I 0 W/m² -2,2 °C 0,3 °C 6,4 km/h (2 Bft)
03.03.2018 00:12 0,3 °C 83 % 1000,8 hPa 0,0 mm 3,3 km/h (1 Bft) W-SW 256 ° 0 min 0,000 mm 0,0 UV-I 0 W/m² -2,2 °C 0,3 °C 4,8 km/h (1 Bft)
03.03.2018 00:13 0,3 °C 83 % 1000,8 hPa 0,0 mm 4,0 km/h (1 Bft) W-SW 257 ° 0 min 0,000 mm 0,0 UV-I 0 W/m² -2,2 °C 0,3 °C 6,4 km/h (2 Bft)
03.03.2018 00:14 0,3 °C 83 % 1000,8 hPa 0,0 mm 5,0 km/h (1 Bft) W 269 ° 0 min 0,000 mm 0,0 UV-I 0 W/m² -2,2 °C -1,2 °C 9,7 km/h (2 Bft)
03.03.2018 00:15 0,2 °C 83 % 1000,9 hPa 0,0 mm 3,8 km/h (1 Bft) W 269 ° 0 min 0,000 mm 0,0 UV-I 0 W/m² -2,3 °C 0,2 °C 4,8 km/h (1 Bft)
03.03.2018 00:16 0,1 °C 83 % 1000,9 hPa 0,0 mm 4,7 km/h (1 Bft) W 263 ° 0 min 0,000 mm 0,0 UV-I 0 W/m² -2,4 °C -1,3 °C 6,4 km/h (2 Bft)
03.03.2018 00:17 0,1 °C 84 % 1000,9 hPa 0,0 mm 4,8 km/h (1 Bft) W-SW 257 ° 0 min 0,000 mm 0,0 UV-I 0 W/m² -2,3 °C -1,4 °C 6,4 km/h (2 Bft)
03.03.2018 00:18 0,1 °C 84 % 1000,9 hPa 0,0 mm 4,0 km/h (1 Bft) W-SW 257 ° 0 min 0,000 mm 0,0 UV-I 0 W/m² -2,3 °C 0,1 °C 6,4 km/h (2 Bft)
03.03.2018 00:19 0,1 °C 84 % 1000,9 hPa 0,0 mm 3,7 km/h (1 Bft) W-SW 257 ° 0 min 0,000 mm 0,0 UV-I 0 W/m² -2,3 °C 0,1 °C 4,8 km/h (1 Bft)
03.03.2018 00:20 0,1 °C 84 % 1000,9 hPa 0,0 mm 3,4 km/h (1 Bft) W-SW 257 ° 0 min 0,000 mm 0,0 UV-I 0 W/m² -2,3 °C 0,1 °C 4,8 km/h (1 Bft)
03.03.2018 00:21 0,1 °C 84 % 1000,9 hPa 0,0 mm 5,4 km/h (1 Bft) W 260 ° 0 min 0,000 mm 0,0 UV-I 0 W/m² -2,3 °C -1,7 °C 9,7 km/h (2 Bft)
03.03.2018 00:22 0,1 °C 84 % 1000,9 hPa 0,0 mm 4,2 km/h (1 Bft) W-SW 252 ° 0 min 0,000 mm 0,0 UV-I 0 W/m² -2,3 °C 0,1 °C 8,0 km/h (2 Bft)
03.03.2018 00:23 0,1 °C 84 % 1000,9 hPa 0,0 mm 3,7 km/h (1 Bft) W 265 ° 0 min 0,000 mm 0,0 UV-I 0 W/m² -2,3 °C 0,1 °C 6,4 km/h (2 Bft)
03.03.2018 00:24 0,1 °C 84 % 1000,9 hPa 0,0 mm 3,4 km/h (1 Bft) W 265 ° 0 min 0,000 mm 0,0 UV-I 0 W/m² -2,3 °C 0,1 °C 4,8 km/h (1 Bft)
03.03.2018 00:25 0,1 °C 84 % 1000,9 hPa 0,0 mm 3,1 km/h (1 Bft) W 265 ° 0 min 0,000 mm 0,0 UV-I 0 W/m² -2,3 °C 0,1 °C 4,8 km/h (1 Bft)
03.03.2018 00:26 0,2 °C 85 % 1000,9 hPa 0,0 mm 2,1 km/h (1 Bft) W 265 ° 0 min 0,000 mm 0,0 UV-I 0 W/m² -2,0 °C 0,2 °C 4,8 km/h (1 Bft)
03.03.2018 00:27 0,2 °C 84 % 1000,9 hPa 0,0 mm 1,3 km/h (1 Bft) W 265 ° 0 min 0,000 mm 0,0 UV-I 0 W/m² -2,2 °C 0,2 °C 3,2 km/h (1 Bft)
03.03.2018 00:28 0,2 °C 84 % 1000,9 hPa 0,0 mm 1,8 km/h (1 Bft) W 265 ° 0 min 0,000 mm 0,0 UV-I 0 W/m² -2,2 °C 0,2 °C 3,2 km/h (1 Bft)
03.03.2018 00:29 0,3 °C 84 % 1000,9 hPa 0,0 mm 1,8 km/h (1 Bft) W 265 ° 0 min 0,000 mm 0,0 UV-I 0 W/m² -2,1 °C 0,3 °C 3,2 km/h (1 Bft)
03.03.2018 00:30 0,3 °C 84 % 1000,9 hPa 0,0 mm 1,5 km/h (1 Bft) W 265 ° 0 min 0,000 mm 0,0 UV-I 0 W/m² -2,1 °C 0,3 °C 3,2 km/h (1 Bft)
03.03.2018 00:31 0,4 °C 84 % 1000,9 hPa 0,0 mm 1,6 km/h (1 Bft) W 265 ° 0 min 0,000 mm 0,0 UV-I 0 W/m² -2,0 °C 0,4 °C 3,2 km/h (1 Bft)
03.03.2018 00:32 0,4 °C 83 % 1000,9 hPa 0,0 mm 0,9 km/h (0 Bft) W 265 ° 0 min 0,000 mm 0,0 UV-I 0 W/m² -2,1 °C 0,4 °C 3,2 km/h (1 Bft)
03.03.2018 00:33 0,4 °C 83 % 1000,9 hPa 0,0 mm 2,2 km/h (1 Bft) W 267 ° 0 min 0,000 mm 0,0 UV-I 0 W/m² -2,1 °C 0,4 °C 4,8 km/h (1 Bft)
03.03.2018 00:34 0,5 °C 83 % 1000,9 hPa 0,0 mm 1,9 km/h (1 Bft) W 267 ° 0 min 0,000 mm 0,0 UV-I 0 W/m² -2,0 °C 0,5 °C 3,2 km/h (1 Bft)
03.03.2018 00:35 0,6 °C 83 % 1000,9 hPa 0,0 mm 2,1 km/h (1 Bft) W 267 ° 0 min 0,000 mm 0,0 UV-I 0 W/m² -1,9 °C 0,6 °C 3,2 km/h (1 Bft)
03.03.2018 00:36 0,6 °C 83 % 1000,9 hPa 0,0 mm 1,7 km/h (1 Bft) W 267 ° 0 min 0,000 mm 0,0 UV-I 0 W/m² -1,9 °C 0,6 °C 3,2 km/h (1 Bft)
03.03.2018 00:37 0,6 °C 83 % 1000,9 hPa 0,0 mm 1,9 km/h (1 Bft) W 267 ° 0 min 0,000 mm 0,0 UV-I 0 W/m² -1,9 °C 0,6 °C 3,2 km/h (1 Bft)
03.03.2018 00:38 0,6 °C 83 % 1001,0 hPa 0,0 mm 0,6 km/h (0 Bft) W 267 ° 0 min 0,000 mm 0,0 UV-I 0 W/m² -1,9 °C 0,6 °C 1,6 km/h (1 Bft)
03.03.2018 00:39 0,7 °C 83 % 1001,0 hPa 0,0 mm 0,5 km/h (0 Bft) W 267 ° 0 min 0,000 mm 0,0 UV-I 0 W/m² -1,8 °C 0,7 °C 3,2 km/h (1 Bft)
03.03.2018 00:40 0,7 °C 83 % 1001,0 hPa 0,0 mm 1,4 km/h (1 Bft) W-SW 254 ° 0 min 0,000 mm 0,0 UV-I 0 W/m² -1,8 °C 0,7 °C 4,8 km/h (1 Bft)
03.03.2018 00:41 0,7 °C 82 % 1001,0 hPa 0,0 mm 0,9 km/h (0 Bft) W-SW 254 ° 0 min 0,000 mm 0,0 UV-I 0 W/m² -2,0 °C 0,7 °C 3,2 km/h (1 Bft)
03.03.2018 00:42 0,8 °C 82 % 1001,0 hPa 0,0 mm 3,2 km/h (1 Bft) SW 228 ° 0 min 0,000 mm 0,0 UV-I 0 W/m² -1,9 °C 0,8 °C 6,4 km/h (2 Bft)
03.03.2018 00:43 0,8 °C 82 % 1001,0 hPa 0,0 mm 0,3 km/h (0 Bft) SW 228 ° 0 min 0,000 mm 0,0 UV-I 0 W/m² -1,9 °C 0,8 °C 1,6 km/h (1 Bft)
03.03.2018 00:44 0,8 °C 82 % 1001,0 hPa 0,0 mm 1,8 km/h (1 Bft) SW 232 ° 0 min 0,000 mm 0,0 UV-I 0 W/m² -1,9 °C 0,8 °C 4,8 km/h (1 Bft)
03.03.2018 00:45 0,8 °C 82 % 1001,0 hPa 0,0 mm 1,5 km/h (1 Bft) SW 232 ° 0 min 0,000 mm 0,0 UV-I 0 W/m² -1,9 °C 0,8 °C 1,6 km/h (1 Bft)
03.03.2018 00:46 0,8 °C 82 % 1001,0 hPa 0,0 mm 0,0 km/h (0 Bft) SW 232 ° 0 min 0,000 mm 0,0 UV-I 0 W/m² -1,9 °C 0,8 °C 0,0 km/h (0 Bft)
03.03.2018 00:47 0,8 °C 82 % 1001,0 hPa 0,0 mm 0,0 km/h (0 Bft) SW 232 ° 0 min 0,000 mm 0,0 UV-I 0 W/m² -1,9 °C 0,8 °C 0,0 km/h (0 Bft)
03.03.2018 00:48 0,8 °C 82 % 1001,1 hPa 0,0 mm 3,9 km/h (1 Bft) S-SW 208 ° 0 min 0,000 mm 0,0 UV-I 0 W/m² -1,9 °C 0,8 °C 6,4 km/h (2 Bft)
03.03.2018 00:49 0,9 °C 82 % 1001,1 hPa 0,0 mm 6,9 km/h (2 Bft) S-SW 208 ° 0 min 0,000 mm 0,0 UV-I 0 W/m² -1,8 °C -1,3 °C 9,7 km/h (2 Bft)
03.03.2018 00:50 0,9 °C 81 % 1001,1 hPa 0,0 mm 5,9 km/h (2 Bft) W-SW 249 ° 0 min 0,000 mm 0,0 UV-I 0 W/m² -2,0 °C -1,0 °C 11,3 km/h (2 Bft)
03.03.2018 00:51 0,9 °C 81 % 1001,0 hPa 0,0 mm 3,8 km/h (1 Bft) SW 229 ° 0 min 0,000 mm 0,0 UV-I 0 W/m² -2,0 °C 0,9 °C 4,8 km/h (1 Bft)
03.03.2018 00:52 0,9 °C 81 % 1001,0 hPa 0,0 mm 2,7 km/h (1 Bft) SW 229 ° 0 min 0,000 mm 0,0 UV-I 0 W/m² -2,0 °C 0,9 °C 4,8 km/h (1 Bft)
03.03.2018 00:53 0,9 °C 81 % 1001,0 hPa 0,0 mm 1,6 km/h (1 Bft) SW 226 ° 0 min 0,000 mm 0,0 UV-I 0 W/m² -2,0 °C 0,9 °C 4,8 km/h (1 Bft)
03.03.2018 00:54 0,9 °C 81 % 1001,1 hPa 0,0 mm 3,1 km/h (1 Bft) SW 223 ° 0 min 0,000 mm 0,0 UV-I 0 W/m² -2,0 °C 0,9 °C 4,8 km/h (1 Bft)
03.03.2018 00:55 0,9 °C 81 % 1001,1 hPa 0,0 mm 4,4 km/h (1 Bft) SW 221 ° 0 min 0,000 mm 0,0 UV-I 0 W/m² -2,0 °C 0,9 °C 6,4 km/h (2 Bft)
03.03.2018 00:56 0,9 °C 81 % 1001,1 hPa 0,0 mm 2,5 km/h (1 Bft) SW 221 ° 0 min 0,000 mm 0,0 UV-I 0 W/m² -2,0 °C 0,9 °C 4,8 km/h (1 Bft)
03.03.2018 00:57 0,8 °C 81 % 1001,1 hPa 0,0 mm 2,2 km/h (1 Bft) SW 221 ° 0 min 0,000 mm 0,0 UV-I 0 W/m² -2,1 °C 0,8 °C 4,8 km/h (1 Bft)
03.03.2018 00:58 0,8 °C 81 % 1001,2 hPa 0,0 mm 4,5 km/h (1 Bft) SW 221 ° 0 min 0,000 mm 0,0 UV-I 0 W/m² -2,1 °C 0,8 °C 6,4 km/h (2 Bft)
03.03.2018 00:59 0,8 °C 81 % 1001,1 hPa 0,0 mm 3,2 km/h (1 Bft) W-SW 252 ° 0 min 0,000 mm 0,0 UV-I 0 W/m² -2,1 °C 0,8 °C 6,4 km/h (2 Bft)
03.03.2018 01:00 0,8 °C 81 % 1001,1 hPa 0,0 mm 2,2 km/h (1 Bft) SW 224 ° 0 min 0,000 mm 0,0 UV-I 0 W/m² -2,1 °C 0,8 °C 4,8 km/h (1 Bft)
03.03.2018 01:01 0,8 °C 81 % 1001,1 hPa 0,0 mm 3,8 km/h (1 Bft) SW 232 ° 0 min 0,000 mm 0,0 UV-I 0 W/m² -2,1 °C 0,8 °C 4,8 km/h (1 Bft)
03.03.2018 01:02 0,8 °C 81 % 1001,2 hPa 0,0 mm 3,1 km/h (1 Bft) SW 215 ° 0 min 0,000 mm 0,0 UV-I 0 W/m² -2,1 °C 0,8 °C 4,8 km/h (1 Bft)
03.03.2018 01:03 0,8 °C 82 % 1001,2 hPa 0,0 mm 5,4 km/h (1 Bft) SW 215 ° 0 min 0,000 mm 0,0 UV-I 0 W/m² -1,9 °C -0,9 °C 6,4 km/h (2 Bft)
03.03.2018 01:04 0,8 °C 82 % 1001,1 hPa 0,0 mm 4,8 km/h (1 Bft) SW 215 ° 0 min 0,000 mm 0,0 UV-I 0 W/m² -1,9 °C -0,6 °C 6,4 km/h (2 Bft)
03.03.2018 01:05 0,8 °C 81 % 1001,1 hPa 0,0 mm 4,6 km/h (1 Bft) S-SW 213 ° 0 min 0,000 mm 0,0 UV-I 0 W/m² -2,1 °C -0,5 °C 6,4 km/h (2 Bft)
03.03.2018 01:06 0,9 °C 81 % 1001,1 hPa 0,0 mm 5,9 km/h (2 Bft) S-SW 202 ° 0 min 0,000 mm 0,0 UV-I 0 W/m² -2,0 °C -1,0 °C 8,0 km/h (2 Bft)
03.03.2018 01:07 0,9 °C 81 % 1001,2 hPa 0,0 mm 5,0 km/h (1 Bft) SW 224 ° 0 min 0,000 mm 0,0 UV-I 0 W/m² -2,0 °C -0,6 °C 8,0 km/h (2 Bft)
03.03.2018 01:08 1,0 °C 81 % 1001,1 hPa 0,0 mm 5,2 km/h (1 Bft) SW 223 ° 0 min 0,000 mm 0,0 UV-I 0 W/m² -1,9 °C -0,5 °C 6,4 km/h (2 Bft)
03.03.2018 01:09 1,1 °C 81 % 1001,2 hPa 0,0 mm 4,2 km/h (1 Bft) SW 223 ° 0 min 0,000 mm 0,0 UV-I 0 W/m² -1,8 °C 1,1 °C 4,8 km/h (1 Bft)
03.03.2018 01:10 1,2 °C 81 % 1001,2 hPa 0,0 mm 3,2 km/h (1 Bft) SW 223 ° 0 min 0,000 mm 0,0 UV-I 0 W/m² -1,7 °C 1,2 °C 4,8 km/h (1 Bft)
03.03.2018 01:11 1,2 °C 80 % 1001,2 hPa 0,0 mm 4,7 km/h (1 Bft) S-SW 205 ° 0 min 0,000 mm 0,0 UV-I 0 W/m² -1,9 °C -0,1 °C 6,4 km/h (2 Bft)
03.03.2018 01:12 1,2 °C 80 % 1001,2 hPa 0,0 mm 3,5 km/h (1 Bft) S-SW 201 ° 0 min 0,000 mm 0,0 UV-I 0 W/m² -1,9 °C 1,2 °C 6,4 km/h (2 Bft)
03.03.2018 01:13 1,2 °C 80 % 1001,2 hPa 0,0 mm 4,2 km/h (1 Bft) S-SW 201 ° 0 min 0,000 mm 0,0 UV-I 0 W/m² -1,9 °C 1,2 °C 6,4 km/h (2 Bft)
03.03.2018 01:14 1,2 °C 80 % 1001,3 hPa 0,0 mm 4,6 km/h (1 Bft) SW 219 ° 0 min 0,000 mm 0,0 UV-I 0 W/m² -1,9 °C -0,0 °C 6,4 km/h (2 Bft)
03.03.2018 01:15 1,3 °C 80 % 1001,2 hPa 0,0 mm 4,7 km/h (1 Bft) SW 215 ° 0 min 0,000 mm 0,0 UV-I 0 W/m² -1,8 °C 0,0 °C 6,4 km/h (2 Bft)
03.03.2018 01:16 1,3 °C 80 % 1001,2 hPa 0,0 mm 4,0 km/h (1 Bft) S-SW 210 ° 0 min 0,000 mm 0,0 UV-I 0 W/m² -1,8 °C 1,3 °C 6,4 km/h (2 Bft)
03.03.2018 01:17 1,3 °C 80 % 1001,2 hPa 0,0 mm 5,9 km/h (2 Bft) S-SW 201 ° 0 min 0,000 mm 0,0 UV-I 0 W/m² -1,8 °C -0,5 °C 8,0 km/h (2 Bft)
03.03.2018 01:18 1,3 °C 80 % 1001,2 hPa 0,0 mm 3,1 km/h (1 Bft) S-SW 201 ° 0 min 0,000 mm 0,0 UV-I 0 W/m² -1,8 °C 1,3 °C 4,8 km/h (1 Bft)
03.03.2018 01:19 1,3 °C 80 % 1001,2 hPa 0,0 mm 2,7 km/h (1 Bft) S-SW 201 ° 0 min 0,000 mm 0,0 UV-I 0 W/m² -1,8 °C 1,3 °C 4,8 km/h (1 Bft)
03.03.2018 01:20 1,3 °C 80 % 1001,2 hPa 0,0 mm 5,1 km/h (1 Bft) S-SW 201 ° 0 min 0,000 mm 0,0 UV-I 0 W/m² -1,8 °C -0,2 °C 8,0 km/h (2 Bft)
03.03.2018 01:21 1,3 °C 80 % 1001,2 hPa 0,0 mm 5,2 km/h (1 Bft) S-SW 205 ° 0 min 0,000 mm 0,0 UV-I 0 W/m² -1,8 °C -0,2 °C 8,0 km/h (2 Bft)
03.03.2018 01:22 1,3 °C 80 % 1001,2 hPa 0,0 mm 5,7 km/h (1 Bft) S-SW 200 ° 0 min 0,000 mm 0,0 UV-I 0 W/m² -1,8 °C -0,4 °C 8,0 km/h (2 Bft)
03.03.2018 01:23 1,2 °C 80 % 1001,3 hPa 0,0 mm 5,1 km/h (1 Bft) S-SW 197 ° 0 min 0,000 mm 0,0 UV-I 0 W/m² -1,9 °C -0,3 °C 8,0 km/h (2 Bft)
03.03.2018 01:24 1,2 °C 80 % 1001,3 hPa 0,0 mm 5,6 km/h (1 Bft) S-SW 198 ° 0 min 0,000 mm 0,0 UV-I 0 W/m² -1,9 °C -0,5 °C 8,0 km/h (2 Bft)
03.03.2018 01:25 1,1 °C 81 % 1001,2 hPa 0,0 mm 3,0 km/h (1 Bft) S-SW 198 ° 0 min 0,000 mm 0,0 UV-I 0 W/m² -1,8 °C 1,1 °C 4,8 km/h (1 Bft)
03.03.2018 01:26 1,0 °C 81 % 1001,1 hPa 0,0 mm 2,7 km/h (1 Bft) S-SW 194 ° 0 min 0,000 mm 0,0 UV-I 0 W/m² -1,9 °C 1,0 °C 4,8 km/h (1 Bft)
03.03.2018 01:27 0,9 °C 82 % 1001,1 hPa 0,0 mm 1,9 km/h (1 Bft) S-SW 194 ° 0 min 0,000 mm 0,0 UV-I 0 W/m² -1,8 °C 0,9 °C 3,2 km/h (1 Bft)
03.03.2018 01:28 0,9 °C 82 % 1001,1 hPa 0,0 mm 1,1 km/h (1 Bft) S-SW 194 ° 0 min 0,000 mm 0,0 UV-I 0 W/m² -1,8 °C 0,9 °C 3,2 km/h (1 Bft)
03.03.2018 01:29 0,8 °C 82 % 1001,1 hPa 0,0 mm 3,8 km/h (1 Bft) S-SW 194 ° 0 min 0,000 mm 0,0 UV-I 0 W/m² -1,9 °C 0,8 °C 6,4 km/h (2 Bft)
03.03.2018 01:30 0,8 °C 82 % 1001,2 hPa 0,0 mm 4,4 km/h (1 Bft) S-SW 194 ° 0 min 0,000 mm 0,0 UV-I 0 W/m² -1,9 °C 0,8 °C 6,4 km/h (2 Bft)
03.03.2018 01:31 0,8 °C 82 % 1001,2 hPa 0,0 mm 6,0 km/h (2 Bft) S 190 ° 0 min 0,000 mm 0,0 UV-I 0 W/m² -1,9 °C -1,1 °C 9,7 km/h (2 Bft)
03.03.2018 01:32 0,8 °C 82 % 1001,2 hPa 0,0 mm 4,2 km/h (1 Bft) S-SW 192 ° 0 min 0,000 mm 0,0 UV-I 0 W/m² -1,9 °C 0,8 °C 6,4 km/h (2 Bft)
03.03.2018 01:33 0,7 °C 82 % 1001,2 hPa 0,0 mm 4,6 km/h (1 Bft) S-SW 196 ° 0 min 0,000 mm 0,0 UV-I 0 W/m² -2,0 °C -0,6 °C 6,4 km/h (2 Bft)
03.03.2018 01:34 0,7 °C 82 % 1001,2 hPa 0,0 mm 2,7 km/h (1 Bft) S-SW 196 ° 0 min 0,000 mm 0,0 UV-I 0 W/m² -2,0 °C 0,7 °C 3,2 km/h (1 Bft)
03.03.2018 01:35 0,6 °C 83 % 1001,2 hPa 0,0 mm 2,2 km/h (1 Bft) S-SW 196 ° 0 min 0,000 mm 0,0 UV-I 0 W/m² -1,9 °C 0,6 °C 3,2 km/h (1 Bft)
03.03.2018 01:36 0,6 °C 83 % 1001,3 hPa 0,0 mm 1,9 km/h (1 Bft) S-SW 196 ° 0 min 0,000 mm 0,0 UV-I 0 W/m² -1,9 °C 0,6 °C 3,2 km/h (1 Bft)
03.03.2018 01:37 0,6 °C 83 % 1001,2 hPa 0,0 mm 3,6 km/h (1 Bft) S-SW 199 ° 0 min 0,000 mm 0,0 UV-I 0 W/m² -1,9 °C 0,6 °C 4,8 km/h (1 Bft)
03.03.2018 01:38 0,5 °C 84 % 1001,2 hPa 0,0 mm 1,3 km/h (1 Bft) S-SW 199 ° 0 min 0,000 mm 0,0 UV-I 0 W/m² -1,9 °C 0,5 °C 3,2 km/h (1 Bft)
03.03.2018 01:39 0,5 °C 84 % 1001,2 hPa 0,0 mm 0,6 km/h (0 Bft) S-SW 199 ° 0 min 0,000 mm 0,0 UV-I 0 W/m² -1,9 °C 0,5 °C 1,6 km/h (1 Bft)
03.03.2018 01:40 0,4 °C 84 % 1001,2 hPa 0,0 mm 0,3 km/h (0 Bft) S-SW 199 ° 0 min 0,000 mm 0,0 UV-I 0 W/m² -2,0 °C 0,4 °C 3,2 km/h (1 Bft)
03.03.2018 01:41 0,4 °C 84 % 1001,3 hPa 0,0 mm 0,5 km/h (0 Bft) S-SW 199 ° 0 min 0,000 mm 0,0 UV-I 0 W/m² -2,0 °C 0,4 °C 3,2 km/h (1 Bft)
03.03.2018 01:42 0,4 °C 84 % 1001,2 hPa 0,0 mm 3,6 km/h (1 Bft) S-SW 211 ° 0 min 0,000 mm 0,0 UV-I 0 W/m² -2,0 °C 0,4 °C 6,4 km/h (2 Bft)
03.03.2018 01:43 0,4 °C 84 % 1001,3 hPa 0,0 mm 1,3 km/h (1 Bft) S-SW 211 ° 0 min 0,000 mm 0,0 UV-I 0 W/m² -2,0 °C 0,4 °C 3,2 km/h (1 Bft)
03.03.2018 01:44 0,3 °C 84 % 1001,2 hPa 0,0 mm 0,1 km/h (0 Bft) S-SW 211 ° 0 min 0,000 mm 0,0 UV-I 0 W/m² -2,1 °C 0,3 °C 1,6 km/h (1 Bft)
03.03.2018 01:45 0,3 °C 84 % 1001,2 hPa 0,0 mm 1,7 km/h (1 Bft) S-SW 211 ° 0 min 0,000 mm 0,0 UV-I 0 W/m² -2,1 °C 0,3 °C 3,2 km/h (1 Bft)
03.03.2018 01:46 0,3 °C 84 % 1001,2 hPa 0,0 mm 1,3 km/h (1 Bft) S-SW 211 ° 0 min 0,000 mm 0,0 UV-I 0 W/m² -2,1 °C 0,3 °C 3,2 km/h (1 Bft)
03.03.2018 01:47 0,3 °C 84 % 1001,2 hPa 0,0 mm 1,7 km/h (1 Bft) S-SW 211 ° 0 min 0,000 mm 0,0 UV-I 0 W/m² -2,1 °C 0,3 °C 3,2 km/h (1 Bft)
03.03.2018 01:48 0,3 °C 84 % 1001,1 hPa 0,0 mm 2,7 km/h (1 Bft) S-SW 201 ° 0 min 0,000 mm 0,0 UV-I 0 W/m² -2,1 °C 0,3 °C 4,8 km/h (1 Bft)
03.03.2018 01:49 0,3 °C 84 % 1001,1 hPa 0,0 mm 4,1 km/h (1 Bft) S-SW 202 ° 0 min 0,000 mm 0,0 UV-I 0 W/m² -2,1 °C 0,3 °C 6,4 km/h (2 Bft)
03.03.2018 01:50 0,4 °C 84 % 1001,1 hPa 0,0 mm 3,3 km/h (1 Bft) S-SW 202 ° 0 min 0,000 mm 0,0 UV-I 0 W/m² -2,0 °C 0,4 °C 4,8 km/h (1 Bft)
03.03.2018 01:51 0,4 °C 83 % 1001,2 hPa 0,0 mm 5,0 km/h (1 Bft) S-SW 200 ° 0 min 0,000 mm 0,0 UV-I 0 W/m² -2,1 °C -1,1 °C 8,0 km/h (2 Bft)
03.03.2018 01:52 0,4 °C 83 % 1001,2 hPa 0,0 mm 5,6 km/h (1 Bft) S-SW 199 ° 0 min 0,000 mm 0,0 UV-I 0 W/m² -2,1 °C -1,4 °C 8,0 km/h (2 Bft)
03.03.2018 01:53 0,5 °C 83 % 1001,2 hPa 0,0 mm 4,4 km/h (1 Bft) S-SW 199 ° 0 min 0,000 mm 0,0 UV-I 0 W/m² -2,0 °C 0,5 °C 6,4 km/h (2 Bft)
03.03.2018 01:54 0,5 °C 82 % 1001,2 hPa 0,0 mm 3,4 km/h (1 Bft) SW 215 ° 0 min 0,000 mm 0,0 UV-I 0 W/m² -2,2 °C 0,5 °C 4,8 km/h (1 Bft)
03.03.2018 01:55 0,5 °C 83 % 1001,2 hPa 0,0 mm 2,9 km/h (1 Bft) SW 215 ° 0 min 0,000 mm 0,0 UV-I 0 W/m² -2,0 °C 0,5 °C 4,8 km/h (1 Bft)
03.03.2018 01:56 0,5 °C 82 % 1001,2 hPa 0,0 mm 3,3 km/h (1 Bft) SW 215 ° 0 min 0,000 mm 0,0 UV-I 0 W/m² -2,2 °C 0,5 °C 4,8 km/h (1 Bft)
03.03.2018 01:57 0,4 °C 82 % 1001,2 hPa 0,0 mm 3,5 km/h (1 Bft) SW 215 ° 0 min 0,000 mm 0,0 UV-I 0 W/m² -2,3 °C 0,4 °C 4,8 km/h (1 Bft)
03.03.2018 01:58 0,4 °C 82 % 1001,2 hPa 0,0 mm 3,7 km/h (1 Bft) SW 215 ° 0 min 0,000 mm 0,0 UV-I 0 W/m² -2,3 °C 0,4 °C 4,8 km/h (1 Bft)
03.03.2018 01:59 0,4 °C 82 % 1001,2 hPa 0,0 mm 3,6 km/h (1 Bft) SW 215 ° 0 min 0,000 mm 0,0 UV-I 0 W/m² -2,3 °C 0,4 °C 4,8 km/h (1 Bft)
03.03.2018 02:00 0,4 °C 82 % 1001,1 hPa 0,0 mm 3,9 km/h (1 Bft) SW 215 ° 0 min 0,000 mm 0,0 UV-I 0 W/m² -2,3 °C 0,4 °C 4,8 km/h (1 Bft)
03.03.2018 02:01 0,4 °C 82 % 1001,1 hPa 0,0 mm 4,4 km/h (1 Bft) S-SW 211 ° 0 min 0,000 mm 0,0 UV-I 0 W/m² -2,3 °C 0,4 °C 6,4 km/h (2 Bft)
03.03.2018 02:02 0,3 °C 82 % 1001,1 hPa 0,0 mm 4,1 km/h (1 Bft) S-SW 211 ° 0 min 0,000 mm 0,0 UV-I 0 W/m² -2,4 °C 0,3 °C 4,8 km/h (1 Bft)
03.03.2018 02:03 0,3 °C 82 % 1001,1 hPa 0,0 mm 4,6 km/h (1 Bft) S-SW 210 ° 0 min 0,000 mm 0,0 UV-I 0 W/m² -2,4 °C -1,1 °C 6,4 km/h (2 Bft)
03.03.2018 02:04 0,2 °C 82 % 1001,0 hPa 0,0 mm 4,1 km/h (1 Bft) S-SW 205 ° 0 min 0,000 mm 0,0 UV-I 0 W/m² -2,5 °C 0,2 °C 6,4 km/h (2 Bft)
03.03.2018 02:05 0,3 °C 82 % 1001,0 hPa 0,0 mm 3,8 km/h (1 Bft) S-SW 205 ° 0 min 0,000 mm 0,0 UV-I 0 W/m² -2,4 °C 0,3 °C 4,8 km/h (1 Bft)
03.03.2018 02:06 0,2 °C 82 % 1001,1 hPa 0,0 mm 3,8 km/h (1 Bft) S-SW 205 ° 0 min 0,000 mm 0,0 UV-I 0 W/m² -2,5 °C 0,2 °C 6,4 km/h (2 Bft)
03.03.2018 02:07 0,2 °C 82 % 1001,0 hPa 0,0 mm 3,3 km/h (1 Bft) S-SW 205 ° 0 min 0,000 mm 0,0 UV-I 0 W/m² -2,5 °C 0,2 °C 4,8 km/h (1 Bft)
03.03.2018 02:08 0,2 °C 82 % 1001,0 hPa 0,0 mm 4,4 km/h (1 Bft) S-SW 205 ° 0 min 0,000 mm 0,0 UV-I 0 W/m² -2,5 °C 0,2 °C 8,0 km/h (2 Bft)
03.03.2018 02:09 0,2 °C 82 % 1001,0 hPa 0,0 mm 4,1 km/h (1 Bft) S-SW 205 ° 0 min 0,000 mm 0,0 UV-I 0 W/m² -2,5 °C 0,2 °C 6,4 km/h (2 Bft)
03.03.2018 02:10 0,3 °C 82 % 1001,0 hPa 0,0 mm 4,8 km/h (1 Bft) S-SW 196 ° 0 min 0,000 mm 0,0 UV-I 0 W/m² -2,4 °C -1,2 °C 9,7 km/h (2 Bft)
03.03.2018 02:11 0,3 °C 82 % 1001,0 hPa 0,0 mm 5,0 km/h (1 Bft) W-SW 237 ° 0 min 0,000 mm 0,0 UV-I 0 W/m² -2,4 °C -1,2 °C 11,3 km/h (2 Bft)
03.03.2018 02:12 0,4 °C 81 % 1000,9 hPa 0,0 mm 6,3 km/h (2 Bft) S-SW 207 ° 0 min 0,000 mm 0,0 UV-I 0 W/m² -2,5 °C -1,7 °C 9,7 km/h (2 Bft)
03.03.2018 02:13 0,5 °C 81 % 1000,9 hPa 0,0 mm 5,5 km/h (1 Bft) S-SW 212 ° 0 min 0,000 mm 0,0 UV-I 0 W/m² -2,4 °C -1,2 °C 9,7 km/h (2 Bft)
03.03.2018 02:14 0,6 °C 81 % 1000,9 hPa 0,0 mm 4,9 km/h (1 Bft) S-SW 209 ° 0 min 0,000 mm 0,0 UV-I 0 W/m² -2,3 °C -0,9 °C 6,4 km/h (2 Bft)
03.03.2018 02:15 0,6 °C 81 % 1001,0 hPa 0,0 mm 3,0 km/h (1 Bft) S-SW 209 ° 0 min 0,000 mm 0,0 UV-I 0 W/m² -2,3 °C 0,6 °C 6,4 km/h (2 Bft)
03.03.2018 02:16 0,7 °C 80 % 1001,0 hPa 0,0 mm 2,2 km/h (1 Bft) S-SW 209 ° 0 min 0,000 mm 0,0 UV-I 0 W/m² -2,3 °C 0,7 °C 6,4 km/h (2 Bft)
03.03.2018 02:17 0,7 °C 80 % 1001,0 hPa 0,0 mm 1,8 km/h (1 Bft) S-SW 209 ° 0 min 0,000 mm 0,0 UV-I 0 W/m² -2,3 °C 0,7 °C 3,2 km/h (1 Bft)
03.03.2018 02:18 0,7 °C 80 % 1001,0 hPa 0,0 mm 3,6 km/h (1 Bft) S-SW 209 ° 0 min 0,000 mm 0,0 UV-I 0 W/m² -2,3 °C 0,7 °C 6,4 km/h (2 Bft)
03.03.2018 02:19 0,6 °C 80 % 1001,0 hPa 0,0 mm 2,4 km/h (1 Bft) S-SW 205 ° 0 min 0,000 mm 0,0 UV-I 0 W/m² -2,4 °C 0,6 °C 6,4 km/h (2 Bft)
03.03.2018 02:20 0,6 °C 79 % 1000,9 hPa 0,0 mm 5,5 km/h (1 Bft) S-SW 208 ° 0 min 0,000 mm 0,0 UV-I 0 W/m² -2,6 °C -1,1 °C 8,0 km/h (2 Bft)
03.03.2018 02:21 0,6 °C 79 % 1000,9 hPa 0,0 mm 3,7 km/h (1 Bft) S-SW 208 ° 0 min 0,000 mm 0,0 UV-I 0 W/m² -2,6 °C 0,6 °C 4,8 km/h (1 Bft)
03.03.2018 02:22 0,6 °C 79 % 1000,9 hPa 0,0 mm 3,3 km/h (1 Bft) S-SW 207 ° 0 min 0,000 mm 0,0 UV-I 0 W/m² -2,6 °C 0,6 °C 6,4 km/h (2 Bft)
03.03.2018 02:23 0,6 °C 80 % 1000,9 hPa 0,0 mm 1,7 km/h (1 Bft) S-SW 207 ° 0 min 0,000 mm 0,0 UV-I 0 W/m² -2,4 °C 0,6 °C 3,2 km/h (1 Bft)
03.03.2018 02:24 0,5 °C 80 % 1000,9 hPa 0,0 mm 0,3 km/h (0 Bft) S-SW 207 ° 0 min 0,000 mm 0,0 UV-I 0 W/m² -2,5 °C 0,5 °C 1,6 km/h (1 Bft)
03.03.2018 02:25 0,6 °C 80 % 1000,9 hPa 0,0 mm 1,7 km/h (1 Bft) S-SW 207 ° 0 min 0,000 mm 0,0 UV-I 0 W/m² -2,4 °C 0,6 °C 3,2 km/h (1 Bft)
03.03.2018 02:26 0,4 °C 79 % 1000,9 hPa 0,0 mm 0,0 km/h (0 Bft) S-SW 207 ° 0 min 0,000 mm 0,0 UV-I 0 W/m² -2,8 °C 0,4 °C 0,0 km/h (0 Bft)
03.03.2018 02:27 -0,1 °C 77 % 1000,9 hPa 0,0 mm 0,7 km/h (0 Bft) S-SW 207 ° 0 min 0,000 mm 0,0 UV-I 0 W/m² -3,6 °C -0,1 °C 1,6 km/h (1 Bft)
03.03.2018 02:28 -0,7 °C 77 % 1000,9 hPa 0,0 mm 0,5 km/h (0 Bft) S-SW 207 ° 0 min 0,000 mm 0,0 UV-I 0 W/m² -4,2 °C -0,7 °C 1,6 km/h (1 Bft)
03.03.2018 02:29 -1,2 °C 80 % 1000,9 hPa 0,0 mm 0,1 km/h (0 Bft) S-SW 207 ° 0 min 0,000 mm 0,0 UV-I 0 W/m² -4,2 °C -1,2 °C 1,6 km/h (1 Bft)
03.03.2018 02:30 -1,7 °C 81 % 1000,9 hPa 0,0 mm 0,0 km/h (0 Bft) S-SW 207 ° 0 min 0,000 mm 0,0 UV-I 0 W/m² -4,5 °C -1,7 °C 0,0 km/h (0 Bft)
03.03.2018 02:31 -2,1 °C 83 % 1000,9 hPa 0,0 mm 0,0 km/h (0 Bft) S-SW 207 ° 0 min 0,000 mm 0,0 UV-I 0 W/m² -4,6 °C -2,1 °C 0,0 km/h (0 Bft)
03.03.2018 02:32 -2,4 °C 84 % 1000,9 hPa 0,0 mm 0,0 km/h (0 Bft) S-SW 207 ° 0 min 0,000 mm 0,0 UV-I 0 W/m² -4,7 °C -2,4 °C 0,0 km/h (0 Bft)
03.03.2018 02:33 -2,7 °C 85 % 1000,9 hPa 0,0 mm 0,1 km/h (0 Bft) S-SW 207 ° 0 min 0,000 mm 0,0 UV-I 0 W/m² -4,9 °C -2,7 °C 1,6 km/h (1 Bft)
03.03.2018 02:34 -2,8 °C 87 % 1000,9 hPa 0,0 mm 1,0 km/h (0 Bft) S-SW 207 ° 0 min 0,000 mm 0,0 UV-I 0 W/m² -4,7 °C -2,8 °C 1,6 km/h (1 Bft)
03.03.2018 02:35 -2,9 °C 87 % 1001,0 hPa 0,0 mm 0,2 km/h (0 Bft) S-SW 207 ° 0 min 0,000 mm 0,0 UV-I 0 W/m² -4,8 °C -2,9 °C 1,6 km/h (1 Bft)
03.03.2018 02:36 -2,9 °C 88 % 1001,0 hPa 0,0 mm 0,0 km/h (0 Bft) S-SW 207 ° 0 min 0,000 mm 0,0 UV-I 0 W/m² -4,6 °C -2,9 °C 0,0 km/h (0 Bft)
03.03.2018 02:37 -2,9 °C 89 % 1001,0 hPa 0,0 mm 0,6 km/h (0 Bft) S-SW 207 ° 0 min 0,000 mm 0,0 UV-I 0 W/m² -4,5 °C -2,9 °C 3,2 km/h (1 Bft)
03.03.2018 02:38 -2,8 °C 90 % 1000,9 hPa 0,0 mm 2,1 km/h (1 Bft) S-SW 207 ° 0 min 0,000 mm 0,0 UV-I 0 W/m² -4,2 °C -2,8 °C 3,2 km/h (1 Bft)
03.03.2018 02:39 -2,7 °C 90 % 1000,9 hPa 0,0 mm 0,5 km/h (0 Bft) S-SW 207 ° 0 min 0,000 mm 0,0 UV-I 0 W/m² -4,1 °C -2,7 °C 1,6 km/h (1 Bft)
03.03.2018 02:40 -2,7 °C 89 % 1000,9 hPa 0,0 mm 0,1 km/h (0 Bft) S-SW 207 ° 0 min 0,000 mm 0,0 UV-I 0 W/m² -4,3 °C -2,7 °C 1,6 km/h (1 Bft)
03.03.2018 02:41 -2,8 °C 89 % 1001,0 hPa 0,0 mm 0,4 km/h (0 Bft) S-SW 207 ° 0 min 0,000 mm 0,0 UV-I 0 W/m² -4,4 °C -2,8 °C 1,6 km/h (1 Bft)
03.03.2018 02:42 -2,9 °C 89 % 1000,9 hPa 0,0 mm 0,0 km/h (0 Bft) S-SW 207 ° 0 min 0,000 mm 0,0 UV-I 0 W/m² -4,5 °C -2,9 °C 0,0 km/h (0 Bft)
03.03.2018 02:43 -2,9 °C 88 % 1000,9 hPa 0,0 mm 0,0 km/h (0 Bft) S-SW 207 ° 0 min 0,000 mm 0,0 UV-I 0 W/m² -4,6 °C -2,9 °C 0,0 km/h (0 Bft)
03.03.2018 02:44 -3,0 °C 89 % 1000,9 hPa 0,0 mm 0,0 km/h (0 Bft) S-SW 207 ° 0 min 0,000 mm 0,0 UV-I 0 W/m² -4,6 °C -3,0 °C 0,0 km/h (0 Bft)
03.03.2018 02:45 -3,1 °C 89 % 1000,9 hPa 0,0 mm 0,0 km/h (0 Bft) S-SW 207 ° 0 min 0,000 mm 0,0 UV-I 0 W/m² -4,6 °C -3,1 °C 0,0 km/h (0 Bft)
03.03.2018 02:46 -3,0 °C 90 % 1000,9 hPa 0,0 mm 0,0 km/h (0 Bft) S-SW 207 ° 0 min 0,000 mm 0,0 UV-I 0 W/m² -4,4 °C -3,0 °C 0,0 km/h (0 Bft)
03.03.2018 02:47 -2,9 °C 90 % 1000,9 hPa 0,0 mm 0,0 km/h (0 Bft) S-SW 207 ° 0 min 0,000 mm 0,0 UV-I 0 W/m² -4,3 °C -2,9 °C 0,0 km/h (0 Bft)
03.03.2018 02:48 -2,9 °C 90 % 1000,9 hPa 0,0 mm 0,0 km/h (0 Bft) S-SW 207 ° 0 min 0,000 mm 0,0 UV-I 0 W/m² -4,3 °C -2,9 °C 0,0 km/h (0 Bft)
03.03.2018 02:49 -2,8 °C 90 % 1000,9 hPa 0,0 mm 0,0 km/h (0 Bft) S-SW 207 ° 0 min 0,000 mm 0,0 UV-I 0 W/m² -4,2 °C -2,8 °C 0,0 km/h (0 Bft)
03.03.2018 02:50 -2,6 °C 91 % 1000,8 hPa 0,0 mm 0,0 km/h (0 Bft) S-SW 207 ° 0 min 0,000 mm 0,0 UV-I 0 W/m² -3,9 °C -2,6 °C 0,0 km/h (0 Bft)
03.03.2018 02:51 -2,4 °C 91 % 1000,8 hPa 0,0 mm 0,0 km/h (0 Bft) S-SW 207 ° 0 min 0,000 mm 0,0 UV-I 0 W/m² -3,7 °C -2,4 °C 0,0 km/h (0 Bft)
03.03.2018 02:52 -2,3 °C 90 % 1000,7 hPa 0,0 mm 0,0 km/h (0 Bft) S-SW 207 ° 0 min 0,000 mm 0,0 UV-I 0 W/m² -3,7 °C -2,3 °C 0,0 km/h (0 Bft)
03.03.2018 02:53 -2,2 °C 90 % 1000,7 hPa 0,0 mm 0,0 km/h (0 Bft) S-SW 207 ° 0 min 0,000 mm 0,0 UV-I 0 W/m² -3,6 °C -2,2 °C 0,0 km/h (0 Bft)
03.03.2018 02:54 -2,3 °C 89 % 1000,7 hPa 0,0 mm 0,0 km/h (0 Bft) S-SW 207 ° 0 min 0,000 mm 0,0 UV-I 0 W/m² -3,9 °C -2,3 °C 0,0 km/h (0 Bft)
03.03.2018 02:55 -2,3 °C 88 % 1000,7 hPa 0,0 mm 0,0 km/h (0 Bft) S-SW 207 ° 0 min 0,000 mm 0,0 UV-I 0 W/m² -4,0 °C -2,3 °C 0,0 km/h (0 Bft)
03.03.2018 02:56 -2,4 °C 88 % 1000,7 hPa 0,0 mm 0,0 km/h (0 Bft) S-SW 207 ° 0 min 0,000 mm 0,0 UV-I 0 W/m² -4,1 °C -2,4 °C 0,0 km/h (0 Bft)
03.03.2018 02:57 -2,5 °C 88 % 1000,7 hPa 0,0 mm 0,0 km/h (0 Bft) S-SW 207 ° 0 min 0,000 mm 0,0 UV-I 0 W/m² -4,2 °C -2,5 °C 0,0 km/h (0 Bft)
03.03.2018 02:58 -2,7 °C 87 % 1000,6 hPa 0,0 mm 0,0 km/h (0 Bft) S-SW 207 ° 0 min 0,000 mm 0,0 UV-I 0 W/m² -4,6 °C -2,7 °C 0,0 km/h (0 Bft)
03.03.2018 02:59 -2,9 °C 87 % 1000,6 hPa 0,0 mm 0,0 km/h (0 Bft) S-SW 207 ° 0 min 0,000 mm 0,0 UV-I 0 W/m² -4,8 °C -2,9 °C 0,0 km/h (0 Bft)
03.03.2018 03:00 -3,1 °C 87 % 1000,6 hPa 0,0 mm 0,0 km/h (0 Bft) S-SW 207 ° 0 min 0,000 mm 0,0 UV-I 0 W/m² -4,9 °C -3,1 °C 0,0 km/h (0 Bft)
03.03.2018 03:01 -3,2 °C 88 % 1000,6 hPa 0,0 mm 0,0 km/h (0 Bft) S-SW 207 ° 0 min 0,000 mm 0,0 UV-I 0 W/m² -4,9 °C -3,2 °C 0,0 km/h (0 Bft)
03.03.2018 03:02 -3,3 °C 88 % 1000,6 hPa 0,0 mm 0,0 km/h (0 Bft) S-SW 207 ° 0 min 0,000 mm 0,0 UV-I 0 W/m² -5,0 °C -3,3 °C 0,0 km/h (0 Bft)
03.03.2018 03:03 -3,4 °C 88 % 1000,6 hPa 0,0 mm 0,0 km/h (0 Bft) S-SW 207 ° 0 min 0,000 mm 0,0 UV-I 0 W/m² -5,1 °C -3,4 °C 0,0 km/h (0 Bft)
03.03.2018 03:04 -3,6 °C 88 % 1000,6 hPa 0,0 mm 0,0 km/h (0 Bft) S-SW 207 ° 0 min 0,000 mm 0,0 UV-I 0 W/m² -5,3 °C -3,6 °C 0,0 km/h (0 Bft)
03.03.2018 03:05 -3,7 °C 88 % 1000,6 hPa 0,0 mm 0,0 km/h (0 Bft) S-SW 207 ° 0 min 0,000 mm 0,0 UV-I 0 W/m² -5,4 °C -3,7 °C 0,0 km/h (0 Bft)
03.03.2018 03:06 -3,8 °C 88 % 1000,6 hPa 0,0 mm 0,0 km/h (0 Bft) S-SW 207 ° 0 min 0,000 mm 0,0 UV-I 0 W/m² -5,5 °C -3,8 °C 0,0 km/h (0 Bft)
03.03.2018 03:07 -3,9 °C 89 % 1000,6 hPa 0,0 mm 0,0 km/h (0 Bft) S-SW 207 ° 0 min 0,000 mm 0,0 UV-I 0 W/m² -5,4 °C -3,9 °C 0,0 km/h (0 Bft)
03.03.2018 03:08 -3,8 °C 90 % 1000,6 hPa 0,0 mm 0,0 km/h (0 Bft) S-SW 207 ° 0 min 0,000 mm 0,0 UV-I 0 W/m² -5,2 °C -3,8 °C 0,0 km/h (0 Bft)
03.03.2018 03:09 -3,8 °C 90 % 1000,6 hPa 0,0 mm 0,0 km/h (0 Bft) S-SW 207 ° 0 min 0,000 mm 0,0 UV-I 0 W/m² -5,2 °C -3,8 °C 0,0 km/h (0 Bft)
03.03.2018 03:10 -3,8 °C 91 % 1000,6 hPa 0,0 mm 0,0 km/h (0 Bft) S-SW 207 ° 0 min 0,000 mm 0,0 UV-I 0 W/m² -5,0 °C -3,8 °C 0,0 km/h (0 Bft)
03.03.2018 03:11 -3,8 °C 91 % 1000,5 hPa 0,0 mm 0,0 km/h (0 Bft) S-SW 207 ° 0 min 0,000 mm 0,0 UV-I 0 W/m² -5,0 °C -3,8 °C 0,0 km/h (0 Bft)
03.03.2018 03:12 -3,8 °C 91 % 1000,6 hPa 0,0 mm 0,0 km/h (0 Bft) S-SW 207 ° 0 min 0,000 mm 0,0 UV-I 0 W/m² -5,0 °C -3,8 °C 0,0 km/h (0 Bft)
03.03.2018 03:13 -3,8 °C 91 % 1000,6 hPa 0,0 mm 0,0 km/h (0 Bft) S-SW 207 ° 0 min 0,000 mm 0,0 UV-I 0 W/m² -5,0 °C -3,8 °C 0,0 km/h (0 Bft)
03.03.2018 03:14 -3,8 °C 91 % 1000,5 hPa 0,0 mm 0,0 km/h (0 Bft) S-SW 207 ° 0 min 0,000 mm 0,0 UV-I 0 W/m² -5,0 °C -3,8 °C 0,0 km/h (0 Bft)
03.03.2018 03:15 -3,8 °C 91 % 1000,5 hPa 0,0 mm 0,0 km/h (0 Bft) S-SW 207 ° 0 min 0,000 mm 0,0 UV-I 0 W/m² -5,0 °C -3,8 °C 0,0 km/h (0 Bft)
03.03.2018 03:16 -3,8 °C 91 % 1000,5 hPa 0,0 mm 0,0 km/h (0 Bft) S-SW 207 ° 0 min 0,000 mm 0,0 UV-I 0 W/m² -5,0 °C -3,8 °C 0,0 km/h (0 Bft)
03.03.2018 03:17 -3,8 °C 91 % 1000,5 hPa 0,0 mm 0,0 km/h (0 Bft) S-SW 207 ° 0 min 0,000 mm 0,0 UV-I 0 W/m² -5,0 °C -3,8 °C 0,0 km/h (0 Bft)
03.03.2018 03:18 -3,9 °C 91 % 1000,5 hPa 0,0 mm 0,0 km/h (0 Bft) S-SW 207 ° 0 min 0,000 mm 0,0 UV-I 0 W/m² -5,1 °C -3,9 °C 0,0 km/h (0 Bft)
03.03.2018 03:19 -3,9 °C 91 % 1000,4 hPa 0,0 mm 0,0 km/h (0 Bft) S-SW 207 ° 0 min 0,000 mm 0,0 UV-I 0 W/m² -5,1 °C -3,9 °C 0,0 km/h (0 Bft)
03.03.2018 03:20 -3,9 °C 91 % 1000,4 hPa 0,0 mm 0,0 km/h (0 Bft) S-SW 207 ° 0 min 0,000 mm 0,0 UV-I 0 W/m² -5,1 °C -3,9 °C 0,0 km/h (0 Bft)
03.03.2018 03:21 -3,9 °C 92 % 1000,4 hPa 0,0 mm 0,0 km/h (0 Bft) S-SW 207 ° 0 min 0,000 mm 0,0 UV-I 0 W/m² -5,0 °C -3,9 °C 0,0 km/h (0 Bft)
03.03.2018 03:22 -3,9 °C 92 % 1000,4 hPa 0,0 mm 0,0 km/h (0 Bft) S-SW 207 ° 0 min 0,000 mm 0,0 UV-I 0 W/m² -5,0 °C -3,9 °C 0,0 km/h (0 Bft)
03.03.2018 03:23 -4,0 °C 92 % 1000,4 hPa 0,0 mm 0,0 km/h (0 Bft) S-SW 207 ° 0 min 0,000 mm 0,0 UV-I 0 W/m² -5,1 °C -4,0 °C 0,0 km/h (0 Bft)
03.03.2018 03:24 -4,0 °C 92 % 1000,4 hPa 0,0 mm 0,0 km/h (0 Bft) S-SW 207 ° 0 min 0,000 mm 0,0 UV-I 0 W/m² -5,1 °C -4,0 °C 0,0 km/h (0 Bft)
03.03.2018 03:25 -4,0 °C 92 % 1000,4 hPa 0,0 mm 0,0 km/h (0 Bft) S-SW 207 ° 0 min 0,000 mm 0,0 UV-I 0 W/m² -5,1 °C -4,0 °C 0,0 km/h (0 Bft)
03.03.2018 03:26 -4,0 °C 92 % 1000,3 hPa 0,0 mm 0,0 km/h (0 Bft) S-SW 207 ° 0 min 0,000 mm 0,0 UV-I 0 W/m² -5,1 °C -4,0 °C 0,0 km/h (0 Bft)
03.03.2018 03:27 -4,0 °C 92 % 1000,4 hPa 0,0 mm 0,0 km/h (0 Bft) S-SW 207 ° 0 min 0,000 mm 0,0 UV-I 0 W/m² -5,1 °C -4,0 °C 0,0 km/h (0 Bft)
03.03.2018 03:28 -4,0 °C 92 % 1000,4 hPa 0,0 mm 0,0 km/h (0 Bft) S-SW 207 ° 0 min 0,000 mm 0,0 UV-I 0 W/m² -5,1 °C -4,0 °C 0,0 km/h (0 Bft)
03.03.2018 03:29 -4,0 °C 92 % 1000,3 hPa 0,0 mm 0,0 km/h (0 Bft) S-SW 207 ° 0 min 0,000 mm 0,0 UV-I 0 W/m² -5,1 °C -4,0 °C 0,0 km/h (0 Bft)
03.03.2018 03:30 -4,0 °C 92 % 1000,3 hPa 0,0 mm 0,0 km/h (0 Bft) S-SW 207 ° 0 min 0,000 mm 0,0 UV-I 0 W/m² -5,1 °C -4,0 °C 0,0 km/h (0 Bft)
03.03.2018 03:31 -4,1 °C 92 % 1000,3 hPa 0,0 mm 0,0 km/h (0 Bft) S-SW 207 ° 0 min 0,000 mm 0,0 UV-I 0 W/m² -5,2 °C -4,1 °C 0,0 km/h (0 Bft)
03.03.2018 03:32 -4,2 °C 92 % 1000,3 hPa 0,0 mm 0,0 km/h (0 Bft) S-SW 207 ° 0 min 0,000 mm 0,0 UV-I 0 W/m² -5,3 °C -4,2 °C 0,0 km/h (0 Bft)
03.03.2018 03:33 -4,2 °C 92 % 1000,3 hPa 0,0 mm 0,0 km/h (0 Bft) S-SW 207 ° 0 min 0,000 mm 0,0 UV-I 0 W/m² -5,3 °C -4,2 °C 0,0 km/h (0 Bft)
03.03.2018 03:34 -4,2 °C 92 % 1000,2 hPa 0,0 mm 0,0 km/h (0 Bft) S-SW 207 ° 0 min 0,000 mm 0,0 UV-I 0 W/m² -5,3 °C -4,2 °C 0,0 km/h (0 Bft)
03.03.2018 03:35 -4,2 °C 92 % 1000,2 hPa 0,0 mm 0,0 km/h (0 Bft) S-SW 207 ° 0 min 0,000 mm 0,0 UV-I 0 W/m² -5,3 °C -4,2 °C 0,0 km/h (0 Bft)
03.03.2018 03:36 -4,1 °C 92 % 1000,2 hPa 0,0 mm 0,0 km/h (0 Bft) S-SW 207 ° 0 min 0,000 mm 0,0 UV-I 0 W/m² -5,2 °C -4,1 °C 0,0 km/h (0 Bft)
03.03.2018 03:37 -4,1 °C 92 % 1000,2 hPa 0,0 mm 0,0 km/h (0 Bft) S-SW 207 ° 0 min 0,000 mm 0,0 UV-I 0 W/m² -5,2 °C -4,1 °C 0,0 km/h (0 Bft)
03.03.2018 03:38 -4,1 °C 92 % 1000,2 hPa 0,0 mm 0,0 km/h (0 Bft) S-SW 207 ° 0 min 0,000 mm 0,0 UV-I 0 W/m² -5,2 °C -4,1 °C 0,0 km/h (0 Bft)
03.03.2018 03:39 -4,1 °C 92 % 1000,2 hPa 0,0 mm 0,0 km/h (0 Bft) S-SW 207 ° 0 min 0,000 mm 0,0 UV-I 0 W/m² -5,2 °C -4,1 °C 0,0 km/h (0 Bft)
03.03.2018 03:40 -4,1 °C 92 % 1000,1 hPa 0,0 mm 0,0 km/h (0 Bft) S-SW 207 ° 0 min 0,000 mm 0,0 UV-I 0 W/m² -5,2 °C -4,1 °C 0,0 km/h (0 Bft)
03.03.2018 03:41 -4,2 °C 92 % 1000,1 hPa 0,0 mm 0,0 km/h (0 Bft) S-SW 207 ° 0 min 0,000 mm 0,0 UV-I 0 W/m² -5,3 °C -4,2 °C 0,0 km/h (0 Bft)
03.03.2018 03:42 -4,2 °C 92 % 1000,1 hPa 0,0 mm 0,0 km/h (0 Bft) S-SW 207 ° 0 min 0,000 mm 0,0 UV-I 0 W/m² -5,3 °C -4,2 °C 0,0 km/h (0 Bft)
03.03.2018 03:43 -4,1 °C 92 % 1000,1 hPa 0,0 mm 0,0 km/h (0 Bft) S-SW 207 ° 0 min 0,000 mm 0,0 UV-I 0 W/m² -5,2 °C -4,1 °C 0,0 km/h (0 Bft)
03.03.2018 03:44 -4,1 °C 92 % 1000,1 hPa 0,0 mm 0,0 km/h (0 Bft) S-SW 207 ° 0 min 0,000 mm 0,0 UV-I 0 W/m² -5,2 °C -4,1 °C 0,0 km/h (0 Bft)
03.03.2018 03:45 -4,1 °C 92 % 1000,1 hPa 0,0 mm 0,0 km/h (0 Bft) S-SW 207 ° 0 min 0,000 mm 0,0 UV-I 0 W/m² -5,2 °C -4,1 °C 0,0 km/h (0 Bft)
03.03.2018 03:46 -4,1 °C 92 % 1000,1 hPa 0,0 mm 0,0 km/h (0 Bft) S-SW 207 ° 0 min 0,000 mm 0,0 UV-I 0 W/m² -5,2 °C -4,1 °C 0,0 km/h (0 Bft)
03.03.2018 03:47 -4,2 °C 92 % 1000,0 hPa 0,0 mm 0,0 km/h (0 Bft) S-SW 207 ° 0 min 0,000 mm 0,0 UV-I 0 W/m² -5,3 °C -4,2 °C 0,0 km/h (0 Bft)
03.03.2018 03:48 -4,2 °C 92 % 1000,1 hPa 0,0 mm 0,0 km/h (0 Bft) S-SW 207 ° 0 min 0,000 mm 0,0 UV-I 0 W/m² -5,3 °C -4,2 °C 0,0 km/h (0 Bft)
03.03.2018 03:49 -4,2 °C 92 % 1000,0 hPa 0,0 mm 0,0 km/h (0 Bft) S-SW 207 ° 0 min 0,000 mm 0,0 UV-I 0 W/m² -5,3 °C -4,2 °C 0,0 km/h (0 Bft)
03.03.2018 03:50 -4,2 °C 93 % 1000,0 hPa 0,0 mm 0,0 km/h (0 Bft) S-SW 207 ° 0 min 0,000 mm 0,0 UV-I 0 W/m² -5,2 °C -4,2 °C 0,0 km/h (0 Bft)
03.03.2018 03:51 -4,2 °C 92 % 1000,0 hPa 0,0 mm 0,0 km/h (0 Bft) S-SW 207 ° 0 min 0,000 mm 0,0 UV-I 0 W/m² -5,3 °C -4,2 °C 0,0 km/h (0 Bft)
03.03.2018 03:52 -4,2 °C 92 % 1000,0 hPa 0,0 mm 0,0 km/h (0 Bft) S-SW 207 ° 0 min 0,000 mm 0,0 UV-I 0 W/m² -5,3 °C -4,2 °C 0,0 km/h (0 Bft)
03.03.2018 03:53 -4,3 °C 92 % 1000,1 hPa 0,0 mm 0,0 km/h (0 Bft) S-SW 207 ° 0 min 0,000 mm 0,0 UV-I 0 W/m² -5,4 °C -4,3 °C 0,0 km/h (0 Bft)
03.03.2018 03:54 -4,3 °C 92 % 1000,0 hPa 0,0 mm 0,0 km/h (0 Bft) S-SW 207 ° 0 min 0,000 mm 0,0 UV-I 0 W/m² -5,4 °C -4,3 °C 0,0 km/h (0 Bft)
03.03.2018 03:55 -4,3 °C 92 % 1000,0 hPa 0,0 mm 0,0 km/h (0 Bft) S-SW 207 ° 0 min 0,000 mm 0,0 UV-I 0 W/m² -5,4 °C -4,3 °C 0,0 km/h (0 Bft)
03.03.2018 03:56 -4,3 °C 92 % 1000,0 hPa 0,0 mm 0,0 km/h (0 Bft) S-SW 207 ° 0 min 0,000 mm 0,0 UV-I 0 W/m² -5,4 °C -4,3 °C 0,0 km/h (0 Bft)
03.03.2018 03:57 -4,3 °C 93 % 1000,0 hPa 0,0 mm 0,0 km/h (0 Bft) S-SW 207 ° 0 min 0,000 mm 0,0 UV-I 0 W/m² -5,3 °C -4,3 °C 0,0 km/h (0 Bft)
03.03.2018 03:58 -4,3 °C 93 % 999,9 hPa 0,0 mm 0,0 km/h (0 Bft) S-SW 207 ° 0 min 0,000 mm 0,0 UV-I 0 W/m² -5,3 °C -4,3 °C 0,0 km/h (0 Bft)
03.03.2018 03:59 -4,3 °C 93 % 1000,0 hPa 0,0 mm 0,0 km/h (0 Bft) S-SW 207 ° 0 min 0,000 mm 0,0 UV-I 0 W/m² -5,3 °C -4,3 °C 0,0 km/h (0 Bft)
03.03.2018 04:00 -4,3 °C 93 % 1000,0 hPa 0,0 mm 0,0 km/h (0 Bft) S-SW 207 ° 0 min 0,000 mm 0,0 UV-I 0 W/m² -5,3 °C -4,3 °C 0,0 km/h (0 Bft)
03.03.2018 04:01 -4,4 °C 93 % 1000,0 hPa 0,0 mm 0,0 km/h (0 Bft) S-SW 207 ° 0 min 0,000 mm 0,0 UV-I 0 W/m² -5,4 °C -4,4 °C 0,0 km/h (0 Bft)
03.03.2018 04:02 -4,6 °C 92 % 999,9 hPa 0,0 mm 0,0 km/h (0 Bft) S-SW 207 ° 0 min 0,000 mm 0,0 UV-I 0 W/m² -5,7 °C -4,6 °C 0,0 km/h (0 Bft)
03.03.2018 04:03 -4,7 °C 92 % 999,9 hPa 0,0 mm 0,0 km/h (0 Bft) S-SW 207 ° 0 min 0,000 mm 0,0 UV-I 0 W/m² -5,8 °C -4,7 °C 0,0 km/h (0 Bft)
03.03.2018 04:04 -4,8 °C 92 % 999,9 hPa 0,0 mm 0,0 km/h (0 Bft) S-SW 207 ° 0 min 0,000 mm 0,0 UV-I 0 W/m² -5,9 °C -4,8 °C 0,0 km/h (0 Bft)
03.03.2018 04:05 -4,8 °C 92 % 999,8 hPa 0,0 mm 0,0 km/h (0 Bft) S-SW 207 ° 0 min 0,000 mm 0,0 UV-I 0 W/m² -5,9 °C -4,8 °C 0,0 km/h (0 Bft)
03.03.2018 04:06 -4,8 °C 92 % 999,8 hPa 0,0 mm 0,0 km/h (0 Bft) S-SW 207 ° 0 min 0,000 mm 0,0 UV-I 0 W/m² -5,9 °C -4,8 °C 0,0 km/h (0 Bft)
03.03.2018 04:07 -4,8 °C 92 % 999,8 hPa 0,0 mm 0,0 km/h (0 Bft) S-SW 207 ° 0 min 0,000 mm 0,0 UV-I 0 W/m² -5,9 °C -4,8 °C 0,0 km/h (0 Bft)
03.03.2018 04:08 -4,8 °C 93 % 999,8 hPa 0,0 mm 0,0 km/h (0 Bft) S-SW 207 ° 0 min 0,000 mm 0,0 UV-I 0 W/m² -5,8 °C -4,8 °C 0,0 km/h (0 Bft)
03.03.2018 04:09 -4,8 °C 93 % 999,8 hPa 0,0 mm 0,0 km/h (0 Bft) S-SW 207 ° 0 min 0,000 mm 0,0 UV-I 0 W/m² -5,8 °C -4,8 °C 0,0 km/h (0 Bft)
03.03.2018 04:10 -4,7 °C 93 % 999,8 hPa 0,0 mm 0,0 km/h (0 Bft) S-SW 207 ° 0 min 0,000 mm 0,0 UV-I 0 W/m² -5,7 °C -4,7 °C 0,0 km/h (0 Bft)
03.03.2018 04:11 -4,7 °C 93 % 999,7 hPa 0,0 mm 0,0 km/h (0 Bft) S-SW 207 ° 0 min 0,000 mm 0,0 UV-I 0 W/m² -5,7 °C -4,7 °C 0,0 km/h (0 Bft)
03.03.2018 04:12 -4,7 °C 93 % 999,7 hPa 0,0 mm 0,0 km/h (0 Bft) S-SW 207 ° 0 min 0,000 mm 0,0 UV-I 0 W/m² -5,7 °C -4,7 °C 0,0 km/h (0 Bft)
03.03.2018 04:13 -4,7 °C 92 % 999,6 hPa 0,0 mm 0,0 km/h (0 Bft) S-SW 207 ° 0 min 0,000 mm 0,0 UV-I 0 W/m² -5,8 °C -4,7 °C 0,0 km/h (0 Bft)
03.03.2018 04:14 -4,8 °C 92 % 999,6 hPa 0,0 mm 0,0 km/h (0 Bft) S-SW 207 ° 0 min 0,000 mm 0,0 UV-I 0 W/m² -5,9 °C -4,8 °C 0,0 km/h (0 Bft)
03.03.2018 04:15 -4,8 °C 92 % 999,6 hPa 0,0 mm 0,0 km/h (0 Bft) S-SW 207 ° 0 min 0,000 mm 0,0 UV-I 0 W/m² -5,9 °C -4,8 °C 0,0 km/h (0 Bft)
03.03.2018 04:16 -4,8 °C 93 % 999,6 hPa 0,0 mm 0,0 km/h (0 Bft) S-SW 207 ° 0 min 0,000 mm 0,0 UV-I 0 W/m² -5,8 °C -4,8 °C 0,0 km/h (0 Bft)
03.03.2018 04:17 -4,7 °C 93 % 999,5 hPa 0,0 mm 0,0 km/h (0 Bft) S-SW 207 ° 0 min 0,000 mm 0,0 UV-I 0 W/m² -5,7 °C -4,7 °C 0,0 km/h (0 Bft)
03.03.2018 04:18 -4,6 °C 93 % 999,5 hPa 0,0 mm 0,0 km/h (0 Bft) S-SW 207 ° 0 min 0,000 mm 0,0 UV-I 0 W/m² -5,6 °C -4,6 °C 0,0 km/h (0 Bft)
03.03.2018 04:19 -4,6 °C 93 % 999,5 hPa 0,0 mm 0,0 km/h (0 Bft) S-SW 207 ° 0 min 0,000 mm 0,0 UV-I 0 W/m² -5,6 °C -4,6 °C 0,0 km/h (0 Bft)
03.03.2018 04:20 -4,7 °C 93 % 999,5 hPa 0,0 mm 0,0 km/h (0 Bft) S-SW 207 ° 0 min 0,000 mm 0,0 UV-I 0 W/m² -5,7 °C -4,7 °C 0,0 km/h (0 Bft)
03.03.2018 04:21 -4,8 °C 92 % 999,5 hPa 0,0 mm 0,0 km/h (0 Bft) S-SW 207 ° 0 min 0,000 mm 0,0 UV-I 0 W/m² -5,9 °C -4,8 °C 0,0 km/h (0 Bft)
03.03.2018 04:22 -4,8 °C 92 % 999,5 hPa 0,0 mm 0,0 km/h (0 Bft) S-SW 207 ° 0 min 0,000 mm 0,0 UV-I 0 W/m² -5,9 °C -4,8 °C 0,0 km/h (0 Bft)
03.03.2018 04:23 -4,8 °C 93 % 999,5 hPa 0,0 mm 0,0 km/h (0 Bft) S-SW 207 ° 0 min 0,000 mm 0,0 UV-I 0 W/m² -5,8 °C -4,8 °C 0,0 km/h (0 Bft)
03.03.2018 04:24 -4,8 °C 93 % 999,5 hPa 0,0 mm 0,0 km/h (0 Bft) S-SW 207 ° 0 min 0,000 mm 0,0 UV-I 0 W/m² -5,8 °C -4,8 °C 0,0 km/h (0 Bft)
03.03.2018 04:25 -4,8 °C 93 % 999,5 hPa 0,0 mm 0,0 km/h (0 Bft) S-SW 207 ° 0 min 0,000 mm 0,0 UV-I 0 W/m² -5,8 °C -4,8 °C 0,0 km/h (0 Bft)
03.03.2018 04:26 -4,7 °C 93 % 999,4 hPa 0,0 mm 0,0 km/h (0 Bft) S-SW 207 ° 0 min 0,000 mm 0,0 UV-I 0 W/m² -5,7 °C -4,7 °C 0,0 km/h (0 Bft)
03.03.2018 04:27 -4,7 °C 93 % 999,4 hPa 0,0 mm 0,0 km/h (0 Bft) S-SW 207 ° 0 min 0,000 mm 0,0 UV-I 0 W/m² -5,7 °C -4,7 °C 0,0 km/h (0 Bft)
03.03.2018 04:28 -4,7 °C 93 % 999,4 hPa 0,0 mm 0,0 km/h (0 Bft) S-SW 207 ° 0 min 0,000 mm 0,0 UV-I 0 W/m² -5,7 °C -4,7 °C 0,0 km/h (0 Bft)
03.03.2018 04:29 -4,7 °C 93 % 999,4 hPa 0,0 mm 0,0 km/h (0 Bft) S-SW 207 ° 0 min 0,000 mm 0,0 UV-I 0 W/m² -5,7 °C -4,7 °C 0,0 km/h (0 Bft)
03.03.2018 04:30 -4,6 °C 93 % 999,4 hPa 0,0 mm 0,0 km/h (0 Bft) S-SW 207 ° 0 min 0,000 mm 0,0 UV-I 0 W/m² -5,6 °C -4,6 °C 0,0 km/h (0 Bft)
03.03.2018 04:31 -4,7 °C 93 % 999,4 hPa 0,0 mm 0,0 km/h (0 Bft) S-SW 207 ° 0 min 0,000 mm 0,0 UV-I 0 W/m² -5,7 °C -4,7 °C 0,0 km/h (0 Bft)
03.03.2018 04:32 -4,7 °C 93 % 999,4 hPa 0,0 mm 0,0 km/h (0 Bft) S-SW 207 ° 0 min 0,000 mm 0,0 UV-I 0 W/m² -5,7 °C -4,7 °C 0,0 km/h (0 Bft)
03.03.2018 04:33 -4,7 °C 93 % 999,4 hPa 0,0 mm 0,0 km/h (0 Bft) S-SW 207 ° 0 min 0,000 mm 0,0 UV-I 0 W/m² -5,7 °C -4,7 °C 0,0 km/h (0 Bft)
03.03.2018 04:34 -4,8 °C 93 % 999,4 hPa 0,0 mm 0,0 km/h (0 Bft) S-SW 207 ° 0 min 0,000 mm 0,0 UV-I 0 W/m² -5,8 °C -4,8 °C 0,0 km/h (0 Bft)
03.03.2018 04:35 -4,8 °C 93 % 999,4 hPa 0,0 mm 0,0 km/h (0 Bft) S-SW 207 ° 0 min 0,000 mm 0,0 UV-I 0 W/m² -5,8 °C -4,8 °C 0,0 km/h (0 Bft)
03.03.2018 04:36 -4,9 °C 92 % 999,4 hPa 0,0 mm 0,0 km/h (0 Bft) S-SW 207 ° 0 min 0,000 mm 0,0 UV-I 0 W/m² -6,0 °C -4,9 °C 0,0 km/h (0 Bft)
03.03.2018 04:37 -4,9 °C 92 % 999,4 hPa 0,0 mm 0,0 km/h (0 Bft) S-SW 207 ° 0 min 0,000 mm 0,0 UV-I 0 W/m² -6,0 °C -4,9 °C 0,0 km/h (0 Bft)
03.03.2018 04:38 -5,1 °C 92 % 999,4 hPa 0,0 mm 0,0 km/h (0 Bft) S-SW 207 ° 0 min 0,000 mm 0,0 UV-I 0 W/m² -6,2 °C -5,1 °C 0,0 km/h (0 Bft)
03.03.2018 04:39 -5,2 °C 92 % 999,5 hPa 0,0 mm 0,0 km/h (0 Bft) S-SW 207 ° 0 min 0,000 mm 0,0 UV-I 0 W/m² -6,3 °C -5,2 °C 0,0 km/h (0 Bft)
03.03.2018 04:40 -5,2 °C 92 % 999,3 hPa 0,0 mm 0,0 km/h (0 Bft) S-SW 207 ° 0 min 0,000 mm 0,0 UV-I 0 W/m² -6,3 °C -5,2 °C 0,0 km/h (0 Bft)
03.03.2018 04:41 -5,2 °C 92 % 999,3 hPa 0,0 mm 0,0 km/h (0 Bft) S-SW 207 ° 0 min 0,000 mm 0,0 UV-I 0 W/m² -6,3 °C -5,2 °C 0,0 km/h (0 Bft)
03.03.2018 04:42 -5,2 °C 93 % 999,3 hPa 0,0 mm 0,0 km/h (0 Bft) S-SW 207 ° 0 min 0,000 mm 0,0 UV-I 0 W/m² -6,1 °C -5,2 °C 0,0 km/h (0 Bft)
03.03.2018 04:43 -5,2 °C 93 % 999,3 hPa 0,0 mm 0,0 km/h (0 Bft) S-SW 207 ° 0 min 0,000 mm 0,0 UV-I 0 W/m² -6,1 °C -5,2 °C 0,0 km/h (0 Bft)
03.03.2018 04:44 -5,1 °C 93 % 999,3 hPa 0,0 mm 0,0 km/h (0 Bft) S-SW 207 ° 0 min 0,000 mm 0,0 UV-I 0 W/m² -6,1 °C -5,1 °C 0,0 km/h (0 Bft)
03.03.2018 04:45 -5,1 °C 93 % 999,2 hPa 0,0 mm 0,0 km/h (0 Bft) S-SW 207 ° 0 min 0,000 mm 0,0 UV-I 0 W/m² -6,1 °C -5,1 °C 0,0 km/h (0 Bft)
03.03.2018 04:46 -4,9 °C 93 % 999,3 hPa 0,0 mm 0,0 km/h (0 Bft) S-SW 207 ° 0 min 0,000 mm 0,0 UV-I 0 W/m² -5,9 °C -4,9 °C 0,0 km/h (0 Bft)
03.03.2018 04:47 -4,9 °C 93 % 999,1 hPa 0,0 mm 0,0 km/h (0 Bft) S-SW 207 ° 0 min 0,000 mm 0,0 UV-I 0 W/m² -5,9 °C -4,9 °C 0,0 km/h (0 Bft)
03.03.2018 04:48 -4,9 °C 93 % 999,2 hPa 0,0 mm 0,0 km/h (0 Bft) S-SW 207 ° 0 min 0,000 mm 0,0 UV-I 0 W/m² -5,9 °C -4,9 °C 0,0 km/h (0 Bft)
03.03.2018 04:49 -4,8 °C 93 % 999,1 hPa 0,0 mm 0,0 km/h (0 Bft) S-SW 207 ° 0 min 0,000 mm 0,0 UV-I 0 W/m² -5,8 °C -4,8 °C 0,0 km/h (0 Bft)
03.03.2018 04:50 -4,8 °C 93 % 999,2 hPa 0,0 mm 0,0 km/h (0 Bft) S-SW 207 ° 0 min 0,000 mm 0,0 UV-I 0 W/m² -5,8 °C -4,8 °C 0,0 km/h (0 Bft)
03.03.2018 04:51 -4,7 °C 93 % 999,1 hPa 0,0 mm 0,0 km/h (0 Bft) S-SW 207 ° 0 min 0,000 mm 0,0 UV-I 0 W/m² -5,7 °C -4,7 °C 0,0 km/h (0 Bft)
03.03.2018 04:52 -4,7 °C 93 % 999,1 hPa 0,0 mm 0,0 km/h (0 Bft) S-SW 207 ° 0 min 0,000 mm 0,0 UV-I 0 W/m² -5,7 °C -4,7 °C 0,0 km/h (0 Bft)
03.03.2018 04:53 -4,7 °C 93 % 999,1 hPa 0,0 mm 0,0 km/h (0 Bft) S-SW 207 ° 0 min 0,000 mm 0,0 UV-I 0 W/m² -5,7 °C -4,7 °C 0,0 km/h (0 Bft)
03.03.2018 04:54 -4,7 °C 93 % 999,1 hPa 0,0 mm 0,0 km/h (0 Bft) S-SW 207 ° 0 min 0,000 mm 0,0 UV-I 0 W/m² -5,7 °C -4,7 °C 0,0 km/h (0 Bft)
03.03.2018 04:55 -4,5 °C 94 % 999,1 hPa 0,0 mm 0,0 km/h (0 Bft) S-SW 207 ° 0 min 0,000 mm 0,0 UV-I 0 W/m² -5,3 °C -4,5 °C 0,0 km/h (0 Bft)
03.03.2018 04:56 -4,4 °C 94 % 999,0 hPa 0,0 mm 0,0 km/h (0 Bft) S-SW 207 ° 0 min 0,000 mm 0,0 UV-I 0 W/m² -5,2 °C -4,4 °C 0,0 km/h (0 Bft)
03.03.2018 04:57 -4,3 °C 94 % 999,0 hPa 0,0 mm 0,0 km/h (0 Bft) S-SW 207 ° 0 min 0,000 mm 0,0 UV-I 0 W/m² -5,1 °C -4,3 °C 0,0 km/h (0 Bft)
03.03.2018 04:58 -4,2 °C 94 % 998,9 hPa 0,0 mm 0,0 km/h (0 Bft) S-SW 207 ° 0 min 0,000 mm 0,0 UV-I 0 W/m² -5,0 °C -4,2 °C 0,0 km/h (0 Bft)
03.03.2018 04:59 -4,1 °C 94 % 998,9 hPa 0,0 mm 0,0 km/h (0 Bft) S-SW 207 ° 0 min 0,000 mm 0,0 UV-I 0 W/m² -4,9 °C -4,1 °C 0,0 km/h (0 Bft)
03.03.2018 05:00 -4,0 °C 94 % 998,9 hPa 0,0 mm 0,0 km/h (0 Bft) S-SW 207 ° 0 min 0,000 mm 0,0 UV-I 0 W/m² -4,8 °C -4,0 °C 0,0 km/h (0 Bft)
03.03.2018 05:01 -3,9 °C 94 % 998,9 hPa 0,0 mm 0,0 km/h (0 Bft) S-SW 207 ° 0 min 0,000 mm 0,0 UV-I 0 W/m² -4,7 °C -3,9 °C 0,0 km/h (0 Bft)
03.03.2018 05:02 -3,9 °C 93 % 998,9 hPa 0,0 mm 0,3 km/h (0 Bft) S-SW 207 ° 0 min 0,000 mm 0,0 UV-I 0 W/m² -4,9 °C -3,9 °C 1,6 km/h (1 Bft)
03.03.2018 05:03 -3,9 °C 93 % 998,9 hPa 0,0 mm 0,0 km/h (0 Bft) S-SW 207 ° 0 min 0,000 mm 0,0 UV-I 0 W/m² -4,9 °C -3,9 °C 0,0 km/h (0 Bft)
03.03.2018 05:04 -3,8 °C 93 % 998,8 hPa 0,0 mm 0,0 km/h (0 Bft) S-SW 207 ° 0 min 0,000 mm 0,0 UV-I 0 W/m² -4,8 °C -3,8 °C 0,0 km/h (0 Bft)
03.03.2018 05:05 -3,8 °C 93 % 998,8 hPa 0,0 mm 0,0 km/h (0 Bft) S-SW 207 ° 0 min 0,000 mm 0,0 UV-I 0 W/m² -4,8 °C -3,8 °C 0,0 km/h (0 Bft)
03.03.2018 05:06 -3,8 °C 93 % 998,8 hPa 0,0 mm 1,2 km/h (1 Bft) S-SW 207 ° 0 min 0,000 mm 0,0 UV-I 0 W/m² -4,8 °C -3,8 °C 3,2 km/h (1 Bft)
03.03.2018 05:07 -3,9 °C 93 % 998,8 hPa 0,0 mm 0,0 km/h (0 Bft) S-SW 207 ° 0 min 0,000 mm 0,0 UV-I 0 W/m² -4,9 °C -3,9 °C 0,0 km/h (0 Bft)
03.03.2018 05:08 -3,9 °C 93 % 998,8 hPa 0,0 mm 0,0 km/h (0 Bft) S-SW 207 ° 0 min 0,000 mm 0,0 UV-I 0 W/m² -4,9 °C -3,9 °C 0,0 km/h (0 Bft)
03.03.2018 05:09 -3,9 °C 93 % 998,8 hPa 0,0 mm 0,0 km/h (0 Bft) S-SW 207 ° 0 min 0,000 mm 0,0 UV-I 0 W/m² -4,9 °C -3,9 °C 0,0 km/h (0 Bft)
03.03.2018 05:10 -4,0 °C 93 % 998,8 hPa 0,0 mm 0,0 km/h (0 Bft) S-SW 207 ° 0 min 0,000 mm 0,0 UV-I 0 W/m² -5,0 °C -4,0 °C 0,0 km/h (0 Bft)
03.03.2018 05:11 -4,1 °C 93 % 998,9 hPa 0,0 mm 0,1 km/h (0 Bft) S-SW 207 ° 0 min 0,000 mm 0,0 UV-I 0 W/m² -5,1 °C -4,1 °C 1,6 km/h (1 Bft)
03.03.2018 05:12 -4,1 °C 93 % 998,8 hPa 0,0 mm 0,1 km/h (0 Bft) S-SW 207 ° 0 min 0,000 mm 0,0 UV-I 0 W/m² -5,1 °C -4,1 °C 1,6 km/h (1 Bft)
03.03.2018 05:13 -4,1 °C 93 % 998,8 hPa 0,0 mm 0,1 km/h (0 Bft) S-SW 207 ° 0 min 0,000 mm 0,0 UV-I 0 W/m² -5,1 °C -4,1 °C 1,6 km/h (1 Bft)
03.03.2018 05:14 -4,2 °C 93 % 998,7 hPa 0,0 mm 0,1 km/h (0 Bft) S-SW 207 ° 0 min 0,000 mm 0,0 UV-I 0 W/m² -5,2 °C -4,2 °C 1,6 km/h (1 Bft)
03.03.2018 05:15 -4,2 °C 92 % 998,7 hPa 0,0 mm 0,0 km/h (0 Bft) S-SW 207 ° 0 min 0,000 mm 0,0 UV-I 0 W/m² -5,3 °C -4,2 °C 0,0 km/h (0 Bft)
03.03.2018 05:16 -4,3 °C 92 % 998,7 hPa 0,0 mm 0,0 km/h (0 Bft) S-SW 207 ° 0 min 0,000 mm 0,0 UV-I 0 W/m² -5,4 °C -4,3 °C 0,0 km/h (0 Bft)
03.03.2018 05:17 -4,3 °C 92 % 998,7 hPa 0,0 mm 0,0 km/h (0 Bft) S-SW 207 ° 0 min 0,000 mm 0,0 UV-I 0 W/m² -5,4 °C -4,3 °C 0,0 km/h (0 Bft)
03.03.2018 05:18 -4,3 °C 92 % 998,6 hPa 0,0 mm 0,0 km/h (0 Bft) S-SW 207 ° 0 min 0,000 mm 0,0 UV-I 0 W/m² -5,4 °C -4,3 °C 0,0 km/h (0 Bft)
03.03.2018 05:19 -4,4 °C 92 % 998,6 hPa 0,0 mm 0,3 km/h (0 Bft) S-SW 207 ° 0 min 0,000 mm 0,0 UV-I 0 W/m² -5,5 °C -4,4 °C 1,6 km/h (1 Bft)
03.03.2018 05:20 -4,4 °C 92 % 998,6 hPa 0,0 mm 0,0 km/h (0 Bft) S-SW 207 ° 0 min 0,000 mm 0,0 UV-I 0 W/m² -5,5 °C -4,4 °C 0,0 km/h (0 Bft)
03.03.2018 05:21 -4,4 °C 92 % 998,6 hPa 0,0 mm 0,0 km/h (0 Bft) S-SW 207 ° 0 min 0,000 mm 0,0 UV-I 0 W/m² -5,5 °C -4,4 °C 0,0 km/h (0 Bft)
03.03.2018 05:22 -4,4 °C 92 % 998,6 hPa 0,0 mm 0,0 km/h (0 Bft) S-SW 207 ° 0 min 0,000 mm 0,0 UV-I 0 W/m² -5,5 °C -4,4 °C 0,0 km/h (0 Bft)
03.03.2018 05:23 -4,4 °C 92 % 998,5 hPa 0,0 mm 0,0 km/h (0 Bft) S-SW 207 ° 0 min 0,000 mm 0,0 UV-I 0 W/m² -5,5 °C -4,4 °C 0,0 km/h (0 Bft)
03.03.2018 05:24 -4,4 °C 93 % 998,5 hPa 0,0 mm 0,0 km/h (0 Bft) S-SW 207 ° 0 min 0,000 mm 0,0 UV-I 0 W/m² -5,4 °C -4,4 °C 0,0 km/h (0 Bft)
03.03.2018 05:25 -4,4 °C 93 % 998,5 hPa 0,0 mm 0,1 km/h (0 Bft) S-SW 207 ° 0 min 0,000 mm 0,0 UV-I 0 W/m² -5,4 °C -4,4 °C 1,6 km/h (1 Bft)
03.03.2018 05:26 -4,3 °C 92 % 998,5 hPa 0,0 mm 0,2 km/h (0 Bft) S-SW 207 ° 0 min 0,000 mm 0,0 UV-I 0 W/m² -5,4 °C -4,3 °C 1,6 km/h (1 Bft)
03.03.2018 05:27 -4,3 °C 92 % 998,4 hPa 0,0 mm 0,0 km/h (0 Bft) S-SW 207 ° 0 min 0,000 mm 0,0 UV-I 0 W/m² -5,4 °C -4,3 °C 0,0 km/h (0 Bft)
03.03.2018 05:28 -4,3 °C 92 % 998,4 hPa 0,0 mm 0,0 km/h (0 Bft) S-SW 207 ° 0 min 0,000 mm 0,0 UV-I 0 W/m² -5,4 °C -4,3 °C 0,0 km/h (0 Bft)
03.03.2018 05:29 -4,4 °C 92 % 998,4 hPa 0,0 mm 0,0 km/h (0 Bft) S-SW 207 ° 0 min 0,000 mm 0,0 UV-I 0 W/m² -5,5 °C -4,4 °C 0,0 km/h (0 Bft)
03.03.2018 05:30 -4,4 °C 92 % 998,4 hPa 0,0 mm 0,0 km/h (0 Bft) S-SW 207 ° 0 min 0,000 mm 0,0 UV-I 0 W/m² -5,5 °C -4,4 °C 0,0 km/h (0 Bft)
03.03.2018 05:31 -4,3 °C 92 % 998,3 hPa 0,0 mm 0,0 km/h (0 Bft) S-SW 207 ° 0 min 0,000 mm 0,0 UV-I 0 W/m² -5,4 °C -4,3 °C 0,0 km/h (0 Bft)
03.03.2018 05:32 -4,3 °C 92 % 998,3 hPa 0,0 mm 0,0 km/h (0 Bft) S-SW 207 ° 0 min 0,000 mm 0,0 UV-I 0 W/m² -5,4 °C -4,3 °C 0,0 km/h (0 Bft)
03.03.2018 05:33 -4,3 °C 92 % 998,3 hPa 0,0 mm 0,0 km/h (0 Bft) S-SW 207 ° 0 min 0,000 mm 0,0 UV-I 0 W/m² -5,4 °C -4,3 °C 0,0 km/h (0 Bft)
03.03.2018 05:34 -4,4 °C 92 % 998,3 hPa 0,0 mm 0,0 km/h (0 Bft) S-SW 207 ° 0 min 0,000 mm 0,0 UV-I 0 W/m² -5,5 °C -4,4 °C 0,0 km/h (0 Bft)
03.03.2018 05:35 -4,4 °C 92 % 998,3 hPa 0,0 mm 0,0 km/h (0 Bft) S-SW 207 ° 0 min 0,000 mm 0,0 UV-I 0 W/m² -5,5 °C -4,4 °C 0,0 km/h (0 Bft)
03.03.2018 05:36 -4,4 °C 92 % 998,3 hPa 0,0 mm 0,4 km/h (0 Bft) S-SW 207 ° 0 min 0,000 mm 0,0 UV-I 0 W/m² -5,5 °C -4,4 °C 1,6 km/h (1 Bft)
03.03.2018 05:37 -4,4 °C 92 % 998,3 hPa 0,0 mm 0,0 km/h (0 Bft) S-SW 207 ° 0 min 0,000 mm 0,0 UV-I 0 W/m² -5,5 °C -4,4 °C 0,0 km/h (0 Bft)
03.03.2018 05:38 -4,5 °C 92 % 998,3 hPa 0,0 mm 0,0 km/h (0 Bft) S-SW 207 ° 0 min 0,000 mm 0,0 UV-I 0 W/m² -5,6 °C -4,5 °C 0,0 km/h (0 Bft)
03.03.2018 05:39 -4,5 °C 92 % 998,3 hPa 0,0 mm 0,0 km/h (0 Bft) S-SW 207 ° 0 min 0,000 mm 0,0 UV-I 0 W/m² -5,6 °C -4,5 °C 0,0 km/h (0 Bft)
03.03.2018 05:40 -4,5 °C 92 % 998,3 hPa 0,0 mm 0,0 km/h (0 Bft) S-SW 207 ° 0 min 0,000 mm 0,0 UV-I 0 W/m² -5,6 °C -4,5 °C 0,0 km/h (0 Bft)
03.03.2018 05:41 -4,5 °C 92 % 998,2 hPa 0,0 mm 0,0 km/h (0 Bft) S-SW 207 ° 0 min 0,000 mm 0,0 UV-I 0 W/m² -5,6 °C -4,5 °C 0,0 km/h (0 Bft)
03.03.2018 05:42 -4,5 °C 92 % 998,2 hPa 0,0 mm 0,0 km/h (0 Bft) S-SW 207 ° 0 min 0,000 mm 0,0 UV-I 0 W/m² -5,6 °C -4,5 °C 0,0 km/h (0 Bft)
03.03.2018 05:43 -4,6 °C 92 % 998,2 hPa 0,0 mm 0,0 km/h (0 Bft) S-SW 207 ° 0 min 0,000 mm 0,0 UV-I 0 W/m² -5,7 °C -4,6 °C 0,0 km/h (0 Bft)
03.03.2018 05:44 -4,6 °C 92 % 998,2 hPa 0,0 mm 0,0 km/h (0 Bft) S-SW 207 ° 0 min 0,000 mm 0,0 UV-I 0 W/m² -5,7 °C -4,6 °C 0,0 km/h (0 Bft)
03.03.2018 05:45 -4,5 °C 92 % 998,2 hPa 0,0 mm 0,0 km/h (0 Bft) S-SW 207 ° 0 min 0,000 mm 0,0 UV-I 0 W/m² -5,6 °C -4,5 °C 0,0 km/h (0 Bft)
03.03.2018 05:46 -4,5 °C 92 % 998,2 hPa 0,0 mm 0,0 km/h (0 Bft) S-SW 207 ° 0 min 0,000 mm 0,0 UV-I 0 W/m² -5,6 °C -4,5 °C 0,0 km/h (0 Bft)
03.03.2018 05:47 -4,5 °C 92 % 998,2 hPa 0,0 mm 0,0 km/h (0 Bft) S-SW 207 ° 0 min 0,000 mm 0,0 UV-I 0 W/m² -5,6 °C -4,5 °C 0,0 km/h (0 Bft)
03.03.2018 05:48 -4,4 °C 92 % 998,2 hPa 0,0 mm 0,0 km/h (0 Bft) S-SW 207 ° 0 min 0,000 mm 0,0 UV-I 0 W/m² -5,5 °C -4,4 °C 0,0 km/h (0 Bft)
03.03.2018 05:49 -4,4 °C 92 % 998,2 hPa 0,0 mm 0,7 km/h (0 Bft) S-SW 207 ° 0 min 0,000 mm 0,0 UV-I 0 W/m² -5,5 °C -4,4 °C 1,6 km/h (1 Bft)
03.03.2018 05:50 -4,4 °C 92 % 998,1 hPa 0,0 mm 0,0 km/h (0 Bft) S-SW 207 ° 0 min 0,000 mm 0,0 UV-I 0 W/m² -5,5 °C -4,4 °C 0,0 km/h (0 Bft)
03.03.2018 05:51 -4,4 °C 92 % 998,1 hPa 0,0 mm 0,0 km/h (0 Bft) S-SW 207 ° 0 min 0,000 mm 0,0 UV-I 0 W/m² -5,5 °C -4,4 °C 0,0 km/h (0 Bft)
03.03.2018 05:52 -4,3 °C 92 % 998,0 hPa 0,0 mm 0,0 km/h (0 Bft) S-SW 207 ° 0 min 0,000 mm 0,0 UV-I 0 W/m² -5,4 °C -4,3 °C 0,0 km/h (0 Bft)
03.03.2018 05:53 -4,3 °C 92 % 998,0 hPa 0,0 mm 0,0 km/h (0 Bft) S-SW 207 ° 0 min 0,000 mm 0,0 UV-I 0 W/m² -5,4 °C -4,3 °C 0,0 km/h (0 Bft)
03.03.2018 05:54 -4,3 °C 92 % 998,0 hPa 0,0 mm 0,0 km/h (0 Bft) S-SW 207 ° 0 min 0,000 mm 0,0 UV-I 0 W/m² -5,4 °C -4,3 °C 0,0 km/h (0 Bft)
03.03.2018 05:55 -4,3 °C 92 % 998,0 hPa 0,0 mm 0,0 km/h (0 Bft) S-SW 207 ° 0 min 0,000 mm 0,0 UV-I 0 W/m² -5,4 °C -4,3 °C 0,0 km/h (0 Bft)
03.03.2018 05:56 -4,3 °C 92 % 998,0 hPa 0,0 mm 0,0 km/h (0 Bft) S-SW 207 ° 0 min 0,000 mm 0,0 UV-I 0 W/m² -5,4 °C -4,3 °C 0,0 km/h (0 Bft)
03.03.2018 05:57 -4,3 °C 92 % 997,9 hPa 0,0 mm 0,0 km/h (0 Bft) S-SW 207 ° 0 min 0,000 mm 0,0 UV-I 0 W/m² -5,4 °C -4,3 °C 0,0 km/h (0 Bft)
03.03.2018 05:58 -4,3 °C 92 % 997,8 hPa 0,0 mm 0,0 km/h (0 Bft) S-SW 207 ° 0 min 0,000 mm 0,0 UV-I 0 W/m² -5,4 °C -4,3 °C 0,0 km/h (0 Bft)
03.03.2018 05:59 -4,3 °C 92 % 997,8 hPa 0,0 mm 0,0 km/h (0 Bft) S-SW 207 ° 0 min 0,000 mm 0,0 UV-I 0 W/m² -5,4 °C -4,3 °C 0,0 km/h (0 Bft)
03.03.2018 06:00 -4,3 °C 92 % 997,8 hPa 0,0 mm 0,7 km/h (0 Bft) S-SW 207 ° 0 min 0,000 mm 0,0 UV-I 0 W/m² -5,4 °C -4,3 °C 3,2 km/h (1 Bft)
03.03.2018 06:01 -4,3 °C 92 % 997,8 hPa 0,0 mm 3,1 km/h (1 Bft) S-SW 195 ° 0 min 0,000 mm 0,0 UV-I 0 W/m² -5,4 °C -4,3 °C 4,8 km/h (1 Bft)
03.03.2018 06:02 -4,3 °C 92 % 997,8 hPa 0,0 mm 0,6 km/h (0 Bft) S-SW 195 ° 0 min 0,000 mm 0,0 UV-I 0 W/m² -5,4 °C -4,3 °C 3,2 km/h (1 Bft)
03.03.2018 06:03 -4,3 °C 92 % 997,8 hPa 0,0 mm 0,0 km/h (0 Bft) S-SW 195 ° 0 min 0,000 mm 0,0 UV-I 0 W/m² -5,4 °C -4,3 °C 0,0 km/h (0 Bft)
03.03.2018 06:04 -4,3 °C 92 % 997,8 hPa 0,0 mm 0,0 km/h (0 Bft) S-SW 195 ° 0 min 0,000 mm 0,0 UV-I 0 W/m² -5,4 °C -4,3 °C 0,0 km/h (0 Bft)
03.03.2018 06:05 -4,3 °C 92 % 997,8 hPa 0,0 mm 0,0 km/h (0 Bft) S-SW 195 ° 0 min 0,000 mm 0,0 UV-I 0 W/m² -5,4 °C -4,3 °C 0,0 km/h (0 Bft)
03.03.2018 06:06 -4,3 °C 92 % 997,7 hPa 0,0 mm 0,0 km/h (0 Bft) S-SW 195 ° 0 min 0,000 mm 0,0 UV-I 0 W/m² -5,4 °C -4,3 °C 0,0 km/h (0 Bft)
03.03.2018 06:07 -4,3 °C 92 % 997,7 hPa 0,0 mm 0,0 km/h (0 Bft) S-SW 195 ° 0 min 0,000 mm 0,0 UV-I 0 W/m² -5,4 °C -4,3 °C 0,0 km/h (0 Bft)
03.03.2018 06:08 -4,3 °C 92 % 997,6 hPa 0,0 mm 0,0 km/h (0 Bft) S-SW 195 ° 0 min 0,000 mm 0,0 UV-I 0 W/m² -5,4 °C -4,3 °C 0,0 km/h (0 Bft)
03.03.2018 06:09 -4,3 °C 92 % 997,6 hPa 0,0 mm 0,0 km/h (0 Bft) S-SW 195 ° 0 min 0,000 mm 0,0 UV-I 0 W/m² -5,4 °C -4,3 °C 0,0 km/h (0 Bft)
03.03.2018 06:10 -4,3 °C 92 % 997,6 hPa 0,0 mm 0,0 km/h (0 Bft) S-SW 195 ° 0 min 0,000 mm 0,0 UV-I 0 W/m² -5,4 °C -4,3 °C 0,0 km/h (0 Bft)
03.03.2018 06:11 -4,3 °C 92 % 997,6 hPa 0,0 mm 0,0 km/h (0 Bft) S-SW 195 ° 0 min 0,000 mm 0,0 UV-I 0 W/m² -5,4 °C -4,3 °C 0,0 km/h (0 Bft)
03.03.2018 06:12 -4,3 °C 92 % 997,6 hPa 0,0 mm 0,0 km/h (0 Bft) S-SW 195 ° 0 min 0,000 mm 0,0 UV-I 0 W/m² -5,4 °C -4,3 °C 0,0 km/h (0 Bft)
03.03.2018 06:13 -4,3 °C 92 % 997,6 hPa 0,0 mm 0,0 km/h (0 Bft) S-SW 195 ° 0 min 0,000 mm 0,0 UV-I 0 W/m² -5,4 °C -4,3 °C 0,0 km/h (0 Bft)
03.03.2018 06:14 -4,3 °C 92 % 997,6 hPa 0,0 mm 0,0 km/h (0 Bft) S-SW 195 ° 0 min 0,000 mm 0,0 UV-I 0 W/m² -5,4 °C -4,3 °C 0,0 km/h (0 Bft)
03.03.2018 06:15 -4,3 °C 92 % 997,6 hPa 0,0 mm 0,0 km/h (0 Bft) S-SW 195 ° 0 min 0,000 mm 0,0 UV-I 0 W/m² -5,4 °C -4,3 °C 0,0 km/h (0 Bft)
03.03.2018 06:16 -4,3 °C 92 % 997,6 hPa 0,0 mm 0,0 km/h (0 Bft) S-SW 195 ° 0 min 0,000 mm 0,0 UV-I 0 W/m² -5,4 °C -4,3 °C 0,0 km/h (0 Bft)
03.03.2018 06:17 -4,3 °C 92 % 997,5 hPa 0,0 mm 0,0 km/h (0 Bft) S-SW 195 ° 0 min 0,000 mm 0,0 UV-I 0 W/m² -5,4 °C -4,3 °C 0,0 km/h (0 Bft)
03.03.2018 06:18 -4,3 °C 92 % 997,5 hPa 0,0 mm 0,0 km/h (0 Bft) S-SW 195 ° 0 min 0,000 mm 0,0 UV-I 0 W/m² -5,4 °C -4,3 °C 0,0 km/h (0 Bft)
03.03.2018 06:19 -4,2 °C 92 % 997,5 hPa 0,0 mm 0,0 km/h (0 Bft) S-SW 195 ° 0 min 0,000 mm 0,0 UV-I 0 W/m² -5,3 °C -4,2 °C 0,0 km/h (0 Bft)
03.03.2018 06:20 -4,2 °C 92 % 997,5 hPa 0,0 mm 0,0 km/h (0 Bft) S-SW 195 ° 0 min 0,000 mm 0,0 UV-I 0 W/m² -5,3 °C -4,2 °C 0,0 km/h (0 Bft)
03.03.2018 06:21 -4,3 °C 92 % 997,4 hPa 0,0 mm 0,0 km/h (0 Bft) S-SW 195 ° 0 min 0,000 mm 0,0 UV-I 0 W/m² -5,4 °C -4,3 °C 0,0 km/h (0 Bft)
03.03.2018 06:22 -4,3 °C 92 % 997,4 hPa 0,0 mm 0,0 km/h (0 Bft) S-SW 195 ° 0 min 0,000 mm 0,0 UV-I 0 W/m² -5,4 °C -4,3 °C 0,0 km/h (0 Bft)
03.03.2018 06:23 -4,3 °C 92 % 997,4 hPa 0,0 mm 0,0 km/h (0 Bft) S-SW 195 ° 0 min 0,000 mm 0,0 UV-I 0 W/m² -5,4 °C -4,3 °C 0,0 km/h (0 Bft)
03.03.2018 06:24 -4,3 °C 92 % 997,4 hPa 0,0 mm 0,0 km/h (0 Bft) S-SW 195 ° 0 min 0,000 mm 0,0 UV-I 0 W/m² -5,4 °C -4,3 °C 0,0 km/h (0 Bft)
03.03.2018 06:25 -4,3 °C 92 % 997,3 hPa 0,0 mm 0,0 km/h (0 Bft) S-SW 195 ° 0 min 0,000 mm 0,0 UV-I 0 W/m² -5,4 °C -4,3 °C 0,0 km/h (0 Bft)
03.03.2018 06:26 -4,3 °C 92 % 997,4 hPa 0,0 mm 0,0 km/h (0 Bft) S-SW 195 ° 0 min 0,000 mm 0,0 UV-I 0 W/m² -5,4 °C -4,3 °C 0,0 km/h (0 Bft)
03.03.2018 06:27 -4,3 °C 92 % 997,4 hPa 0,0 mm 0,0 km/h (0 Bft) S-SW 195 ° 0 min 0,000 mm 0,0 UV-I 0 W/m² -5,4 °C -4,3 °C 0,0 km/h (0 Bft)
03.03.2018 06:28 -4,3 °C 92 % 997,3 hPa 0,0 mm 0,0 km/h (0 Bft) S-SW 195 ° 0 min 0,000 mm 0,0 UV-I 0 W/m² -5,4 °C -4,3 °C 0,0 km/h (0 Bft)
03.03.2018 06:29 -4,3 °C 92 % 997,4 hPa 0,0 mm 0,0 km/h (0 Bft) S-SW 195 ° 0 min 0,000 mm 0,0 UV-I 0 W/m² -5,4 °C -4,3 °C 0,0 km/h (0 Bft)
03.03.2018 06:30 -4,3 °C 92 % 997,4 hPa 0,0 mm 0,0 km/h (0 Bft) S-SW 195 ° 0 min 0,000 mm 0,0 UV-I 0 W/m² -5,4 °C -4,3 °C 0,0 km/h (0 Bft)
03.03.2018 06:31 -4,3 °C 92 % 997,4 hPa 0,0 mm 0,0 km/h (0 Bft) S-SW 195 ° 0 min 0,000 mm 0,0 UV-I 0 W/m² -5,4 °C -4,3 °C 0,0 km/h (0 Bft)
03.03.2018 06:32 -4,3 °C 92 % 997,4 hPa 0,0 mm 0,0 km/h (0 Bft) S-SW 195 ° 0 min 0,000 mm 0,0 UV-I 0 W/m² -5,4 °C -4,3 °C 0,0 km/h (0 Bft)
03.03.2018 06:33 -4,3 °C 92 % 997,4 hPa 0,0 mm 0,0 km/h (0 Bft) S-SW 195 ° 0 min 0,000 mm 0,0 UV-I 0 W/m² -5,4 °C -4,3 °C 0,0 km/h (0 Bft)
03.03.2018 06:34 -4,3 °C 92 % 997,4 hPa 0,0 mm 0,0 km/h (0 Bft) S-SW 195 ° 0 min 0,000 mm 0,0 UV-I 0 W/m² -5,4 °C -4,3 °C 0,0 km/h (0 Bft)
03.03.2018 06:35 -4,3 °C 92 % 997,4 hPa 0,0 mm 0,0 km/h (0 Bft) S-SW 195 ° 0 min 0,000 mm 0,0 UV-I 0 W/m² -5,4 °C -4,3 °C 0,0 km/h (0 Bft)
03.03.2018 06:36 -4,3 °C 92 % 997,3 hPa 0,0 mm 0,0 km/h (0 Bft) S-SW 195 ° 0 min 0,000 mm 0,0 UV-I 0 W/m² -5,4 °C -4,3 °C 0,0 km/h (0 Bft)
03.03.2018 06:37 -4,3 °C 92 % 997,4 hPa 0,0 mm 0,0 km/h (0 Bft) S-SW 195 ° 0 min 0,000 mm 0,0 UV-I 0 W/m² -5,4 °C -4,3 °C 0,0 km/h (0 Bft)
03.03.2018 06:38 -4,3 °C 92 % 997,3 hPa 0,0 mm 0,0 km/h (0 Bft) S-SW 195 ° 0 min 0,000 mm 0,0 UV-I 0 W/m² -5,4 °C -4,3 °C 0,0 km/h (0 Bft)
03.03.2018 06:39 -4,3 °C 92 % 997,3 hPa 0,0 mm 0,0 km/h (0 Bft) S-SW 195 ° 0 min 0,000 mm 0,0 UV-I 0 W/m² -5,4 °C -4,3 °C 0,0 km/h (0 Bft)
03.03.2018 06:40 -4,3 °C 92 % 997,2 hPa 0,0 mm 0,0 km/h (0 Bft) S-SW 195 ° 0 min 0,000 mm 0,0 UV-I 0 W/m² -5,4 °C -4,3 °C 0,0 km/h (0 Bft)
03.03.2018 06:41 -4,3 °C 92 % 997,2 hPa 0,0 mm 0,0 km/h (0 Bft) S-SW 195 ° 0 min 0,000 mm 0,0 UV-I 0 W/m² -5,4 °C -4,3 °C 0,0 km/h (0 Bft)
03.03.2018 06:42 -4,4 °C 92 % 997,3 hPa 0,0 mm 0,0 km/h (0 Bft) S-SW 195 ° 0 min 0,000 mm 0,0 UV-I 0 W/m² -5,5 °C -4,4 °C 0,0 km/h (0 Bft)
03.03.2018 06:43 -4,3 °C 92 % 997,3 hPa 0,0 mm 0,0 km/h (0 Bft) S-SW 195 ° 0 min 0,000 mm 0,0 UV-I 0 W/m² -5,4 °C -4,3 °C 0,0 km/h (0 Bft)
03.03.2018 06:44 -4,3 °C 92 % 997,3 hPa 0,0 mm 0,0 km/h (0 Bft) S-SW 195 ° 0 min 0,000 mm 0,0 UV-I 0 W/m² -5,4 °C -4,3 °C 0,0 km/h (0 Bft)
03.03.2018 06:45 -4,4 °C 92 % 997,3 hPa 0,0 mm 0,0 km/h (0 Bft) S-SW 195 ° 0 min 0,000 mm 0,0 UV-I 0 W/m² -5,5 °C -4,4 °C 0,0 km/h (0 Bft)
03.03.2018 06:46 -4,4 °C 92 % 997,3 hPa 0,0 mm 0,0 km/h (0 Bft) S-SW 195 ° 0 min 0,000 mm 0,0 UV-I 0 W/m² -5,5 °C -4,4 °C 0,0 km/h (0 Bft)
03.03.2018 06:47 -4,4 °C 92 % 997,3 hPa 0,0 mm 0,0 km/h (0 Bft) S-SW 195 ° 0 min 0,000 mm 0,0 UV-I 0 W/m² -5,5 °C -4,4 °C 0,0 km/h (0 Bft)
03.03.2018 06:48 -4,4 °C 92 % 997,2 hPa 0,0 mm 0,0 km/h (0 Bft) S-SW 195 ° 0 min 0,000 mm 0,0 UV-I 0 W/m² -5,5 °C -4,4 °C 0,0 km/h (0 Bft)
03.03.2018 06:49 -4,4 °C 92 % 997,2 hPa 0,0 mm 0,0 km/h (0 Bft) S-SW 195 ° 0 min 0,000 mm 0,0 UV-I 0 W/m² -5,5 °C -4,4 °C 0,0 km/h (0 Bft)
03.03.2018 06:50 -4,4 °C 92 % 997,2 hPa 0,0 mm 0,0 km/h (0 Bft) S-SW 195 ° 0 min 0,000 mm 0,0 UV-I 0 W/m² -5,5 °C -4,4 °C 0,0 km/h (0 Bft)
03.03.2018 06:51 -4,4 °C 92 % 997,2 hPa 0,0 mm 0,0 km/h (0 Bft) S-SW 195 ° 0 min 0,000 mm 0,0 UV-I 0 W/m² -5,5 °C -4,4 °C 0,0 km/h (0 Bft)
03.03.2018 06:52 -4,4 °C 92 % 997,2 hPa 0,0 mm 0,0 km/h (0 Bft) S-SW 195 ° 0 min 0,000 mm 0,0 UV-I 5 W/m² -5,5 °C -4,4 °C 0,0 km/h (0 Bft)
03.03.2018 06:53 -4,4 °C 92 % 997,2 hPa 0,0 mm 0,0 km/h (0 Bft) S-SW 195 ° 0 min 0,000 mm 0,0 UV-I 5 W/m² -5,5 °C -4,4 °C 0,0 km/h (0 Bft)
03.03.2018 06:54 -4,4 °C 92 % 997,3 hPa 0,0 mm 0,0 km/h (0 Bft) S-SW 195 ° 0 min 0,000 mm 0,0 UV-I 5 W/m² -5,5 °C -4,4 °C 0,0 km/h (0 Bft)
03.03.2018 06:55 -4,4 °C 92 % 997,3 hPa 0,0 mm 0,0 km/h (0 Bft) S-SW 195 ° 0 min 0,000 mm 0,0 UV-I 5 W/m² -5,5 °C -4,4 °C 0,0 km/h (0 Bft)
03.03.2018 06:56 -4,4 °C 92 % 997,3 hPa 0,0 mm 0,0 km/h (0 Bft) S-SW 195 ° 0 min 0,000 mm 0,0 UV-I 5 W/m² -5,5 °C -4,4 °C 0,0 km/h (0 Bft)
03.03.2018 06:57 -4,4 °C 92 % 997,3 hPa 0,0 mm 0,0 km/h (0 Bft) S-SW 195 ° 0 min 0,000 mm 0,0 UV-I 5 W/m² -5,5 °C -4,4 °C 0,0 km/h (0 Bft)
03.03.2018 06:58 -4,4 °C 92 % 997,3 hPa 0,0 mm 0,0 km/h (0 Bft) S-SW 195 ° 0 min 0,000 mm 0,0 UV-I 5 W/m² -5,5 °C -4,4 °C 0,0 km/h (0 Bft)
03.03.2018 06:59 -4,4 °C 92 % 997,3 hPa 0,0 mm 0,0 km/h (0 Bft) S-SW 195 ° 0 min 0,000 mm 0,0 UV-I 7 W/m² -5,5 °C -4,4 °C 0,0 km/h (0 Bft)
03.03.2018 07:00 -4,4 °C 92 % 997,3 hPa 0,0 mm 0,0 km/h (0 Bft) S-SW 195 ° 0 min 0,000 mm 0,0 UV-I 7 W/m² -5,5 °C -4,4 °C 0,0 km/h (0 Bft)
03.03.2018 07:01 -4,4 °C 92 % 997,3 hPa 0,0 mm 0,0 km/h (0 Bft) S-SW 195 ° 0 min 0,000 mm 0,0 UV-I 7 W/m² -5,5 °C -4,4 °C 0,0 km/h (0 Bft)
03.03.2018 07:02 -4,4 °C 92 % 997,2 hPa 0,0 mm 0,0 km/h (0 Bft) S-SW 195 ° 0 min 0,000 mm 0,0 UV-I 7 W/m² -5,5 °C -4,4 °C 0,0 km/h (0 Bft)
03.03.2018 07:03 -4,4 °C 92 % 997,2 hPa 0,0 mm 0,0 km/h (0 Bft) S-SW 195 ° 0 min 0,000 mm 0,0 UV-I 9 W/m² -5,5 °C -4,4 °C 0,0 km/h (0 Bft)
03.03.2018 07:04 -4,4 °C 92 % 997,2 hPa 0,0 mm 0,0 km/h (0 Bft) S-SW 195 ° 0 min 0,000 mm 0,0 UV-I 9 W/m² -5,5 °C -4,4 °C 0,0 km/h (0 Bft)
03.03.2018 07:05 -4,4 °C 92 % 997,2 hPa 0,0 mm 0,0 km/h (0 Bft) S-SW 195 ° 0 min 0,000 mm 0,0 UV-I 9 W/m² -5,5 °C -4,4 °C 0,0 km/h (0 Bft)
03.03.2018 07:06 -4,4 °C 92 % 997,3 hPa 0,0 mm 0,0 km/h (0 Bft) S-SW 195 ° 0 min 0,000 mm 0,0 UV-I 11 W/m² -5,5 °C -4,4 °C 0,0 km/h (0 Bft)
03.03.2018 07:07 -4,4 °C 92 % 997,3 hPa 0,0 mm 0,0 km/h (0 Bft) S-SW 195 ° 0 min 0,000 mm 0,0 UV-I 11 W/m² -5,5 °C -4,4 °C 0,0 km/h (0 Bft)
03.03.2018 07:08 -4,4 °C 92 % 997,3 hPa 0,0 mm 0,0 km/h (0 Bft) S-SW 195 ° 0 min 0,000 mm 0,0 UV-I 11 W/m² -5,5 °C -4,4 °C 0,0 km/h (0 Bft)
03.03.2018 07:09 -4,4 °C 92 % 997,3 hPa 0,0 mm 0,0 km/h (0 Bft) S-SW 195 ° 0 min 0,000 mm 0,0 UV-I 11 W/m² -5,5 °C -4,4 °C 0,0 km/h (0 Bft)
03.03.2018 07:10 -4,4 °C 92 % 997,2 hPa 0,0 mm 0,0 km/h (0 Bft) S-SW 195 ° 0 min 0,000 mm 0,0 UV-I 11 W/m² -5,5 °C -4,4 °C 0,0 km/h (0 Bft)
03.03.2018 07:11 -4,4 °C 92 % 997,2 hPa 0,0 mm 0,0 km/h (0 Bft) S-SW 195 ° 0 min 0,000 mm 0,0 UV-I 12 W/m² -5,5 °C -4,4 °C 0,0 km/h (0 Bft)
03.03.2018 07:12 -4,4 °C 92 % 997,2 hPa 0,0 mm 0,0 km/h (0 Bft) S-SW 195 ° 0 min 0,000 mm 0,0 UV-I 14 W/m² -5,5 °C -4,4 °C 0,0 km/h (0 Bft)
03.03.2018 07:13 -4,4 °C 92 % 997,2 hPa 0,0 mm 0,0 km/h (0 Bft) S-SW 195 ° 0 min 0,000 mm 0,0 UV-I 14 W/m² -5,5 °C -4,4 °C 0,0 km/h (0 Bft)
03.03.2018 07:14 -4,4 °C 92 % 997,2 hPa 0,0 mm 0,0 km/h (0 Bft) S-SW 195 ° 0 min 0,000 mm 0,0 UV-I 16 W/m² -5,5 °C -4,4 °C 0,0 km/h (0 Bft)
03.03.2018 07:15 -4,4 °C 92 % 997,1 hPa 0,0 mm 0,0 km/h (0 Bft) S-SW 195 ° 0 min 0,000 mm 0,0 UV-I 18 W/m² -5,5 °C -4,4 °C 0,0 km/h (0 Bft)
03.03.2018 07:16 -4,4 °C 92 % 997,2 hPa 0,0 mm 0,0 km/h (0 Bft) S-SW 195 ° 0 min 0,000 mm 0,0 UV-I 18 W/m² -5,5 °C -4,4 °C 0,0 km/h (0 Bft)
03.03.2018 07:17 -4,4 °C 92 % 997,1 hPa 0,0 mm 0,0 km/h (0 Bft) S-SW 195 ° 0 min 0,000 mm 0,0 UV-I 19 W/m² -5,5 °C -4,4 °C 0,0 km/h (0 Bft)
03.03.2018 07:18 -4,4 °C 92 % 997,2 hPa 0,0 mm 0,0 km/h (0 Bft) S-SW 195 ° 0 min 0,000 mm 0,0 UV-I 23 W/m² -5,5 °C -4,4 °C 0,0 km/h (0 Bft)
03.03.2018 07:19 -4,4 °C 92 % 997,2 hPa 0,0 mm 0,0 km/h (0 Bft) S-SW 195 ° 0 min 0,000 mm 0,0 UV-I 25 W/m² -5,5 °C -4,4 °C 0,0 km/h (0 Bft)
03.03.2018 07:20 -4,3 °C 92 % 997,1 hPa 0,0 mm 0,0 km/h (0 Bft) S-SW 195 ° 0 min 0,000 mm 0,0 UV-I 26 W/m² -5,4 °C -4,3 °C 0,0 km/h (0 Bft)
03.03.2018 07:21 -4,3 °C 92 % 997,1 hPa 0,0 mm 0,0 km/h (0 Bft) S-SW 195 ° 0 min 0,000 mm 0,0 UV-I 28 W/m² -5,4 °C -4,3 °C 0,0 km/h (0 Bft)
03.03.2018 07:22 -4,3 °C 93 % 997,1 hPa 0,0 mm 0,0 km/h (0 Bft) S-SW 195 ° 0 min 0,000 mm 0,0 UV-I 30 W/m² -5,3 °C -4,3 °C 0,0 km/h (0 Bft)
03.03.2018 07:23 -4,3 °C 92 % 997,1 hPa 0,0 mm 0,0 km/h (0 Bft) S-SW 195 ° 0 min 0,000 mm 0,0 UV-I 32 W/m² -5,4 °C -4,3 °C 0,0 km/h (0 Bft)
03.03.2018 07:24 -4,3 °C 92 % 997,1 hPa 0,0 mm 0,0 km/h (0 Bft) S-SW 195 ° 0 min 0,000 mm 0,0 UV-I 37 W/m² -5,4 °C -4,3 °C 0,0 km/h (0 Bft)
03.03.2018 07:25 -4,3 °C 92 % 997,1 hPa 0,0 mm 0,0 km/h (0 Bft) S-SW 195 ° 0 min 0,000 mm 0,0 UV-I 39 W/m² -5,4 °C -4,3 °C 0,0 km/h (0 Bft)
03.03.2018 07:26 -4,3 °C 92 % 997,1 hPa 0,0 mm 0,0 km/h (0 Bft) S-SW 195 ° 0 min 0,000 mm 0,0 UV-I 40 W/m² -5,4 °C -4,3 °C 0,0 km/h (0 Bft)
03.03.2018 07:27 -4,3 °C 92 % 997,1 hPa 0,0 mm 0,0 km/h (0 Bft) S-SW 195 ° 0 min 0,000 mm 0,0 UV-I 40 W/m² -5,4 °C -4,3 °C 0,0 km/h (0 Bft)
03.03.2018 07:28 -4,3 °C 92 % 997,1 hPa 0,0 mm 0,0 km/h (0 Bft) S-SW 195 ° 0 min 0,000 mm 0,0 UV-I 42 W/m² -5,4 °C -4,3 °C 0,0 km/h (0 Bft)
03.03.2018 07:29 -4,4 °C 92 % 997,0 hPa 0,0 mm 0,0 km/h (0 Bft) S-SW 195 ° 0 min 0,000 mm 0,0 UV-I 42 W/m² -5,5 °C -4,4 °C 0,0 km/h (0 Bft)
03.03.2018 07:30 -4,4 °C 92 % 997,0 hPa 0,0 mm 0,0 km/h (0 Bft) S-SW 195 ° 0 min 0,000 mm 0,0 UV-I 42 W/m² -5,5 °C -4,4 °C 0,0 km/h (0 Bft)
03.03.2018 07:31 -4,4 °C 92 % 996,9 hPa 0,0 mm 0,0 km/h (0 Bft) S-SW 195 ° 0 min 0,000 mm 0,0 UV-I 42 W/m² -5,5 °C -4,4 °C 0,0 km/h (0 Bft)
03.03.2018 07:32 -4,4 °C 92 % 997,0 hPa 0,0 mm 0,0 km/h (0 Bft) S-SW 195 ° 0 min 0,000 mm 0,0 UV-I 44 W/m² -5,5 °C -4,4 °C 0,0 km/h (0 Bft)
03.03.2018 07:33 -4,5 °C 92 % 996,9 hPa 0,0 mm 0,0 km/h (0 Bft) S-SW 195 ° 0 min 0,000 mm 0,0 UV-I 44 W/m² -5,6 °C -4,5 °C 0,0 km/h (0 Bft)
03.03.2018 07:34 -4,6 °C 91 % 996,9 hPa 0,0 mm 0,0 km/h (0 Bft) S-SW 195 ° 0 min 0,000 mm 0,0 UV-I 44 W/m² -5,8 °C -4,6 °C 0,0 km/h (0 Bft)
03.03.2018 07:35 -4,7 °C 91 % 996,9 hPa 0,0 mm 0,0 km/h (0 Bft) S-SW 195 ° 0 min 0,000 mm 0,0 UV-I 44 W/m² -5,9 °C -4,7 °C 0,0 km/h (0 Bft)
03.03.2018 07:36 -4,7 °C 92 % 996,9 hPa 0,0 mm 0,0 km/h (0 Bft) S-SW 195 ° 0 min 0,000 mm 0,0 UV-I 44 W/m² -5,8 °C -4,7 °C 0,0 km/h (0 Bft)
03.03.2018 07:37 -4,7 °C 92 % 996,9 hPa 0,0 mm 0,0 km/h (0 Bft) S-SW 195 ° 0 min 0,000 mm 0,0 UV-I 44 W/m² -5,8 °C -4,7 °C 0,0 km/h (0 Bft)
03.03.2018 07:38 -4,7 °C 92 % 996,9 hPa 0,0 mm 0,0 km/h (0 Bft) S-SW 195 ° 0 min 0,000 mm 0,0 UV-I 46 W/m² -5,8 °C -4,7 °C 0,0 km/h (0 Bft)
03.03.2018 07:39 -4,7 °C 92 % 996,9 hPa 0,0 mm 0,0 km/h (0 Bft) S-SW 195 ° 0 min 0,000 mm 0,0 UV-I 46 W/m² -5,8 °C -4,7 °C 0,0 km/h (0 Bft)
03.03.2018 07:40 -4,6 °C 92 % 996,9 hPa 0,0 mm 0,0 km/h (0 Bft) S-SW 195 ° 0 min 0,000 mm 0,0 UV-I 47 W/m² -5,7 °C -4,6 °C 0,0 km/h (0 Bft)
03.03.2018 07:41 -4,6 °C 92 % 997,0 hPa 0,0 mm 0,0 km/h (0 Bft) S-SW 195 ° 0 min 0,000 mm 0,0 UV-I 49 W/m² -5,7 °C -4,6 °C 0,0 km/h (0 Bft)
03.03.2018 07:42 -4,5 °C 92 % 997,0 hPa 0,0 mm 0,0 km/h (0 Bft) S-SW 195 ° 0 min 0,000 mm 0,0 UV-I 49 W/m² -5,6 °C -4,5 °C 0,0 km/h (0 Bft)
03.03.2018 07:43 -4,4 °C 92 % 996,9 hPa 0,0 mm 0,0 km/h (0 Bft) S-SW 195 ° 0 min 0,000 mm 0,0 UV-I 51 W/m² -5,5 °C -4,4 °C 0,0 km/h (0 Bft)
03.03.2018 07:44 -4,4 °C 92 % 996,9 hPa 0,0 mm 0,0 km/h (0 Bft) S-SW 195 ° 0 min 0,000 mm 0,0 UV-I 53 W/m² -5,5 °C -4,4 °C 0,0 km/h (0 Bft)
03.03.2018 07:45 -4,3 °C 93 % 996,9 hPa 0,0 mm 0,0 km/h (0 Bft) S-SW 195 ° 0 min 0,000 mm 0,0 UV-I 54 W/m² -5,3 °C -4,3 °C 0,0 km/h (0 Bft)
03.03.2018 07:46 -4,1 °C 93 % 996,9 hPa 0,0 mm 0,0 km/h (0 Bft) S-SW 195 ° 0 min 0,000 mm 0,0 UV-I 56 W/m² -5,1 °C -4,1 °C 0,0 km/h (0 Bft)
03.03.2018 07:47 -4,1 °C 93 % 996,9 hPa 0,0 mm 0,0 km/h (0 Bft) S-SW 195 ° 0 min 0,000 mm 0,0 UV-I 60 W/m² -5,1 °C -4,1 °C 0,0 km/h (0 Bft)
03.03.2018 07:48 -3,9 °C 92 % 996,9 hPa 0,0 mm 0,0 km/h (0 Bft) S-SW 195 ° 0 min 0,000 mm 0,0 UV-I 62 W/m² -5,0 °C -3,9 °C 0,0 km/h (0 Bft)
03.03.2018 07:49 -3,8 °C 93 % 996,9 hPa 0,0 mm 0,0 km/h (0 Bft) S-SW 195 ° 0 min 0,000 mm 0,0 UV-I 63 W/m² -4,8 °C -3,8 °C 0,0 km/h (0 Bft)
03.03.2018 07:50 -3,7 °C 93 % 996,9 hPa 0,0 mm 0,0 km/h (0 Bft) S-SW 195 ° 0 min 0,000 mm 0,0 UV-I 65 W/m² -4,7 °C -3,7 °C 0,0 km/h (0 Bft)
03.03.2018 07:51 -3,7 °C 92 % 996,8 hPa 0,0 mm 0,0 km/h (0 Bft) S-SW 195 ° 0 min 0,000 mm 0,0 UV-I 67 W/m² -4,8 °C -3,7 °C 0,0 km/h (0 Bft)
03.03.2018 07:52 -3,7 °C 92 % 996,8 hPa 0,0 mm 0,0 km/h (0 Bft) S-SW 195 ° 0 min 0,000 mm 0,0 UV-I 67 W/m² -4,8 °C -3,7 °C 0,0 km/h (0 Bft)
03.03.2018 07:53 -3,7 °C 92 % 996,9 hPa 0,0 mm 0,0 km/h (0 Bft) S-SW 195 ° 0 min 0,000 mm 0,0 UV-I 72 W/m² -4,8 °C -3,7 °C 0,0 km/h (0 Bft)
03.03.2018 07:54 -3,8 °C 92 % 996,8 hPa 0,0 mm 0,0 km/h (0 Bft) S-SW 195 ° 0 min 0,000 mm 0,0 UV-I 72 W/m² -4,9 °C -3,8 °C 0,0 km/h (0 Bft)
03.03.2018 07:55 -3,8 °C 91 % 996,7 hPa 0,0 mm 0,0 km/h (0 Bft) S-SW 195 ° 0 min 0,000 mm 0,0 UV-I 74 W/m² -5,0 °C -3,8 °C 0,0 km/h (0 Bft)
03.03.2018 07:56 -3,8 °C 91 % 996,7 hPa 0,0 mm 0,0 km/h (0 Bft) S-SW 195 ° 0 min 0,000 mm 0,0 UV-I 74 W/m² -5,0 °C -3,8 °C 0,0 km/h (0 Bft)
03.03.2018 07:57 -3,8 °C 91 % 996,7 hPa 0,0 mm 0,0 km/h (0 Bft) S-SW 195 ° 0 min 0,000 mm 0,0 UV-I 76 W/m² -5,0 °C -3,8 °C 0,0 km/h (0 Bft)
03.03.2018 07:58 -3,9 °C 91 % 996,7 hPa 0,0 mm 0,0 km/h (0 Bft) S-SW 195 ° 0 min 0,000 mm 0,0 UV-I 76 W/m² -5,1 °C -3,9 °C 0,0 km/h (0 Bft)
03.03.2018 07:59 -3,9 °C 91 % 996,6 hPa 0,0 mm 0,0 km/h (0 Bft) S-SW 195 ° 0 min 0,000 mm 0,0 UV-I 76 W/m² -5,1 °C -3,9 °C 0,0 km/h (0 Bft)
03.03.2018 08:00 -3,9 °C 91 % 996,6 hPa 0,0 mm 0,0 km/h (0 Bft) S-SW 195 ° 0 min 0,000 mm 0,0 UV-I 77 W/m² -5,1 °C -3,9 °C 0,0 km/h (0 Bft)
03.03.2018 08:01 -3,9 °C 91 % 996,6 hPa 0,0 mm 0,0 km/h (0 Bft) S-SW 195 ° 0 min 0,000 mm 0,0 UV-I 77 W/m² -5,1 °C -3,9 °C 0,0 km/h (0 Bft)
03.03.2018 08:02 -3,8 °C 92 % 996,6 hPa 0,0 mm 0,0 km/h (0 Bft) S-SW 195 ° 0 min 0,000 mm 0,0 UV-I 77 W/m² -4,9 °C -3,8 °C 0,0 km/h (0 Bft)
03.03.2018 08:03 -3,7 °C 92 % 996,6 hPa 0,0 mm 0,0 km/h (0 Bft) S-SW 195 ° 0 min 0,000 mm 0,0 UV-I 77 W/m² -4,8 °C -3,7 °C 0,0 km/h (0 Bft)
03.03.2018 08:04 -3,5 °C 92 % 996,6 hPa 0,0 mm 0,0 km/h (0 Bft) S-SW 195 ° 0 min 0,000 mm 0,0 UV-I 79 W/m² -4,6 °C -3,5 °C 0,0 km/h (0 Bft)
03.03.2018 08:05 -3,4 °C 92 % 996,6 hPa 0,0 mm 0,0 km/h (0 Bft) S-SW 195 ° 0 min 0,000 mm 0,0 UV-I 79 W/m² -4,5 °C -3,4 °C 0,0 km/h (0 Bft)
03.03.2018 08:06 -3,4 °C 91 % 996,7 hPa 0,0 mm 0,0 km/h (0 Bft) S-SW 195 ° 0 min 0,000 mm 0,0 UV-I 79 W/m² -4,7 °C -3,4 °C 0,0 km/h (0 Bft)
03.03.2018 08:07 -3,5 °C 91 % 996,7 hPa 0,0 mm 0,0 km/h (0 Bft) S-SW 195 ° 0 min 0,000 mm 0,0 UV-I 79 W/m² -4,8 °C -3,5 °C 0,0 km/h (0 Bft)
03.03.2018 08:08 -3,6 °C 90 % 996,7 hPa 0,0 mm 0,0 km/h (0 Bft) S-SW 195 ° 0 min 0,000 mm 0,0 UV-I 79 W/m² -5,0 °C -3,6 °C 0,0 km/h (0 Bft)
03.03.2018 08:09 -3,7 °C 90 % 996,6 hPa 0,0 mm 0,0 km/h (0 Bft) S-SW 195 ° 0 min 0,000 mm 0,0 UV-I 81 W/m² -5,1 °C -3,7 °C 0,0 km/h (0 Bft)
03.03.2018 08:10 -3,8 °C 90 % 996,6 hPa 0,0 mm 0,0 km/h (0 Bft) S-SW 195 ° 0 min 0,000 mm 0,5 UV-I 84 W/m² -5,2 °C -3,8 °C 0,0 km/h (0 Bft)
03.03.2018 08:11 -3,8 °C 91 % 996,6 hPa 0,0 mm 0,0 km/h (0 Bft) S-SW 195 ° 0 min 0,000 mm 0,5 UV-I 86 W/m² -5,0 °C -3,8 °C 0,0 km/h (0 Bft)
03.03.2018 08:12 -3,8 °C 91 % 996,6 hPa 0,0 mm 0,0 km/h (0 Bft) S-SW 195 ° 0 min 0,000 mm 0,5 UV-I 88 W/m² -5,0 °C -3,8 °C 0,0 km/h (0 Bft)
03.03.2018 08:13 -3,9 °C 91 % 996,5 hPa 0,0 mm 0,0 km/h (0 Bft) S-SW 195 ° 0 min 0,000 mm 0,5 UV-I 90 W/m² -5,1 °C -3,9 °C 0,0 km/h (0 Bft)
03.03.2018 08:14 -3,9 °C 91 % 996,5 hPa 0,0 mm 0,0 km/h (0 Bft) S-SW 195 ° 0 min 0,000 mm 0,5 UV-I 90 W/m² -5,1 °C -3,9 °C 0,0 km/h (0 Bft)
03.03.2018 08:15 -3,8 °C 91 % 996,6 hPa 0,0 mm 0,0 km/h (0 Bft) S-SW 195 ° 0 min 0,000 mm 0,5 UV-I 91 W/m² -5,0 °C -3,8 °C 0,0 km/h (0 Bft)
03.03.2018 08:16 -3,8 °C 91 % 996,5 hPa 0,0 mm 0,0 km/h (0 Bft) S-SW 195 ° 0 min 0,000 mm 0,5 UV-I 93 W/m² -5,0 °C -3,8 °C 0,0 km/h (0 Bft)
03.03.2018 08:17 -3,8 °C 91 % 996,5 hPa 0,0 mm 0,0 km/h (0 Bft) S-SW 195 ° 0 min 0,000 mm 0,5 UV-I 93 W/m² -5,0 °C -3,8 °C 0,0 km/h (0 Bft)
03.03.2018 08:18 -3,7 °C 92 % 996,6 hPa 0,0 mm 0,0 km/h (0 Bft) S-SW 195 ° 0 min 0,000 mm 0,5 UV-I 93 W/m² -4,8 °C -3,7 °C 0,0 km/h (0 Bft)
03.03.2018 08:19 -3,7 °C 91 % 996,5 hPa 0,0 mm 0,0 km/h (0 Bft) S-SW 195 ° 0 min 0,000 mm 0,5 UV-I 93 W/m² -4,9 °C -3,7 °C 0,0 km/h (0 Bft)
03.03.2018 08:20 -3,7 °C 91 % 996,6 hPa 0,0 mm 0,0 km/h (0 Bft) S-SW 195 ° 0 min 0,000 mm 0,5 UV-I 93 W/m² -4,9 °C -3,7 °C 0,0 km/h (0 Bft)
03.03.2018 08:21 -3,6 °C 91 % 996,6 hPa 0,0 mm 0,0 km/h (0 Bft) S-SW 195 ° 0 min 0,000 mm 0,5 UV-I 93 W/m² -4,8 °C -3,6 °C 0,0 km/h (0 Bft)
03.03.2018 08:22 -3,6 °C 91 % 996,6 hPa 0,0 mm 0,0 km/h (0 Bft) S-SW 195 ° 0 min 0,000 mm 0,5 UV-I 93 W/m² -4,8 °C -3,6 °C 0,0 km/h (0 Bft)
03.03.2018 08:23 -3,6 °C 91 % 996,7 hPa 0,0 mm 0,0 km/h (0 Bft) S-SW 195 ° 0 min 0,000 mm 0,5 UV-I 93 W/m² -4,8 °C -3,6 °C 0,0 km/h (0 Bft)
03.03.2018 08:24 -3,5 °C 91 % 996,6 hPa 0,0 mm 0,0 km/h (0 Bft) S-SW 195 ° 0 min 0,000 mm 0,5 UV-I 93 W/m² -4,8 °C -3,5 °C 0,0 km/h (0 Bft)
03.03.2018 08:25 -3,5 °C 91 % 996,6 hPa 0,0 mm 0,0 km/h (0 Bft) S-SW 195 ° 0 min 0,000 mm 0,5 UV-I 93 W/m² -4,8 °C -3,5 °C 0,0 km/h (0 Bft)
03.03.2018 08:26 -3,4 °C 91 % 996,6 hPa 0,0 mm 0,0 km/h (0 Bft) S-SW 195 ° 0 min 0,000 mm 0,6 UV-I 95 W/m² -4,7 °C -3,4 °C 0,0 km/h (0 Bft)
03.03.2018 08:27 -3,4 °C 91 % 996,6 hPa 0,0 mm 0,0 km/h (0 Bft) S-SW 195 ° 0 min 0,000 mm 0,6 UV-I 97 W/m² -4,7 °C -3,4 °C 0,0 km/h (0 Bft)
03.03.2018 08:28 -3,4 °C 91 % 996,6 hPa 0,0 mm 0,0 km/h (0 Bft) S-SW 195 ° 0 min 0,000 mm 0,6 UV-I 100 W/m² -4,7 °C -3,4 °C 0,0 km/h (0 Bft)
03.03.2018 08:29 -3,3 °C 91 % 996,5 hPa 0,0 mm 0,0 km/h (0 Bft) S-SW 195 ° 0 min 0,000 mm 0,6 UV-I 100 W/m² -4,6 °C -3,3 °C 0,0 km/h (0 Bft)
03.03.2018 08:30 -3,2 °C 91 % 996,5 hPa 0,0 mm 0,0 km/h (0 Bft) S-SW 195 ° 0 min 0,000 mm 0,6 UV-I 102 W/m² -4,5 °C -3,2 °C 0,0 km/h (0 Bft)
03.03.2018 08:31 -3,1 °C 91 % 996,5 hPa 0,0 mm 0,0 km/h (0 Bft) S-SW 195 ° 0 min 0,000 mm 0,6 UV-I 104 W/m² -4,4 °C -3,1 °C 0,0 km/h (0 Bft)
03.03.2018 08:32 -2,9 °C 91 % 996,5 hPa 0,0 mm 0,0 km/h (0 Bft) S-SW 195 ° 0 min 0,000 mm 0,6 UV-I 105 W/m² -4,2 °C -2,9 °C 0,0 km/h (0 Bft)
03.03.2018 08:33 -2,8 °C 91 % 996,4 hPa 0,0 mm 0,0 km/h (0 Bft) S-SW 195 ° 0 min 0,000 mm 0,6 UV-I 105 W/m² -4,1 °C -2,8 °C 0,0 km/h (0 Bft)
03.03.2018 08:34 -2,8 °C 91 % 996,4 hPa 0,0 mm 0,0 km/h (0 Bft) S-SW 195 ° 0 min 0,000 mm 0,6 UV-I 109 W/m² -4,1 °C -2,8 °C 0,0 km/h (0 Bft)
03.03.2018 08:35 -2,7 °C 91 % 996,4 hPa 0,0 mm 0,0 km/h (0 Bft) S-SW 195 ° 0 min 0,000 mm 0,6 UV-I 111 W/m² -4,0 °C -2,7 °C 0,0 km/h (0 Bft)
03.03.2018 08:36 -2,7 °C 90 % 996,4 hPa 0,0 mm 0,0 km/h (0 Bft) S-SW 195 ° 0 min 0,000 mm 0,6 UV-I 113 W/m² -4,1 °C -2,7 °C 0,0 km/h (0 Bft)
03.03.2018 08:37 -2,8 °C 90 % 996,4 hPa 0,0 mm 0,0 km/h (0 Bft) S-SW 195 ° 0 min 0,000 mm 0,7 UV-I 114 W/m² -4,2 °C -2,8 °C 0,0 km/h (0 Bft)
03.03.2018 08:38 -2,8 °C 90 % 996,3 hPa 0,0 mm 0,0 km/h (0 Bft) S-SW 195 ° 0 min 0,000 mm 0,7 UV-I 116 W/m² -4,2 °C -2,8 °C 0,0 km/h (0 Bft)
03.03.2018 08:39 -2,8 °C 90 % 996,3 hPa 0,0 mm 0,0 km/h (0 Bft) S-SW 195 ° 0 min 0,000 mm 0,7 UV-I 118 W/m² -4,2 °C -2,8 °C 0,0 km/h (0 Bft)
03.03.2018 08:40 -2,8 °C 90 % 996,3 hPa 0,0 mm 0,0 km/h (0 Bft) S-SW 195 ° 0 min 0,000 mm 0,7 UV-I 121 W/m² -4,2 °C -2,8 °C 0,0 km/h (0 Bft)
03.03.2018 08:41 -2,8 °C 90 % 996,3 hPa 0,0 mm 0,0 km/h (0 Bft) S-SW 195 ° 0 min 0,000 mm 0,7 UV-I 121 W/m² -4,2 °C -2,8 °C 0,0 km/h (0 Bft)
03.03.2018 08:42 -2,7 °C 90 % 996,3 hPa 0,0 mm 0,0 km/h (0 Bft) S-SW 195 ° 0 min 0,000 mm 0,7 UV-I 123 W/m² -4,1 °C -2,7 °C 0,0 km/h (0 Bft)
03.03.2018 08:43 -2,6 °C 90 % 996,3 hPa 0,0 mm 0,0 km/h (0 Bft) S-SW 195 ° 0 min 0,000 mm 0,7 UV-I 123 W/m² -4,0 °C -2,6 °C 0,0 km/h (0 Bft)
03.03.2018 08:44 -2,4 °C 90 % 996,4 hPa 0,0 mm 0,0 km/h (0 Bft) S-SW 195 ° 0 min 0,000 mm 0,7 UV-I 123 W/m² -3,8 °C -2,4 °C 0,0 km/h (0 Bft)
03.03.2018 08:45 -2,3 °C 90 % 996,4 hPa 0,0 mm 0,0 km/h (0 Bft) S-SW 195 ° 0 min 0,000 mm 0,7 UV-I 123 W/m² -3,7 °C -2,3 °C 0,0 km/h (0 Bft)
03.03.2018 08:46 -2,3 °C 90 % 996,4 hPa 0,0 mm 0,0 km/h (0 Bft) S-SW 195 ° 0 min 0,000 mm 0,8 UV-I 125 W/m² -3,7 °C -2,3 °C 0,0 km/h (0 Bft)
03.03.2018 08:47 -2,2 °C 89 % 996,3 hPa 0,0 mm 0,0 km/h (0 Bft) S-SW 195 ° 0 min 0,000 mm 0,8 UV-I 127 W/m² -3,8 °C -2,2 °C 0,0 km/h (0 Bft)
03.03.2018 08:48 -2,2 °C 89 % 996,3 hPa 0,0 mm 0,0 km/h (0 Bft) S-SW 195 ° 0 min 0,000 mm 0,8 UV-I 128 W/m² -3,8 °C -2,2 °C 0,0 km/h (0 Bft)
03.03.2018 08:49 -2,2 °C 89 % 996,3 hPa 0,0 mm 0,0 km/h (0 Bft) S-SW 195 ° 0 min 0,000 mm 0,8 UV-I 130 W/m² -3,8 °C -2,2 °C 0,0 km/h (0 Bft)
03.03.2018 08:50 -2,1 °C 89 % 996,2 hPa 0,0 mm 0,0 km/h (0 Bft) S-SW 195 ° 0 min 0,000 mm 0,8 UV-I 134 W/m² -3,7 °C -2,1 °C 0,0 km/h (0 Bft)
03.03.2018 08:51 -2,2 °C 89 % 996,3 hPa 0,0 mm 0,0 km/h (0 Bft) S-SW 195 ° 0 min 0,000 mm 0,8 UV-I 137 W/m² -3,8 °C -2,2 °C 0,0 km/h (0 Bft)
03.03.2018 08:52 -2,2 °C 89 % 996,3 hPa 0,0 mm 0,0 km/h (0 Bft) S-SW 195 ° 0 min 0,000 mm 0,9 UV-I 142 W/m² -3,8 °C -2,2 °C 0,0 km/h (0 Bft)
03.03.2018 08:53 -2,1 °C 89 % 996,3 hPa 0,0 mm 0,0 km/h (0 Bft) S-SW 195 ° 0 min 0,000 mm 0,9 UV-I 144 W/m² -3,7 °C -2,1 °C 0,0 km/h (0 Bft)
03.03.2018 08:54 -2,1 °C 89 % 996,3 hPa 0,0 mm 0,0 km/h (0 Bft) S-SW 195 ° 0 min 0,000 mm 0,9 UV-I 146 W/m² -3,7 °C -2,1 °C 0,0 km/h (0 Bft)
03.03.2018 08:55 -2,1 °C 89 % 996,3 hPa 0,0 mm 0,0 km/h (0 Bft) S-SW 195 ° 0 min 0,000 mm 0,9 UV-I 149 W/m² -3,7 °C -2,1 °C 0,0 km/h (0 Bft)
03.03.2018 08:56 -2,1 °C 89 % 996,4 hPa 0,0 mm 0,0 km/h (0 Bft) S-SW 195 ° 0 min 0,000 mm 0,9 UV-I 153 W/m² -3,7 °C -2,1 °C 0,0 km/h (0 Bft)
03.03.2018 08:57 -2,1 °C 89 % 996,4 hPa 0,0 mm 0,0 km/h (0 Bft) S-SW 195 ° 0 min 0,000 mm 0,9 UV-I 158 W/m² -3,7 °C -2,1 °C 0,0 km/h (0 Bft)
03.03.2018 08:58 -2,1 °C 89 % 996,4 hPa 0,0 mm 0,0 km/h (0 Bft) S-SW 195 ° 0 min 0,000 mm 1,0 UV-I 162 W/m² -3,7 °C -2,1 °C 0,0 km/h (0 Bft)
03.03.2018 08:59 -2,0 °C 89 % 996,4 hPa 0,0 mm 0,0 km/h (0 Bft) S-SW 195 ° 0 min 0,000 mm 1,0 UV-I 163 W/m² -3,6 °C -2,0 °C 0,0 km/h (0 Bft)
03.03.2018 09:00 -2,1 °C 89 % 996,4 hPa 0,0 mm 0,0 km/h (0 Bft) S-SW 195 ° 0 min 0,025 mm 1,0 UV-I 167 W/m² -3,7 °C -2,1 °C 0,0 km/h (0 Bft)
03.03.2018 09:01 -2,0 °C 88 % 996,4 hPa 0,0 mm 0,0 km/h (0 Bft) S-SW 195 ° 0 min 0,000 mm 1,0 UV-I 169 W/m² -3,7 °C -2,0 °C 0,0 km/h (0 Bft)
03.03.2018 09:02 -1,9 °C 88 % 996,3 hPa 0,0 mm 0,0 km/h (0 Bft) S-SW 195 ° 0 min 0,000 mm 1,0 UV-I 171 W/m² -3,6 °C -1,9 °C 0,0 km/h (0 Bft)
03.03.2018 09:03 -1,9 °C 88 % 996,3 hPa 0,0 mm 0,0 km/h (0 Bft) S-SW 195 ° 0 min 0,000 mm 1,0 UV-I 172 W/m² -3,6 °C -1,9 °C 0,0 km/h (0 Bft)
03.03.2018 09:04 -1,9 °C 88 % 996,3 hPa 0,0 mm 0,0 km/h (0 Bft) S-SW 195 ° 0 min 0,000 mm 1,0 UV-I 176 W/m² -3,6 °C -1,9 °C 0,0 km/h (0 Bft)
03.03.2018 09:05 -1,9 °C 88 % 996,3 hPa 0,0 mm 0,0 km/h (0 Bft) S-SW 195 ° 0 min 0,000 mm 1,1 UV-I 178 W/m² -3,6 °C -1,9 °C 0,0 km/h (0 Bft)
03.03.2018 09:06 -1,8 °C 88 % 996,2 hPa 0,0 mm 0,0 km/h (0 Bft) S-SW 195 ° 0 min 0,000 mm 1,1 UV-I 178 W/m² -3,5 °C -1,8 °C 0,0 km/h (0 Bft)
03.03.2018 09:07 -1,8 °C 89 % 996,2 hPa 0,0 mm 0,0 km/h (0 Bft) S-SW 195 ° 0 min 0,000 mm 1,1 UV-I 179 W/m² -3,4 °C -1,8 °C 0,0 km/h (0 Bft)
03.03.2018 09:08 -1,8 °C 89 % 996,3 hPa 0,0 mm 0,0 km/h (0 Bft) S-SW 195 ° 0 min 0,000 mm 1,1 UV-I 179 W/m² -3,4 °C -1,8 °C 0,0 km/h (0 Bft)
03.03.2018 09:09 -1,7 °C 89 % 996,3 hPa 0,0 mm 0,0 km/h (0 Bft) S-SW 195 ° 0 min 0,000 mm 1,1 UV-I 181 W/m² -3,3 °C -1,7 °C 0,0 km/h (0 Bft)
03.03.2018 09:10 -1,7 °C 88 % 996,3 hPa 0,0 mm 0,0 km/h (0 Bft) S-SW 195 ° 0 min 0,000 mm 1,1 UV-I 183 W/m² -3,4 °C -1,7 °C 0,0 km/h (0 Bft)
03.03.2018 09:11 -1,6 °C 88 % 996,4 hPa 0,0 mm 0,0 km/h (0 Bft) S-SW 195 ° 0 min 0,000 mm 1,1 UV-I 185 W/m² -3,3 °C -1,6 °C 0,0 km/h (0 Bft)
03.03.2018 09:12 -1,6 °C 88 % 996,4 hPa 0,0 mm 0,0 km/h (0 Bft) S-SW 195 ° 0 min 0,000 mm 1,1 UV-I 186 W/m² -3,3 °C -1,6 °C 0,0 km/h (0 Bft)
03.03.2018 09:13 -1,4 °C 88 % 996,3 hPa 0,0 mm 0,0 km/h (0 Bft) S-SW 195 ° 0 min 0,000 mm 1,2 UV-I 188 W/m² -3,1 °C -1,4 °C 0,0 km/h (0 Bft)
03.03.2018 09:14 -1,4 °C 88 % 996,3 hPa 0,0 mm 0,0 km/h (0 Bft) S-SW 195 ° 0 min 0,000 mm 1,2 UV-I 192 W/m² -3,1 °C -1,4 °C 0,0 km/h (0 Bft)
03.03.2018 09:15 -1,3 °C 88 % 996,3 hPa 0,0 mm 0,0 km/h (0 Bft) S-SW 195 ° 0 min 0,000 mm 1,2 UV-I 199 W/m² -3,0 °C -1,3 °C 0,0 km/h (0 Bft)
03.03.2018 09:16 -1,3 °C 88 % 996,3 hPa 0,0 mm 0,0 km/h (0 Bft) S-SW 195 ° 0 min 0,000 mm 1,2 UV-I 204 W/m² -3,0 °C -1,3 °C 0,0 km/h (0 Bft)
03.03.2018 09:17 -1,3 °C 87 % 996,3 hPa 0,0 mm 0,0 km/h (0 Bft) S-SW 195 ° 0 min 0,000 mm 1,2 UV-I 206 W/m² -3,2 °C -1,3 °C 0,0 km/h (0 Bft)
03.03.2018 09:18 -1,3 °C 87 % 996,3 hPa 0,0 mm 0,0 km/h (0 Bft) S-SW 195 ° 0 min 0,000 mm 1,3 UV-I 209 W/m² -3,2 °C -1,3 °C 0,0 km/h (0 Bft)
03.03.2018 09:19 -1,3 °C 87 % 996,3 hPa 0,0 mm 0,0 km/h (0 Bft) S-SW 195 ° 0 min 0,000 mm 1,3 UV-I 211 W/m² -3,2 °C -1,3 °C 0,0 km/h (0 Bft)
03.03.2018 09:20 -1,4 °C 87 % 996,3 hPa 0,0 mm 0,0 km/h (0 Bft) S-SW 195 ° 0 min 0,000 mm 1,3 UV-I 213 W/m² -3,3 °C -1,4 °C 0,0 km/h (0 Bft)
03.03.2018 09:21 -1,3 °C 88 % 996,2 hPa 0,0 mm 0,0 km/h (0 Bft) S-SW 195 ° 0 min 0,000 mm 1,3 UV-I 213 W/m² -3,0 °C -1,3 °C 0,0 km/h (0 Bft)
03.03.2018 09:22 -1,3 °C 88 % 996,2 hPa 0,0 mm 0,0 km/h (0 Bft) S-SW 195 ° 0 min 0,000 mm 1,3 UV-I 213 W/m² -3,0 °C -1,3 °C 0,0 km/h (0 Bft)
03.03.2018 09:23 -1,2 °C 88 % 996,2 hPa 0,0 mm 0,0 km/h (0 Bft) S-SW 195 ° 0 min 0,000 mm 1,3 UV-I 213 W/m² -2,9 °C -1,2 °C 0,0 km/h (0 Bft)
03.03.2018 09:24 -1,2 °C 88 % 996,2 hPa 0,0 mm 0,0 km/h (0 Bft) S-SW 195 ° 0 min 0,000 mm 1,3 UV-I 214 W/m² -2,9 °C -1,2 °C 0,0 km/h (0 Bft)
03.03.2018 09:25 -1,1 °C 88 % 996,2 hPa 0,0 mm 0,0 km/h (0 Bft) S-SW 195 ° 0 min 0,000 mm 1,3 UV-I 214 W/m² -2,8 °C -1,1 °C 0,0 km/h (0 Bft)
03.03.2018 09:26 -1,1 °C 88 % 996,1 hPa 0,0 mm 0,0 km/h (0 Bft) S-SW 195 ° 0 min 0,000 mm 1,3 UV-I 211 W/m² -2,8 °C -1,1 °C 0,0 km/h (0 Bft)
03.03.2018 09:27 -1,0 °C 87 % 996,1 hPa 0,0 mm 0,0 km/h (0 Bft) S-SW 195 ° 0 min 0,000 mm 1,3 UV-I 199 W/m² -2,9 °C -1,0 °C 0,0 km/h (0 Bft)
03.03.2018 09:28 -0,9 °C 88 % 996,1 hPa 0,0 mm 0,0 km/h (0 Bft) S-SW 195 ° 0 min 0,000 mm 1,3 UV-I 193 W/m² -2,6 °C -0,9 °C 0,0 km/h (0 Bft)
03.03.2018 09:29 -0,9 °C 87 % 996,0 hPa 0,0 mm 0,0 km/h (0 Bft) S-SW 195 ° 0 min 0,000 mm 1,3 UV-I 188 W/m² -2,8 °C -0,9 °C 0,0 km/h (0 Bft)
03.03.2018 09:30 -0,9 °C 87 % 996,0 hPa 0,0 mm 0,0 km/h (0 Bft) S-SW 195 ° 0 min 0,000 mm 1,2 UV-I 181 W/m² -2,8 °C -0,9 °C 0,0 km/h (0 Bft)
03.03.2018 09:31 -0,9 °C 87 % 996,1 hPa 0,0 mm 0,0 km/h (0 Bft) S-SW 195 ° 0 min 0,000 mm 1,2 UV-I 179 W/m² -2,8 °C -0,9 °C 0,0 km/h (0 Bft)
03.03.2018 09:32 -0,8 °C 87 % 996,0 hPa 0,0 mm 0,1 km/h (0 Bft) S-SW 195 ° 0 min 0,000 mm 1,2 UV-I 176 W/m² -2,7 °C -0,8 °C 1,6 km/h (1 Bft)
03.03.2018 09:33 -0,8 °C 87 % 996,0 hPa 0,0 mm 0,1 km/h (0 Bft) S-SW 195 ° 0 min 0,000 mm 1,2 UV-I 169 W/m² -2,7 °C -0,8 °C 1,6 km/h (1 Bft)
03.03.2018 09:34 -0,8 °C 87 % 996,0 hPa 0,0 mm 0,0 km/h (0 Bft) S-SW 195 ° 0 min 0,000 mm 1,2 UV-I 169 W/m² -2,7 °C -0,8 °C 0,0 km/h (0 Bft)
03.03.2018 09:35 -0,7 °C 87 % 996,0 hPa 0,0 mm 0,0 km/h (0 Bft) S-SW 195 ° 0 min 0,000 mm 1,2 UV-I 167 W/m² -2,6 °C -0,7 °C 0,0 km/h (0 Bft)
03.03.2018 09:36 -0,8 °C 87 % 996,0 hPa 0,0 mm 0,0 km/h (0 Bft) S-SW 195 ° 0 min 0,000 mm 1,2 UV-I 163 W/m² -2,7 °C -0,8 °C 0,0 km/h (0 Bft)
03.03.2018 09:37 -0,8 °C 87 % 995,9 hPa 0,0 mm 0,0 km/h (0 Bft) S-SW 195 ° 0 min 0,000 mm 1,2 UV-I 160 W/m² -2,7 °C -0,8 °C 0,0 km/h (0 Bft)
03.03.2018 09:38 -0,8 °C 87 % 995,9 hPa 0,0 mm 0,0 km/h (0 Bft) S-SW 195 ° 0 min 0,000 mm 1,2 UV-I 148 W/m² -2,7 °C -0,8 °C 0,0 km/h (0 Bft)
03.03.2018 09:39 -0,9 °C 87 % 996,0 hPa 0,0 mm 0,0 km/h (0 Bft) S-SW 195 ° 0 min 0,000 mm 1,2 UV-I 148 W/m² -2,8 °C -0,9 °C 0,0 km/h (0 Bft)
03.03.2018 09:40 -0,9 °C 87 % 995,9 hPa 0,0 mm 0,0 km/h (0 Bft) S-SW 195 ° 0 min 0,000 mm 1,2 UV-I 139 W/m² -2,8 °C -0,9 °C 0,0 km/h (0 Bft)
03.03.2018 09:41 -0,9 °C 87 % 995,9 hPa 0,0 mm 0,0 km/h (0 Bft) S-SW 195 ° 0 min 0,000 mm 1,2 UV-I 135 W/m² -2,8 °C -0,9 °C 0,0 km/h (0 Bft)
03.03.2018 09:42 -0,9 °C 87 % 995,9 hPa 0,0 mm 0,0 km/h (0 Bft) S-SW 195 ° 0 min 0,000 mm 1,2 UV-I 132 W/m² -2,8 °C -0,9 °C 0,0 km/h (0 Bft)
03.03.2018 09:43 -0,9 °C 87 % 995,9 hPa 0,0 mm 0,0 km/h (0 Bft) S-SW 195 ° 0 min 0,000 mm 1,2 UV-I 132 W/m² -2,8 °C -0,9 °C 0,0 km/h (0 Bft)
03.03.2018 09:44 -1,0 °C 87 % 996,0 hPa 0,0 mm 0,0 km/h (0 Bft) S-SW 195 ° 0 min 0,000 mm 1,2 UV-I 130 W/m² -2,9 °C -1,0 °C 0,0 km/h (0 Bft)
03.03.2018 09:45 -0,9 °C 87 % 996,0 hPa 0,0 mm 0,0 km/h (0 Bft) S-SW 195 ° 0 min 0,000 mm 1,2 UV-I 128 W/m² -2,8 °C -0,9 °C 0,0 km/h (0 Bft)
03.03.2018 09:46 -1,0 °C 87 % 996,0 hPa 0,0 mm 0,0 km/h (0 Bft) S-SW 195 ° 0 min 0,000 mm 1,2 UV-I 130 W/m² -2,9 °C -1,0 °C 0,0 km/h (0 Bft)
03.03.2018 09:47 -1,0 °C 87 % 996,0 hPa 0,0 mm 0,0 km/h (0 Bft) S-SW 195 ° 0 min 0,000 mm 1,2 UV-I 130 W/m² -2,9 °C -1,0 °C 0,0 km/h (0 Bft)
03.03.2018 09:48 -1,1 °C 87 % 995,9 hPa 0,0 mm 0,0 km/h (0 Bft) S-SW 195 ° 0 min 0,000 mm 1,2 UV-I 130 W/m² -3,0 °C -1,1 °C 0,0 km/h (0 Bft)
03.03.2018 09:49 -1,1 °C 87 % 995,9 hPa 0,0 mm 0,0 km/h (0 Bft) S-SW 195 ° 0 min 0,000 mm 1,2 UV-I 132 W/m² -3,0 °C -1,1 °C 0,0 km/h (0 Bft)
03.03.2018 09:50 -1,1 °C 87 % 995,9 hPa 0,0 mm 0,0 km/h (0 Bft) S-SW 195 ° 0 min 0,000 mm 1,2 UV-I 134 W/m² -3,0 °C -1,1 °C 0,0 km/h (0 Bft)
03.03.2018 09:51 -1,0 °C 88 % 995,9 hPa 0,0 mm 0,0 km/h (0 Bft) S-SW 195 ° 0 min 0,000 mm 1,2 UV-I 139 W/m² -2,7 °C -1,0 °C 0,0 km/h (0 Bft)
03.03.2018 09:52 -0,9 °C 87 % 995,8 hPa 0,0 mm 0,0 km/h (0 Bft) S-SW 195 ° 0 min 0,000 mm 1,3 UV-I 141 W/m² -2,8 °C -0,9 °C 0,0 km/h (0 Bft)
03.03.2018 09:53 -0,9 °C 87 % 995,9 hPa 0,0 mm 0,0 km/h (0 Bft) S-SW 195 ° 0 min 0,000 mm 1,3 UV-I 144 W/m² -2,8 °C -0,9 °C 0,0 km/h (0 Bft)
03.03.2018 09:54 -0,9 °C 87 % 995,8 hPa 0,0 mm 0,0 km/h (0 Bft) S-SW 195 ° 0 min 0,000 mm 1,3 UV-I 151 W/m² -2,8 °C -0,9 °C 0,0 km/h (0 Bft)
03.03.2018 09:55 -0,9 °C 87 % 995,9 hPa 0,0 mm 0,0 km/h (0 Bft) S-SW 195 ° 0 min 0,000 mm 1,3 UV-I 156 W/m² -2,8 °C -0,9 °C 0,0 km/h (0 Bft)
03.03.2018 09:56 -0,9 °C 87 % 995,9 hPa 0,0 mm 0,0 km/h (0 Bft) S-SW 195 ° 0 min 0,000 mm 1,3 UV-I 167 W/m² -2,8 °C -0,9 °C 0,0 km/h (0 Bft)
03.03.2018 09:57 -0,9 °C 87 % 995,9 hPa 0,0 mm 0,0 km/h (0 Bft) S-SW 195 ° 0 min 0,000 mm 1,4 UV-I 167 W/m² -2,8 °C -0,9 °C 0,0 km/h (0 Bft)
03.03.2018 09:58 -0,9 °C 87 % 995,9 hPa 0,0 mm 0,0 km/h (0 Bft) S-SW 195 ° 0 min 0,000 mm 1,5 UV-I 186 W/m² -2,8 °C -0,9 °C 0,0 km/h (0 Bft)
03.03.2018 09:59 -0,8 °C 87 % 995,9 hPa 0,0 mm 0,0 km/h (0 Bft) S-SW 195 ° 0 min 0,000 mm 1,5 UV-I 202 W/m² -2,7 °C -0,8 °C 0,0 km/h (0 Bft)
03.03.2018 10:00 -0,8 °C 87 % 995,9 hPa 0,0 mm 0,0 km/h (0 Bft) S-SW 195 ° 0 min 0,000 mm 1,6 UV-I 221 W/m² -2,7 °C -0,8 °C 0,0 km/h (0 Bft)
03.03.2018 10:01 -0,7 °C 87 % 995,9 hPa 0,0 mm 0,0 km/h (0 Bft) S-SW 195 ° 0 min 0,051 mm 1,6 UV-I 239 W/m² -2,6 °C -0,7 °C 0,0 km/h (0 Bft)
03.03.2018 10:02 -0,6 °C 87 % 995,9 hPa 0,0 mm 0,0 km/h (0 Bft) S-SW 195 ° 0 min 0,000 mm 1,7 UV-I 264 W/m² -2,5 °C -0,6 °C 0,0 km/h (0 Bft)
03.03.2018 10:03 -0,5 °C 87 % 995,9 hPa 0,0 mm 0,0 km/h (0 Bft) S-SW 195 ° 0 min 0,000 mm 1,7 UV-I 269 W/m² -2,4 °C -0,5 °C 0,0 km/h (0 Bft)
03.03.2018 10:04 -0,4 °C 86 % 995,8 hPa 0,0 mm 0,0 km/h (0 Bft) S-SW 195 ° 0 min 0,000 mm 1,8 UV-I 288 W/m² -2,4 °C -0,4 °C 0,0 km/h (0 Bft)
03.03.2018 10:05 -0,4 °C 87 % 995,8 hPa 0,0 mm 0,0 km/h (0 Bft) S-SW 195 ° 1 min 0,000 mm 1,9 UV-I 316 W/m² -2,3 °C -0,4 °C 0,0 km/h (0 Bft)
03.03.2018 10:06 -0,2 °C 86 % 995,8 hPa 0,0 mm 0,0 km/h (0 Bft) S-SW 195 ° 1 min 0,000 mm 1,8 UV-I 294 W/m² -2,3 °C -0,2 °C 0,0 km/h (0 Bft)
03.03.2018 10:07 -0,2 °C 86 % 995,8 hPa 0,0 mm 0,0 km/h (0 Bft) S-SW 195 ° 0 min 0,000 mm 1,8 UV-I 264 W/m² -2,3 °C -0,2 °C 0,0 km/h (0 Bft)
03.03.2018 10:08 -0,1 °C 86 % 995,8 hPa 0,0 mm 0,3 km/h (0 Bft) S-SW 195 ° 0 min 0,000 mm 1,7 UV-I 258 W/m² -2,2 °C -0,1 °C 1,6 km/h (1 Bft)
03.03.2018 10:09 0,0 °C 86 % 995,8 hPa 0,0 mm 0,2 km/h (0 Bft) S-SW 195 ° 0 min 0,000 mm 1,8 UV-I 257 W/m² -2,1 °C 0,0 °C 1,6 km/h (1 Bft)
03.03.2018 10:10 0,1 °C 86 % 995,7 hPa 0,0 mm 0,0 km/h (0 Bft) S-SW 195 ° 0 min 0,000 mm 1,7 UV-I 246 W/m² -2,0 °C 0,1 °C 0,0 km/h (0 Bft)
03.03.2018 10:11 0,1 °C 85 % 995,7 hPa 0,0 mm 0,0 km/h (0 Bft) S-SW 195 ° 0 min 0,000 mm 1,7 UV-I 243 W/m² -2,1 °C 0,1 °C 0,0 km/h (0 Bft)
03.03.2018 10:12 0,1 °C 85 % 995,7 hPa 0,0 mm 0,0 km/h (0 Bft) S-SW 195 ° 0 min 0,000 mm 1,7 UV-I 248 W/m² -2,1 °C 0,1 °C 0,0 km/h (0 Bft)
03.03.2018 10:13 0,1 °C 85 % 995,7 hPa 0,0 mm 0,0 km/h (0 Bft) S-SW 195 ° 0 min 0,000 mm 1,7 UV-I 241 W/m² -2,1 °C 0,1 °C 0,0 km/h (0 Bft)
03.03.2018 10:14 0,0 °C 85 % 995,7 hPa 0,0 mm 0,0 km/h (0 Bft) S-SW 195 ° 0 min 0,000 mm 1,8 UV-I 241 W/m² -2,2 °C 0,0 °C 0,0 km/h (0 Bft)
03.03.2018 10:15 -0,1 °C 85 % 995,7 hPa 0,0 mm 0,0 km/h (0 Bft) S-SW 195 ° 0 min 0,000 mm 1,8 UV-I 241 W/m² -2,3 °C -0,1 °C 0,0 km/h (0 Bft)
03.03.2018 10:16 -0,1 °C 85 % 995,6 hPa 0,0 mm 0,0 km/h (0 Bft) S-SW 195 ° 0 min 0,000 mm 1,8 UV-I 258 W/m² -2,3 °C -0,1 °C 0,0 km/h (0 Bft)
03.03.2018 10:17 -0,1 °C 85 % 995,5 hPa 0,0 mm 0,0 km/h (0 Bft) S-SW 195 ° 0 min 0,000 mm 1,8 UV-I 257 W/m² -2,3 °C -0,1 °C 0,0 km/h (0 Bft)
03.03.2018 10:18 0,0 °C 85 % 995,5 hPa 0,0 mm 0,0 km/h (0 Bft) S-SW 195 ° 0 min 0,000 mm 1,8 UV-I 255 W/m² -2,2 °C 0,0 °C 0,0 km/h (0 Bft)
03.03.2018 10:19 0,0 °C 85 % 995,6 hPa 0,0 mm 0,0 km/h (0 Bft) S-SW 195 ° 0 min 0,000 mm 1,8 UV-I 258 W/m² -2,2 °C 0,0 °C 0,0 km/h (0 Bft)
03.03.2018 10:20 0,1 °C 85 % 995,6 hPa 0,0 mm 0,0 km/h (0 Bft) S-SW 195 ° 0 min 0,000 mm 1,8 UV-I 258 W/m² -2,1 °C 0,1 °C 0,0 km/h (0 Bft)
03.03.2018 10:21 0,1 °C 85 % 995,6 hPa 0,0 mm 0,0 km/h (0 Bft) S-SW 195 ° 0 min 0,000 mm 1,9 UV-I 258 W/m² -2,1 °C 0,1 °C 0,0 km/h (0 Bft)
03.03.2018 10:22 0,1 °C 85 % 995,5 hPa 0,0 mm 0,0 km/h (0 Bft) S-SW 195 ° 0 min 0,000 mm 1,9 UV-I 260 W/m² -2,1 °C 0,1 °C 0,0 km/h (0 Bft)
03.03.2018 10:23 0,2 °C 85 % 995,4 hPa 0,0 mm 0,0 km/h (0 Bft) S-SW 195 ° 0 min 0,000 mm 1,9 UV-I 260 W/m² -2,0 °C 0,2 °C 0,0 km/h (0 Bft)
03.03.2018 10:24 0,2 °C 85 % 995,4 hPa 0,0 mm 0,0 km/h (0 Bft) S-SW 195 ° 0 min 0,000 mm 1,9 UV-I 274 W/m² -2,0 °C 0,2 °C 0,0 km/h (0 Bft)
03.03.2018 10:25 0,2 °C 85 % 995,4 hPa 0,0 mm 0,0 km/h (0 Bft) S-SW 195 ° 1 min 0,000 mm 2,0 UV-I 302 W/m² -2,0 °C 0,2 °C 0,0 km/h (0 Bft)
03.03.2018 10:26 0,3 °C 85 % 995,5 hPa 0,0 mm 0,0 km/h (0 Bft) S-SW 195 ° 0 min 0,000 mm 2,0 UV-I 269 W/m² -1,9 °C 0,3 °C 0,0 km/h (0 Bft)
03.03.2018 10:27 0,4 °C 85 % 995,5 hPa 0,0 mm 0,0 km/h (0 Bft) S-SW 195 ° 0 min 0,000 mm 1,9 UV-I 271 W/m² -1,8 °C 0,4 °C 0,0 km/h (0 Bft)
03.03.2018 10:28 0,5 °C 84 % 995,4 hPa 0,0 mm 0,2 km/h (0 Bft) S-SW 195 ° 0 min 0,000 mm 1,9 UV-I 246 W/m² -1,9 °C 0,5 °C 1,6 km/h (1 Bft)
03.03.2018 10:29 0,6 °C 84 % 995,4 hPa 0,0 mm 0,8 km/h (0 Bft) S-SW 195 ° 0 min 0,000 mm 2,0 UV-I 257 W/m² -1,8 °C 0,6 °C 1,6 km/h (1 Bft)
03.03.2018 10:30 0,7 °C 84 % 995,4 hPa 0,0 mm 0,4 km/h (0 Bft) S-SW 195 ° 0 min 0,000 mm 2,0 UV-I 267 W/m² -1,7 °C 0,7 °C 1,6 km/h (1 Bft)
03.03.2018 10:31 0,7 °C 83 % 995,4 hPa 0,0 mm 0,0 km/h (0 Bft) S-SW 195 ° 0 min 0,000 mm 2,0 UV-I 269 W/m² -1,8 °C 0,7 °C 0,0 km/h (0 Bft)
03.03.2018 10:32 0,7 °C 83 % 995,5 hPa 0,0 mm 0,0 km/h (0 Bft) S-SW 195 ° 0 min 0,000 mm 2,0 UV-I 281 W/m² -1,8 °C 0,7 °C 0,0 km/h (0 Bft)
03.03.2018 10:33 0,7 °C 83 % 995,4 hPa 0,0 mm 0,0 km/h (0 Bft) S-SW 195 ° 0 min 0,000 mm 2,0 UV-I 288 W/m² -1,8 °C 0,7 °C 0,0 km/h (0 Bft)
03.03.2018 10:34 0,7 °C 83 % 995,4 hPa 0,0 mm 0,0 km/h (0 Bft) S-SW 195 ° 1 min 0,000 mm 2,1 UV-I 292 W/m² -1,8 °C 0,7 °C 0,0 km/h (0 Bft)
03.03.2018 10:35 0,7 °C 84 % 995,4 hPa 0,0 mm 0,0 km/h (0 Bft) S-SW 195 ° 1 min 0,000 mm 2,1 UV-I 297 W/m² -1,7 °C 0,7 °C 0,0 km/h (0 Bft)
03.03.2018 10:36 0,8 °C 83 % 995,3 hPa 0,0 mm 0,0 km/h (0 Bft) S-SW 195 ° 1 min 0,000 mm 2,1 UV-I 309 W/m² -1,8 °C 0,8 °C 0,0 km/h (0 Bft)
03.03.2018 10:37 0,7 °C 83 % 995,3 hPa 0,0 mm 0,0 km/h (0 Bft) S-SW 195 ° 1 min 0,000 mm 2,1 UV-I 302 W/m² -1,8 °C 0,7 °C 0,0 km/h (0 Bft)
03.03.2018 10:38 0,7 °C 83 % 995,3 hPa 0,0 mm 0,0 km/h (0 Bft) S-SW 195 ° 1 min 0,000 mm 2,1 UV-I 304 W/m² -1,8 °C 0,7 °C 0,0 km/h (0 Bft)
03.03.2018 10:39 0,7 °C 83 % 995,3 hPa 0,0 mm 0,0 km/h (0 Bft) S-SW 195 ° 1 min 0,000 mm 2,1 UV-I 306 W/m² -1,8 °C 0,7 °C 0,0 km/h (0 Bft)
03.03.2018 10:40 0,8 °C 83 % 995,3 hPa 0,0 mm 0,0 km/h (0 Bft) S-SW 195 ° 1 min 0,000 mm 2,1 UV-I 304 W/m² -1,8 °C 0,8 °C 0,0 km/h (0 Bft)
03.03.2018 10:41 0,8 °C 83 % 995,3 hPa 0,0 mm 0,0 km/h (0 Bft) S-SW 195 ° 1 min 0,000 mm 2,1 UV-I 308 W/m² -1,8 °C 0,8 °C 0,0 km/h (0 Bft)
03.03.2018 10:42 0,8 °C 83 % 995,2 hPa 0,0 mm 0,0 km/h (0 Bft) S-SW 195 ° 1 min 0,000 mm 2,1 UV-I 316 W/m² -1,8 °C 0,8 °C 0,0 km/h (0 Bft)
03.03.2018 10:43 1,0 °C 83 % 995,2 hPa 0,0 mm 0,0 km/h (0 Bft) S-SW 195 ° 1 min 0,000 mm 2,2 UV-I 362 W/m² -1,6 °C 1,0 °C 0,0 km/h (0 Bft)
03.03.2018 10:44 1,2 °C 83 % 995,2 hPa 0,0 mm 0,0 km/h (0 Bft) S-SW 195 ° 1 min 0,000 mm 2,2 UV-I 359 W/m² -1,4 °C 1,2 °C 0,0 km/h (0 Bft)
03.03.2018 10:45 1,3 °C 83 % 995,2 hPa 0,0 mm 0,0 km/h (0 Bft) S-SW 195 ° 1 min 0,000 mm 2,1 UV-I 309 W/m² -1,3 °C 1,3 °C 0,0 km/h (0 Bft)
03.03.2018 10:46 1,4 °C 82 % 995,2 hPa 0,0 mm 0,9 km/h (0 Bft) S-SW 195 ° 1 min 0,000 mm 2,2 UV-I 313 W/m² -1,3 °C 1,4 °C 1,6 km/h (1 Bft)
03.03.2018 10:47 1,5 °C 82 % 995,2 hPa 0,0 mm 1,0 km/h (0 Bft) S-SW 195 ° 1 min 0,000 mm 2,2 UV-I 316 W/m² -1,2 °C 1,5 °C 1,6 km/h (1 Bft)
03.03.2018 10:48 1,5 °C 81 % 995,2 hPa 0,0 mm 0,3 km/h (0 Bft) S-SW 195 ° 1 min 0,000 mm 2,2 UV-I 330 W/m² -1,4 °C 1,5 °C 1,6 km/h (1 Bft)
03.03.2018 10:49 1,6 °C 81 % 995,2 hPa 0,0 mm 0,0 km/h (0 Bft) S-SW 195 ° 1 min 0,000 mm 2,2 UV-I 397 W/m² -1,3 °C 1,6 °C 0,0 km/h (0 Bft)
03.03.2018 10:50 1,7 °C 81 % 995,3 hPa 0,0 mm 0,0 km/h (0 Bft) S-SW 195 ° 1 min 0,000 mm 2,3 UV-I 360 W/m² -1,2 °C 1,7 °C 0,0 km/h (0 Bft)
03.03.2018 10:51 1,7 °C 80 % 995,2 hPa 0,0 mm 0,0 km/h (0 Bft) S-SW 195 ° 1 min 0,000 mm 2,4 UV-I 366 W/m² -1,4 °C 1,7 °C 0,0 km/h (0 Bft)
03.03.2018 10:52 1,8 °C 80 % 995,3 hPa 0,0 mm 0,0 km/h (0 Bft) S-SW 195 ° 1 min 0,000 mm 2,4 UV-I 371 W/m² -1,3 °C 1,8 °C 0,0 km/h (0 Bft)
03.03.2018 10:53 1,8 °C 80 % 995,3 hPa 0,0 mm 0,0 km/h (0 Bft) S-SW 195 ° 1 min 0,000 mm 2,4 UV-I 403 W/m² -1,3 °C 1,8 °C 0,0 km/h (0 Bft)
03.03.2018 10:54 1,8 °C 80 % 995,2 hPa 0,0 mm 1,3 km/h (1 Bft) S-SW 195 ° 1 min 0,000 mm 2,4 UV-I 380 W/m² -1,3 °C 1,8 °C 3,2 km/h (1 Bft)
03.03.2018 10:55 1,9 °C 80 % 995,1 hPa 0,0 mm 2,5 km/h (1 Bft) S-SW 195 ° 1 min 0,000 mm 2,4 UV-I 387 W/m² -1,2 °C 1,9 °C 3,2 km/h (1 Bft)
03.03.2018 10:56 2,1 °C 80 % 995,1 hPa 0,0 mm 2,9 km/h (1 Bft) S 180 ° 1 min 0,000 mm 2,4 UV-I 387 W/m² -1,0 °C 2,1 °C 4,8 km/h (1 Bft)
03.03.2018 10:57 2,1 °C 79 % 995,1 hPa 0,2 mm 1,9 km/h (1 Bft) S 180 ° 1 min 0,000 mm 2,4 UV-I 367 W/m² -1,2 °C 2,1 °C 3,2 km/h (1 Bft)
03.03.2018 10:58 2,2 °C 79 % 995,2 hPa 0,0 mm 2,5 km/h (1 Bft) S-SO 155 ° 1 min 0,000 mm 2,3 UV-I 367 W/m² -1,1 °C 2,2 °C 6,4 km/h (2 Bft)
03.03.2018 10:59 2,3 °C 79 % 995,1 hPa 0,0 mm 3,1 km/h (1 Bft) O 92 ° 1 min 0,000 mm 2,3 UV-I 336 W/m² -1,0 °C 2,3 °C 4,8 km/h (1 Bft)
03.03.2018 11:00 2,4 °C 79 % 995,1 hPa 0,0 mm 2,5 km/h (1 Bft) O 92 ° 1 min 0,102 mm 2,3 UV-I 332 W/m² -0,9 °C 2,4 °C 3,2 km/h (1 Bft)
03.03.2018 11:01 2,5 °C 78 % 995,1 hPa 0,0 mm 1,9 km/h (1 Bft) O 92 ° 1 min 0,000 mm 2,3 UV-I 341 W/m² -0,9 °C 2,5 °C 3,2 km/h (1 Bft)
03.03.2018 11:02 2,6 °C 78 % 995,1 hPa 0,0 mm 1,1 km/h (1 Bft) O 92 ° 1 min 0,000 mm 2,3 UV-I 346 W/m² -0,8 °C 2,6 °C 3,2 km/h (1 Bft)
03.03.2018 11:03 2,6 °C 78 % 995,2 hPa 0,0 mm 1,3 km/h (1 Bft) O 92 ° 1 min 0,000 mm 2,4 UV-I 360 W/m² -0,8 °C 2,6 °C 1,6 km/h (1 Bft)
03.03.2018 11:04 2,7 °C 77 % 995,2 hPa 0,0 mm 2,9 km/h (1 Bft) O 92 ° 1 min 0,000 mm 2,3 UV-I 355 W/m² -0,9 °C 2,7 °C 4,8 km/h (1 Bft)
03.03.2018 11:05 2,8 °C 77 % 995,1 hPa 0,2 mm 3,7 km/h (1 Bft) O-NO 74 ° 1 min 0,000 mm 2,3 UV-I 348 W/m² -0,8 °C 2,8 °C 6,4 km/h (2 Bft)
03.03.2018 11:06 2,9 °C 77 % 995,1 hPa 0,0 mm 3,3 km/h (1 Bft) O-NO 74 ° 1 min 0,000 mm 2,3 UV-I 343 W/m² -0,7 °C 2,9 °C 4,8 km/h (1 Bft)
03.03.2018 11:07 2,9 °C 76 % 995,1 hPa 0,0 mm 6,0 km/h (2 Bft) O-NO 67 ° 1 min 0,000 mm 2,3 UV-I 339 W/m² -0,9 °C 1,3 °C 8,0 km/h (2 Bft)
03.03.2018 11:08 2,9 °C 76 % 995,1 hPa 0,0 mm 4,9 km/h (1 Bft) O-NO 75 ° 1 min 0,000 mm 2,4 UV-I 345 W/m² -0,9 °C 1,7 °C 8,0 km/h (2 Bft)
03.03.2018 11:09 2,9 °C 75 % 995,0 hPa 0,0 mm 5,8 km/h (2 Bft) NO 51 ° 1 min 0,000 mm 2,4 UV-I 346 W/m² -1,1 °C 1,4 °C 6,4 km/h (2 Bft)
03.03.2018 11:10 2,9 °C 75 % 995,0 hPa 0,0 mm 2,7 km/h (1 Bft) NO 51 ° 1 min 0,000 mm 2,4 UV-I 353 W/m² -1,1 °C 2,9 °C 4,8 km/h (1 Bft)
03.03.2018 11:11 3,0 °C 76 % 995,0 hPa 0,0 mm 2,8 km/h (1 Bft) NO 51 ° 1 min 0,000 mm 2,4 UV-I 359 W/m² -0,8 °C 3,0 °C 4,8 km/h (1 Bft)
03.03.2018 11:12 3,0 °C 76 % 995,0 hPa 0,0 mm 2,4 km/h (1 Bft) NO 51 ° 1 min 0,000 mm 2,4 UV-I 355 W/m² -0,8 °C 3,0 °C 4,8 km/h (1 Bft)
03.03.2018 11:13 3,1 °C 75 % 995,0 hPa 0,2 mm 2,7 km/h (1 Bft) NO 51 ° 1 min 0,000 mm 2,4 UV-I 353 W/m² -0,9 °C 3,1 °C 6,4 km/h (2 Bft)
03.03.2018 11:14 3,2 °C 75 % 995,0 hPa 0,0 mm 4,7 km/h (1 Bft) SO 133 ° 1 min 0,000 mm 2,4 UV-I 357 W/m² -0,8 °C 2,2 °C 8,0 km/h (2 Bft)
03.03.2018 11:15 3,2 °C 75 % 994,9 hPa 0,0 mm 3,2 km/h (1 Bft) O 79 ° 1 min 0,000 mm 2,3 UV-I 343 W/m² -0,8 °C 3,2 °C 6,4 km/h (2 Bft)
03.03.2018 11:16 3,2 °C 74 % 994,9 hPa 0,0 mm 3,5 km/h (1 Bft) O-NO 68 ° 1 min 0,000 mm 2,3 UV-I 341 W/m² -1,0 °C 3,2 °C 6,4 km/h (2 Bft)
03.03.2018 11:17 3,3 °C 74 % 994,9 hPa 0,0 mm 2,8 km/h (1 Bft) O-NO 68 ° 1 min 0,000 mm 2,3 UV-I 341 W/m² -0,9 °C 3,3 °C 4,8 km/h (1 Bft)
03.03.2018 11:18 3,3 °C 74 % 995,0 hPa 0,0 mm 3,8 km/h (1 Bft) O-NO 69 ° 1 min 0,000 mm 2,4 UV-I 352 W/m² -0,9 °C 3,3 °C 4,8 km/h (1 Bft)
03.03.2018 11:19 3,3 °C 74 % 994,9 hPa 0,2 mm 3,4 km/h (1 Bft) O 90 ° 1 min 0,000 mm 2,4 UV-I 359 W/m² -0,9 °C 3,3 °C 9,7 km/h (2 Bft)
03.03.2018 11:20 3,3 °C 74 % 994,9 hPa 0,0 mm 7,1 km/h (2 Bft) O-NO 70 ° 1 min 0,000 mm 2,5 UV-I 373 W/m² -0,9 °C 1,4 °C 11,3 km/h (2 Bft)
03.03.2018 11:21 3,3 °C 73 % 994,9 hPa 0,0 mm 4,1 km/h (1 Bft) O 86 ° 1 min 0,000 mm 2,6 UV-I 376 W/m² -1,1 °C 3,3 °C 6,4 km/h (2 Bft)
03.03.2018 11:22 3,3 °C 73 % 994,9 hPa 0,0 mm 4,9 km/h (1 Bft) O 88 ° 1 min 0,000 mm 2,6 UV-I 383 W/m² -1,1 °C 2,2 °C 8,0 km/h (2 Bft)
03.03.2018 11:23 3,4 °C 73 % 994,8 hPa 0,0 mm 3,4 km/h (1 Bft) O 79 ° 1 min 0,000 mm 2,7 UV-I 417 W/m² -1,0 °C 3,4 °C 4,8 km/h (1 Bft)
03.03.2018 11:24 3,4 °C 73 % 994,8 hPa 0,0 mm 2,8 km/h (1 Bft) O 79 ° 1 min 0,000 mm 2,7 UV-I 410 W/m² -1,0 °C 3,4 °C 4,8 km/h (1 Bft)
03.03.2018 11:25 3,4 °C 73 % 994,8 hPa 0,0 mm 1,9 km/h (1 Bft) O 80 ° 1 min 0,000 mm 2,7 UV-I 441 W/m² -1,0 °C 3,4 °C 6,4 km/h (2 Bft)
03.03.2018 11:26 3,5 °C 73 % 994,7 hPa 0,0 mm 3,6 km/h (1 Bft) O-NO 78 ° 1 min 0,000 mm 2,8 UV-I 432 W/m² -0,9 °C 3,5 °C 6,4 km/h (2 Bft)
03.03.2018 11:27 3,5 °C 74 % 994,8 hPa 0,2 mm 2,1 km/h (1 Bft) O-NO 76 ° 1 min 0,000 mm 2,6 UV-I 390 W/m² -0,7 °C 3,5 °C 4,8 km/h (1 Bft)
03.03.2018 11:28 3,5 °C 73 % 994,8 hPa 0,0 mm 3,4 km/h (1 Bft) O-NO 76 ° 1 min 0,000 mm 2,8 UV-I 413 W/m² -0,9 °C 3,5 °C 4,8 km/h (1 Bft)
03.03.2018 11:29 3,5 °C 73 % 994,8 hPa 0,0 mm 2,7 km/h (1 Bft) O-NO 76 ° 1 min 0,000 mm 2,7 UV-I 408 W/m² -0,9 °C 3,5 °C 4,8 km/h (1 Bft)
03.03.2018 11:30 3,6 °C 73 % 994,7 hPa 0,0 mm 3,3 km/h (1 Bft) O-NO 78 ° 1 min 0,000 mm 2,7 UV-I 424 W/m² -0,8 °C 3,6 °C 4,8 km/h (1 Bft)
03.03.2018 11:31 3,6 °C 73 % 994,7 hPa 0,0 mm 2,9 km/h (1 Bft) O-NO 70 ° 1 min 0,000 mm 2,7 UV-I 401 W/m² -0,8 °C 3,6 °C 4,8 km/h (1 Bft)
03.03.2018 11:32 3,7 °C 73 % 994,7 hPa 0,0 mm 4,0 km/h (1 Bft) O-NO 57 ° 1 min 0,000 mm 2,8 UV-I 436 W/m² -0,7 °C 3,7 °C 6,4 km/h (2 Bft)
03.03.2018 11:33 3,8 °C 73 % 994,7 hPa 0,0 mm 4,4 km/h (1 Bft) O-NO 72 ° 1 min 0,000 mm 2,8 UV-I 439 W/m² -0,6 °C 3,8 °C 6,4 km/h (2 Bft)
03.03.2018 11:34 3,8 °C 72 % 994,7 hPa 0,0 mm 3,3 km/h (1 Bft) O-NO 72 ° 1 min 0,000 mm 2,7 UV-I 415 W/m² -0,8 °C 3,8 °C 4,8 km/h (1 Bft)
03.03.2018 11:35 3,8 °C 73 % 994,7 hPa 0,2 mm 3,5 km/h (1 Bft) N-NO 24 ° 1 min 0,000 mm 2,7 UV-I 410 W/m² -0,6 °C 3,8 °C 6,4 km/h (2 Bft)
03.03.2018 11:36 3,8 °C 72 % 994,7 hPa 0,0 mm 5,0 km/h (1 Bft) O 84 ° 1 min 0,000 mm 2,8 UV-I 478 W/m² -0,8 °C 2,7 °C 8,0 km/h (2 Bft)
03.03.2018 11:37 3,8 °C 72 % 994,6 hPa 0,0 mm 4,5 km/h (1 Bft) N-NO 21 ° 1 min 0,000 mm 3,1 UV-I 501 W/m² -0,8 °C 3,8 °C 8,0 km/h (2 Bft)
03.03.2018 11:38 3,8 °C 73 % 994,7 hPa 0,0 mm 1,9 km/h (1 Bft) N-NO 21 ° 1 min 0,000 mm 3,2 UV-I 501 W/m² -0,6 °C 3,8 °C 3,2 km/h (1 Bft)
03.03.2018 11:39 3,9 °C 72 % 994,6 hPa 0,0 mm 2,6 km/h (1 Bft) N-NO 21 ° 1 min 0,000 mm 3,0 UV-I 501 W/m² -0,7 °C 3,9 °C 4,8 km/h (1 Bft)
03.03.2018 11:40 3,9 °C 72 % 994,6 hPa 0,0 mm 4,0 km/h (1 Bft) NO 41 ° 1 min 0,000 mm 2,9 UV-I 473 W/m² -0,7 °C 3,9 °C 6,4 km/h (2 Bft)
03.03.2018 11:41 3,9 °C 72 % 994,6 hPa 0,0 mm 4,1 km/h (1 Bft) O-NO 64 ° 1 min 0,000 mm 2,9 UV-I 504 W/m² -0,7 °C 3,9 °C 6,4 km/h (2 Bft)
03.03.2018 11:42 3,9 °C 72 % 994,6 hPa 0,2 mm 3,6 km/h (1 Bft) O-NO 67 ° 1 min 0,000 mm 3,0 UV-I 557 W/m² -0,7 °C 3,9 °C 8,0 km/h (2 Bft)
03.03.2018 11:43 3,9 °C 72 % 994,6 hPa 0,0 mm 4,5 km/h (1 Bft) NO 56 ° 1 min 0,000 mm 2,8 UV-I 457 W/m² -0,7 °C 3,9 °C 6,4 km/h (2 Bft)
03.03.2018 11:44 3,9 °C 72 % 994,6 hPa 0,0 mm 5,4 km/h (1 Bft) O 81 ° 1 min 0,000 mm 3,2 UV-I 540 W/m² -0,7 °C 2,7 °C 6,4 km/h (2 Bft)
03.03.2018 11:45 3,9 °C 73 % 994,6 hPa 0,0 mm 4,1 km/h (1 Bft) NO 44 ° 1 min 0,000 mm 3,0 UV-I 471 W/m² -0,5 °C 3,9 °C 8,0 km/h (2 Bft)
03.03.2018 11:46 3,8 °C 72 % 994,6 hPa 0,0 mm 7,0 km/h (2 Bft) NO 55 ° 1 min 0,000 mm 3,0 UV-I 439 W/m² -0,8 °C 2,0 °C 8,0 km/h (2 Bft)
03.03.2018 11:47 3,8 °C 72 % 994,6 hPa 0,0 mm 5,2 km/h (1 Bft) O 80 ° 1 min 0,000 mm 3,0 UV-I 526 W/m² -0,8 °C 2,6 °C 6,4 km/h (2 Bft)
03.03.2018 11:48 3,9 °C 72 % 994,5 hPa 0,2 mm 3,5 km/h (1 Bft) O-NO 57 ° 1 min 0,000 mm 3,1 UV-I 504 W/m² -0,7 °C 3,9 °C 6,4 km/h (2 Bft)
03.03.2018 11:49 3,9 °C 72 % 994,6 hPa 0,0 mm 5,6 km/h (1 Bft) O 90 ° 1 min 0,000 mm 3,1 UV-I 497 W/m² -0,7 °C 2,6 °C 8,0 km/h (2 Bft)
03.03.2018 11:50 3,9 °C 72 % 994,5 hPa 0,0 mm 5,1 km/h (1 Bft) O-NO 59 ° 1 min 0,000 mm 3,1 UV-I 522 W/m² -0,7 °C 2,8 °C 8,0 km/h (2 Bft)
03.03.2018 11:51 3,9 °C 71 % 994,5 hPa 0,0 mm 5,0 km/h (1 Bft) O 91 ° 1 min 0,000 mm 3,1 UV-I 527 W/m² -0,9 °C 2,8 °C 9,7 km/h (2 Bft)
03.03.2018 11:52 3,9 °C 70 % 994,5 hPa 0,0 mm 7,5 km/h (2 Bft) O-NO 67 ° 1 min 0,000 mm 3,1 UV-I 554 W/m² -1,1 °C 2,0 °C 16,1 km/h (3 Bft)
03.03.2018 11:53 3,9 °C 71 % 994,6 hPa 0,2 mm 8,0 km/h (2 Bft) NO 48 ° 1 min 0,000 mm 3,2 UV-I 584 W/m² -0,9 °C 1,8 °C 11,3 km/h (2 Bft)
03.03.2018 11:54 3,9 °C 71 % 994,6 hPa 0,0 mm 5,9 km/h (2 Bft) O 90 ° 1 min 0,000 mm 3,3 UV-I 492 W/m² -0,9 °C 2,5 °C 9,7 km/h (2 Bft)
03.03.2018 11:55 3,9 °C 70 % 994,6 hPa 0,0 mm 5,3 km/h (1 Bft) O 83 ° 1 min 0,000 mm 3,2 UV-I 492 W/m² -1,1 °C 2,7 °C 12,9 km/h (3 Bft)
03.03.2018 11:56 3,9 °C 71 % 994,5 hPa 0,0 mm 8,5 km/h (2 Bft) NO 53 ° 1 min 0,000 mm 3,2 UV-I 573 W/m² -0,9 °C 1,7 °C 12,9 km/h (3 Bft)
03.03.2018 11:57 3,9 °C 70 % 994,6 hPa 0,0 mm 8,3 km/h (2 Bft) O 79 ° 1 min 0,000 mm 3,0 UV-I 524 W/m² -1,1 °C 1,8 °C 14,5 km/h (3 Bft)
03.03.2018 11:58 3,8 °C 70 % 994,6 hPa 0,2 mm 5,2 km/h (1 Bft) O-NO 59 ° 1 min 0,000 mm 2,8 UV-I 454 W/m² -1,2 °C 2,6 °C 11,3 km/h (2 Bft)
03.03.2018 11:59 3,8 °C 71 % 994,5 hPa 0,0 mm 6,9 km/h (2 Bft) O 82 ° 1 min 0,000 mm 2,7 UV-I 446 W/m² -1,0 °C 2,0 °C 12,9 km/h (3 Bft)
03.03.2018 12:00 3,8 °C 71 % 994,5 hPa 0,0 mm 7,2 km/h (2 Bft) O-NO 57 ° 1 min 0,178 mm 2,8 UV-I 461 W/m² -1,0 °C 2,0 °C 12,9 km/h (3 Bft)
03.03.2018 12:01 3,7 °C 71 % 994,5 hPa 0,0 mm 6,1 km/h (2 Bft) NO 38 ° 1 min 0,000 mm 3,0 UV-I 494 W/m² -1,1 °C 2,2 °C 8,0 km/h (2 Bft)
03.03.2018 12:02 3,7 °C 72 % 994,4 hPa 0,0 mm 4,8 km/h (1 Bft) O-NO 65 ° 1 min 0,000 mm 3,0 UV-I 527 W/m² -0,9 °C 2,7 °C 8,0 km/h (2 Bft)
03.03.2018 12:03 3,8 °C 71 % 994,4 hPa 0,0 mm 6,4 km/h (2 Bft) O-NO 65 ° 1 min 0,000 mm 2,9 UV-I 527 W/m² -1,0 °C 2,2 °C 8,0 km/h (2 Bft)
03.03.2018 12:04 3,7 °C 71 % 994,5 hPa 0,2 mm 3,9 km/h (1 Bft) O-NO 67 ° 1 min 0,000 mm 2,7 UV-I 439 W/m² -1,1 °C 3,7 °C 9,7 km/h (2 Bft)
03.03.2018 12:05 3,7 °C 72 % 994,5 hPa 0,0 mm 4,7 km/h (1 Bft) NO 53 ° 1 min 0,000 mm 2,6 UV-I 378 W/m² -0,9 °C 2,7 °C 8,0 km/h (2 Bft)
03.03.2018 12:06 3,7 °C 72 % 994,4 hPa 0,0 mm 4,7 km/h (1 Bft) NO 46 ° 1 min 0,000 mm 2,5 UV-I 376 W/m² -0,9 °C 2,7 °C 6,4 km/h (2 Bft)
03.03.2018 12:07 3,8 °C 72 % 994,5 hPa 0,0 mm 3,2 km/h (1 Bft) O 85 ° 1 min 0,000 mm 2,5 UV-I 362 W/m² -0,8 °C 3,8 °C 6,4 km/h (2 Bft)
03.03.2018 12:08 3,8 °C 72 % 994,4 hPa 0,2 mm 4,8 km/h (1 Bft) O-NO 57 ° 1 min 0,000 mm 2,7 UV-I 420 W/m² -0,8 °C 2,8 °C 6,4 km/h (2 Bft)
03.03.2018 12:09 3,8 °C 72 % 994,4 hPa 0,0 mm 7,5 km/h (2 Bft) NO 44 ° 1 min 0,000 mm 2,5 UV-I 373 W/m² -0,8 °C 1,9 °C 9,7 km/h (2 Bft)
03.03.2018 12:10 3,8 °C 72 % 994,4 hPa 0,0 mm 7,2 km/h (2 Bft) O 79 ° 1 min 0,000 mm 2,4 UV-I 355 W/m² -0,8 °C 2,0 °C 11,3 km/h (2 Bft)
03.03.2018 12:11 3,7 °C 72 % 994,4 hPa 0,0 mm 6,4 km/h (2 Bft) O-NO 66 ° 1 min 0,000 mm 2,3 UV-I 323 W/m² -0,9 °C 2,1 °C 8,0 km/h (2 Bft)
03.03.2018 12:12 3,7 °C 72 % 994,4 hPa 0,0 mm 7,1 km/h (2 Bft) O-NO 74 ° 1 min 0,000 mm 2,5 UV-I 369 W/m² -0,9 °C 1,9 °C 11,3 km/h (2 Bft)
03.03.2018 12:13 3,6 °C 72 % 994,4 hPa 0,0 mm 5,5 km/h (1 Bft) O 84 ° 1 min 0,000 mm 2,3 UV-I 302 W/m² -1,0 °C 2,3 °C 8,0 km/h (2 Bft)
03.03.2018 12:14 3,6 °C 72 % 994,3 hPa 0,0 mm 4,8 km/h (1 Bft) N-NO 30 ° 1 min 0,000 mm 2,4 UV-I 357 W/m² -1,0 °C 2,6 °C 6,4 km/h (2 Bft)
03.03.2018 12:15 3,5 °C 73 % 994,3 hPa 0,0 mm 4,0 km/h (1 Bft) O-NO 60 ° 1 min 0,000 mm 2,3 UV-I 325 W/m² -0,9 °C 3,5 °C 6,4 km/h (2 Bft)
03.03.2018 12:16 3,5 °C 73 % 994,2 hPa 0,2 mm 4,4 km/h (1 Bft) O-NO 74 ° 1 min 0,000 mm 2,4 UV-I 327 W/m² -0,9 °C 3,5 °C 6,4 km/h (2 Bft)
03.03.2018 12:17 3,5 °C 73 % 994,2 hPa 0,0 mm 6,0 km/h (2 Bft) O 86 ° 1 min 0,000 mm 2,5 UV-I 336 W/m² -0,9 °C 2,0 °C 8,0 km/h (2 Bft)
03.03.2018 12:18 3,4 °C 73 % 994,2 hPa 0,0 mm 7,1 km/h (2 Bft) O-NO 73 ° 1 min 0,000 mm 2,3 UV-I 315 W/m² -1,0 °C 1,5 °C 11,3 km/h (2 Bft)
03.03.2018 12:19 3,4 °C 72 % 994,2 hPa 0,0 mm 3,6 km/h (1 Bft) O-NO 74 ° 1 min 0,000 mm 2,6 UV-I 399 W/m² -1,2 °C 3,4 °C 4,8 km/h (1 Bft)
03.03.2018 12:20 3,4 °C 73 % 994,2 hPa 0,0 mm 3,1 km/h (1 Bft) NO 55 ° 1 min 0,000 mm 2,6 UV-I 415 W/m² -1,0 °C 3,4 °C 4,8 km/h (1 Bft)
03.03.2018 12:21 3,4 °C 73 % 994,2 hPa 0,0 mm 2,9 km/h (1 Bft) NO 54 ° 1 min 0,000 mm 2,6 UV-I 415 W/m² -1,0 °C 3,4 °C 4,8 km/h (1 Bft)
03.03.2018 12:22 3,4 °C 73 % 994,1 hPa 0,0 mm 4,5 km/h (1 Bft) O-NO 63 ° 1 min 0,000 mm 2,4 UV-I 338 W/m² -1,0 °C 3,4 °C 6,4 km/h (2 Bft)
03.03.2018 12:23 3,4 °C 73 % 994,1 hPa 0,0 mm 6,3 km/h (2 Bft) O 83 ° 1 min 0,000 mm 2,3 UV-I 380 W/m² -1,0 °C 1,8 °C 9,7 km/h (2 Bft)
03.03.2018 12:24 3,4 °C 73 % 994,2 hPa 0,2 mm 4,2 km/h (1 Bft) O-NO 67 ° 1 min 0,000 mm 2,6 UV-I 348 W/m² -1,0 °C 3,4 °C 6,4 km/h (2 Bft)
03.03.2018 12:25 3,3 °C 72 % 994,2 hPa 0,0 mm 2,0 km/h (1 Bft) O-NO 65 ° 1 min 0,000 mm 2,4 UV-I 332 W/m² -1,3 °C 3,3 °C 4,8 km/h (1 Bft)
03.03.2018 12:26 3,3 °C 73 % 994,1 hPa 0,0 mm 4,9 km/h (1 Bft) N-NO 30 ° 1 min 0,000 mm 2,4 UV-I 325 W/m² -1,1 °C 2,2 °C 9,7 km/h (2 Bft)
03.03.2018 12:27 3,4 °C 73 % 994,2 hPa 0,0 mm 2,9 km/h (1 Bft) NO 46 ° 1 min 0,000 mm 2,5 UV-I 359 W/m² -1,0 °C 3,4 °C 6,4 km/h (2 Bft)
03.03.2018 12:28 3,4 °C 73 % 994,1 hPa 0,0 mm 3,8 km/h (1 Bft) O 81 ° 1 min 0,000 mm 2,6 UV-I 397 W/m² -1,0 °C 3,4 °C 6,4 km/h (2 Bft)
03.03.2018 12:29 3,4 °C 73 % 994,1 hPa 0,0 mm 8,3 km/h (2 Bft) O 86 ° 1 min 0,000 mm 2,6 UV-I 417 W/m² -1,0 °C 1,2 °C 12,9 km/h (3 Bft)
03.03.2018 12:30 3,3 °C 73 % 994,1 hPa 0,0 mm 4,6 km/h (1 Bft) O-NO 69 ° 1 min 0,000 mm 2,9 UV-I 478 W/m² -1,1 °C 2,3 °C 6,4 km/h (2 Bft)
03.03.2018 12:31 3,3 °C 73 % 994,1 hPa 0,0 mm 4,2 km/h (1 Bft) O 88 ° 1 min 0,000 mm 3,0 UV-I 503 W/m² -1,1 °C 3,3 °C 4,8 km/h (1 Bft)
03.03.2018 12:32 3,4 °C 73 % 994,0 hPa 0,0 mm 4,3 km/h (1 Bft) O-NO 58 ° 1 min 0,000 mm 3,0 UV-I 526 W/m² -1,0 °C 3,4 °C 6,4 km/h (2 Bft)
03.03.2018 12:33 3,4 °C 73 % 994,1 hPa 0,2 mm 6,9 km/h (2 Bft) NO 48 ° 1 min 0,000 mm 3,1 UV-I 536 W/m² -1,0 °C 1,6 °C 11,3 km/h (2 Bft)
03.03.2018 12:34 3,4 °C 72 % 994,1 hPa 0,0 mm 4,7 km/h (1 Bft) O-NO 74 ° 1 min 0,000 mm 3,2 UV-I 547 W/m² -1,2 °C 2,4 °C 8,0 km/h (2 Bft)
03.03.2018 12:35 3,5 °C 73 % 994,1 hPa 0,0 mm 3,2 km/h (1 Bft) O-NO 58 ° 1 min 0,000 mm 2,7 UV-I 464 W/m² -0,9 °C 3,5 °C 4,8 km/h (1 Bft)
03.03.2018 12:36 3,5 °C 73 % 994,1 hPa 0,0 mm 6,0 km/h (2 Bft) NO 46 ° 1 min 0,000 mm 2,5 UV-I 464 W/m² -0,9 °C 2,0 °C 8,0 km/h (2 Bft)
03.03.2018 12:37 3,4 °C 72 % 994,1 hPa 0,0 mm 7,4 km/h (2 Bft) NO 55 ° 1 min 0,000 mm 2,4 UV-I 322 W/m² -1,2 °C 1,4 °C 11,3 km/h (2 Bft)
03.03.2018 12:38 3,4 °C 72 % 994,1 hPa 0,0 mm 6,8 km/h (2 Bft) NO 44 ° 1 min 0,000 mm 2,4 UV-I 322 W/m² -1,2 °C 1,6 °C 9,7 km/h (2 Bft)
03.03.2018 12:39 3,4 °C 72 % 994,1 hPa 0,0 mm 6,2 km/h (2 Bft) O-NO 66 ° 1 min 0,000 mm 2,6 UV-I 322 W/m² -1,2 °C 1,8 °C 9,7 km/h (2 Bft)
03.03.2018 12:40 3,4 °C 72 % 994,1 hPa 0,2 mm 5,2 km/h (1 Bft) N-NO 32 ° 1 min 0,000 mm 2,4 UV-I 318 W/m² -1,2 °C 2,2 °C 6,4 km/h (2 Bft)
03.03.2018 12:41 3,4 °C 72 % 994,1 hPa 0,0 mm 4,0 km/h (1 Bft) O-NO 67 ° 1 min 0,000 mm 2,5 UV-I 394 W/m² -1,2 °C 3,4 °C 6,4 km/h (2 Bft)
03.03.2018 12:42 3,4 °C 72 % 994,1 hPa 0,0 mm 6,2 km/h (2 Bft) O-NO 62 ° 1 min 0,000 mm 2,5 UV-I 366 W/m² -1,2 °C 1,8 °C 12,9 km/h (3 Bft)
03.03.2018 12:43 3,4 °C 72 % 994,1 hPa 0,0 mm 7,2 km/h (2 Bft) NO 35 ° 1 min 0,000 mm 2,3 UV-I 348 W/m² -1,2 °C 1,5 °C 9,7 km/h (2 Bft)
03.03.2018 12:44 3,3 °C 72 % 994,1 hPa 0,0 mm 5,6 km/h (1 Bft) NO 49 ° 0 min 0,000 mm 2,2 UV-I 279 W/m² -1,3 °C 1,9 °C 11,3 km/h (2 Bft)
03.03.2018 12:45 3,3 °C 72 % 994,1 hPa 0,0 mm 6,5 km/h (2 Bft) O-NO 74 ° 1 min 0,000 mm 2,2 UV-I 292 W/m² -1,3 °C 1,6 °C 9,7 km/h (2 Bft)
03.03.2018 12:46 3,3 °C 72 % 994,1 hPa 0,0 mm 8,8 km/h (2 Bft) O 86 ° 1 min 0,000 mm 2,3 UV-I 334 W/m² -1,3 °C 0,9 °C 12,9 km/h (3 Bft)
03.03.2018 12:47 3,3 °C 73 % 994,1 hPa 0,0 mm 6,5 km/h (2 Bft) O-NO 71 ° 1 min 0,000 mm 2,9 UV-I 429 W/m² -1,1 °C 1,6 °C 14,5 km/h (3 Bft)
03.03.2018 12:48 3,3 °C 72 % 994,1 hPa 0,0 mm 5,7 km/h (1 Bft) O-NO 78 ° 1 min 0,000 mm 2,9 UV-I 506 W/m² -1,3 °C 1,9 °C 11,3 km/h (2 Bft)
03.03.2018 12:49 3,3 °C 73 % 994,2 hPa 0,0 mm 6,9 km/h (2 Bft) O-NO 70 ° 1 min 0,000 mm 2,8 UV-I 485 W/m² -1,1 °C 1,5 °C 9,7 km/h (2 Bft)
03.03.2018 12:50 3,4 °C 73 % 994,2 hPa 0,0 mm 4,8 km/h (1 Bft) NO 35 ° 1 min 0,000 mm 2,7 UV-I 413 W/m² -1,0 °C 2,4 °C 6,4 km/h (2 Bft)
03.03.2018 12:51 3,4 °C 73 % 994,3 hPa 0,2 mm 4,0 km/h (1 Bft) O-NO 62 ° 1 min 0,000 mm 2,7 UV-I 397 W/m² -1,0 °C 3,4 °C 6,4 km/h (2 Bft)
03.03.2018 12:52 3,4 °C 73 % 994,3 hPa 0,0 mm 5,2 km/h (1 Bft) O-NO 70 ° 1 min 0,000 mm 2,9 UV-I 485 W/m² -1,0 °C 2,2 °C 11,3 km/h (2 Bft)
03.03.2018 12:53 3,5 °C 72 % 994,3 hPa 0,0 mm 6,0 km/h (2 Bft) N-NO 30 ° 1 min 0,000 mm 3,2 UV-I 548 W/m² -1,1 °C 2,0 °C 8,0 km/h (2 Bft)
03.03.2018 12:54 3,5 °C 72 % 994,3 hPa 0,0 mm 6,0 km/h (2 Bft) NO 55 ° 1 min 0,000 mm 3,3 UV-I 601 W/m² -1,1 °C 2,0 °C 8,0 km/h (2 Bft)
03.03.2018 12:55 3,6 °C 72 % 994,3 hPa 0,0 mm 3,4 km/h (1 Bft) O 79 ° 1 min 0,000 mm 3,3 UV-I 592 W/m² -1,0 °C 3,6 °C 6,4 km/h (2 Bft)
03.03.2018 12:56 3,6 °C 72 % 994,3 hPa 0,0 mm 4,3 km/h (1 Bft) O 84 ° 1 min 0,000 mm 3,3 UV-I 573 W/m² -1,0 °C 3,6 °C 6,4 km/h (2 Bft)
03.03.2018 12:57 3,7 °C 71 % 994,3 hPa 0,0 mm 6,3 km/h (2 Bft) NO 41 ° 1 min 0,000 mm 3,4 UV-I 573 W/m² -1,1 °C 2,1 °C 8,0 km/h (2 Bft)
03.03.2018 12:58 3,8 °C 71 % 994,3 hPa 0,0 mm 7,8 km/h (2 Bft) NO 46 ° 1 min 0,000 mm 3,5 UV-I 643 W/m² -1,0 °C 1,8 °C 9,7 km/h (2 Bft)
03.03.2018 12:59 3,8 °C 71 % 994,3 hPa 0,0 mm 4,4 km/h (1 Bft) O-NO 69 ° 1 min 0,000 mm 3,4 UV-I 633 W/m² -1,0 °C 3,8 °C 6,4 km/h (2 Bft)
03.03.2018 13:00 3,8 °C 70 % 994,4 hPa 0,2 mm 5,4 km/h (1 Bft) O-NO 62 ° 1 min 0,000 mm 3,4 UV-I 587 W/m² -1,2 °C 2,6 °C 9,7 km/h (2 Bft)
03.03.2018 13:01 3,8 °C 71 % 994,3 hPa 0,0 mm 8,2 km/h (2 Bft) NO 53 ° 1 min 0,177 mm 3,4 UV-I 617 W/m² -1,0 °C 1,7 °C 11,3 km/h (2 Bft)
03.03.2018 13:02 3,8 °C 71 % 994,3 hPa 0,0 mm 4,7 km/h (1 Bft) NO 38 ° 1 min 0,000 mm 3,4 UV-I 629 W/m² -1,0 °C 2,8 °C 6,4 km/h (2 Bft)
03.03.2018 13:03 3,8 °C 71 % 994,2 hPa 0,0 mm 6,1 km/h (2 Bft) O-NO 61 ° 1 min 0,000 mm 3,3 UV-I 571 W/m² -1,0 °C 2,3 °C 8,0 km/h (2 Bft)
03.03.2018 13:04 3,8 °C 71 % 994,3 hPa 0,0 mm 6,1 km/h (2 Bft) O-NO 59 ° 1 min 0,000 mm 3,2 UV-I 573 W/m² -1,0 °C 2,3 °C 9,7 km/h (2 Bft)
03.03.2018 13:05 3,9 °C 71 % 994,2 hPa 0,0 mm 5,2 km/h (1 Bft) O-NO 69 ° 1 min 0,000 mm 3,2 UV-I 580 W/m² -0,9 °C 2,8 °C 8,0 km/h (2 Bft)
03.03.2018 13:06 3,9 °C 71 % 994,2 hPa 0,0 mm 6,2 km/h (2 Bft) NO 38 ° 1 min 0,000 mm 3,2 UV-I 599 W/m² -0,9 °C 2,4 °C 16,1 km/h (3 Bft)
03.03.2018 13:07 3,9 °C 71 % 994,2 hPa 0,2 mm 6,8 km/h (2 Bft) O-NO 72 ° 1 min 0,000 mm 3,0 UV-I 527 W/m² -0,9 °C 2,2 °C 9,7 km/h (2 Bft)
03.03.2018 13:08 3,8 °C 71 % 994,2 hPa 0,0 mm 6,0 km/h (2 Bft) N-NO 30 ° 1 min 0,000 mm 2,7 UV-I 483 W/m² -1,0 °C 2,3 °C 9,7 km/h (2 Bft)
03.03.2018 13:09 3,8 °C 70 % 994,3 hPa 0,0 mm 6,0 km/h (2 Bft) O-NO 71 ° 1 min 0,000 mm 2,8 UV-I 461 W/m² -1,2 °C 2,3 °C 8,0 km/h (2 Bft)
03.03.2018 13:10 3,8 °C 71 % 994,2 hPa 0,0 mm 7,8 km/h (2 Bft) O 91 ° 1 min 0,000 mm 2,7 UV-I 413 W/m² -1,0 °C 1,8 °C 9,7 km/h (2 Bft)
03.03.2018 13:11 3,7 °C 71 % 994,2 hPa 0,0 mm 6,0 km/h (2 Bft) N-NO 28 ° 1 min 0,000 mm 3,1 UV-I 413 W/m² -1,1 °C 2,2 °C 8,0 km/h (2 Bft)
03.03.2018 13:12 3,8 °C 71 % 994,3 hPa 0,0 mm 6,0 km/h (2 Bft) N 11 ° 1 min 0,000 mm 2,8 UV-I 413 W/m² -1,0 °C 2,3 °C 8,0 km/h (2 Bft)
03.03.2018 13:13 3,8 °C 71 % 994,3 hPa 0,0 mm 5,7 km/h (1 Bft) N-NO 20 ° 1 min 0,000 mm 2,5 UV-I 404 W/m² -1,0 °C 2,5 °C 8,0 km/h (2 Bft)
03.03.2018 13:14 3,8 °C 71 % 994,3 hPa 0,0 mm 2,5 km/h (1 Bft) N-NO 20 ° 1 min 0,000 mm 2,7 UV-I 411 W/m² -1,0 °C 3,8 °C 6,4 km/h (2 Bft)
03.03.2018 13:15 3,9 °C 72 % 994,3 hPa 0,2 mm 2,7 km/h (1 Bft) N-NO 13 ° 1 min 0,000 mm 2,7 UV-I 411 W/m² -0,7 °C 3,9 °C 4,8 km/h (1 Bft)
03.03.2018 13:16 3,9 °C 72 % 994,3 hPa 0,0 mm 3,5 km/h (1 Bft) N-NO 13 ° 1 min 0,000 mm 3,0 UV-I 411 W/m² -0,7 °C 3,9 °C 4,8 km/h (1 Bft)
03.03.2018 13:17 4,0 °C 72 % 994,3 hPa 0,0 mm 4,2 km/h (1 Bft) O 95 ° 1 min 0,000 mm 2,8 UV-I 411 W/m² -0,6 °C 4,0 °C 9,7 km/h (2 Bft)
03.03.2018 13:18 3,9 °C 72 % 994,3 hPa 0,0 mm 9,6 km/h (2 Bft) NO 35 ° 1 min 0,000 mm 2,8 UV-I 471 W/m² -0,7 °C 1,4 °C 14,5 km/h (3 Bft)
03.03.2018 13:19 3,9 °C 71 % 994,4 hPa 0,0 mm 3,6 km/h (1 Bft) NO 44 ° 1 min 0,000 mm 3,0 UV-I 538 W/m² -0,9 °C 3,9 °C 6,4 km/h (2 Bft)
03.03.2018 13:20 3,8 °C 71 % 994,4 hPa 0,0 mm 6,5 km/h (2 Bft) NO 36 ° 1 min 0,000 mm 3,1 UV-I 585 W/m² -1,0 °C 2,2 °C 9,7 km/h (2 Bft)
03.03.2018 13:21 3,9 °C 71 % 994,4 hPa 0,0 mm 6,6 km/h (2 Bft) O-NO 59 ° 1 min 0,000 mm 3,4 UV-I 585 W/m² -0,9 °C 2,3 °C 9,7 km/h (2 Bft)
03.03.2018 13:22 3,8 °C 71 % 994,4 hPa 0,0 mm 4,1 km/h (1 Bft) O-NO 71 ° 1 min 0,000 mm 2,7 UV-I 436 W/m² -1,0 °C 3,8 °C 6,4 km/h (2 Bft)
03.03.2018 13:23 3,8 °C 71 % 994,4 hPa 0,2 mm 5,8 km/h (2 Bft) NO 35 ° 1 min 0,000 mm 2,8 UV-I 438 W/m² -1,0 °C 2,4 °C 8,0 km/h (2 Bft)
03.03.2018 13:24 3,8 °C 72 % 994,4 hPa 0,0 mm 4,4 km/h (1 Bft) N 9 ° 1 min 0,000 mm 2,8 UV-I 468 W/m² -0,8 °C 3,8 °C 6,4 km/h (2 Bft)
03.03.2018 13:25 3,9 °C 72 % 994,4 hPa 0,0 mm 3,8 km/h (1 Bft) N 9 ° 1 min 0,000 mm 2,6 UV-I 431 W/m² -0,7 °C 3,9 °C 6,4 km/h (2 Bft)
03.03.2018 13:26 3,9 °C 72 % 994,4 hPa 0,0 mm 7,6 km/h (2 Bft) N 5 ° 1 min 0,000 mm 2,5 UV-I 394 W/m² -0,7 °C 2,0 °C 12,9 km/h (3 Bft)
03.03.2018 13:27 4,0 °C 72 % 994,4 hPa 0,0 mm 6,2 km/h (2 Bft) N-NO 29 ° 1 min 0,000 mm 2,5 UV-I 374 W/m² -0,6 °C 2,5 °C 12,9 km/h (3 Bft)
03.03.2018 13:28 4,0 °C 71 % 994,4 hPa 0,0 mm 4,9 km/h (1 Bft) NO 55 ° 1 min 0,000 mm 2,6 UV-I 380 W/m² -0,8 °C 3,0 °C 8,0 km/h (2 Bft)
03.03.2018 13:29 4,0 °C 71 % 994,5 hPa 0,0 mm 2,7 km/h (1 Bft) N-NO 27 ° 1 min 0,000 mm 2,5 UV-I 381 W/m² -0,8 °C 4,0 °C 4,8 km/h (1 Bft)
03.03.2018 13:30 4,0 °C 72 % 994,5 hPa 0,0 mm 3,4 km/h (1 Bft) N-NO 12 ° 1 min 0,000 mm 2,6 UV-I 376 W/m² -0,6 °C 4,0 °C 4,8 km/h (1 Bft)
03.03.2018 13:31 4,1 °C 71 % 994,5 hPa 0,2 mm 0,1 km/h (0 Bft) N-NO 12 ° 1 min 0,000 mm 2,6 UV-I 404 W/m² -0,7 °C 4,1 °C 1,6 km/h (1 Bft)
03.03.2018 13:32 4,1 °C 71 % 994,5 hPa 0,0 mm 2,7 km/h (1 Bft) N-NO 12 ° 1 min 0,000 mm 2,7 UV-I 434 W/m² -0,7 °C 4,1 °C 6,4 km/h (2 Bft)
03.03.2018 13:33 4,1 °C 71 % 994,5 hPa 0,0 mm 7,8 km/h (2 Bft) N 9 ° 1 min 0,000 mm 2,7 UV-I 450 W/m² -0,7 °C 2,1 °C 11,3 km/h (2 Bft)
03.03.2018 13:34 4,1 °C 71 % 994,5 hPa 0,0 mm 4,2 km/h (1 Bft) NO 53 ° 1 min 0,000 mm 2,6 UV-I 415 W/m² -0,7 °C 4,1 °C 8,0 km/h (2 Bft)
03.03.2018 13:35 4,1 °C 71 % 994,6 hPa 0,0 mm 3,6 km/h (1 Bft) N 11 ° 1 min 0,000 mm 2,7 UV-I 450 W/m² -0,7 °C 4,1 °C 4,8 km/h (1 Bft)
03.03.2018 13:36 4,1 °C 72 % 994,6 hPa 0,0 mm 4,1 km/h (1 Bft) NO 44 ° 1 min 0,000 mm 2,7 UV-I 469 W/m² -0,5 °C 4,1 °C 6,4 km/h (2 Bft)
03.03.2018 13:37 4,1 °C 72 % 994,6 hPa 0,0 mm 5,1 km/h (1 Bft) N-NO 27 ° 1 min 0,000 mm 2,9 UV-I 485 W/m² -0,5 °C 3,0 °C 6,4 km/h (2 Bft)
03.03.2018 13:38 4,2 °C 72 % 994,5 hPa 0,0 mm 6,0 km/h (2 Bft) N-NO 30 ° 1 min 0,000 mm 2,9 UV-I 527 W/m² -0,4 °C 2,8 °C 6,4 km/h (2 Bft)
03.03.2018 13:39 4,2 °C 72 % 994,6 hPa 0,0 mm 5,9 km/h (2 Bft) NO 48 ° 1 min 0,000 mm 2,9 UV-I 475 W/m² -0,4 °C 2,8 °C 8,0 km/h (2 Bft)
03.03.2018 13:40 4,1 °C 72 % 994,6 hPa 0,2 mm 7,0 km/h (2 Bft) NO 35 ° 1 min 0,000 mm 2,3 UV-I 475 W/m² -0,5 °C 2,4 °C 9,7 km/h (2 Bft)
03.03.2018 13:41 4,0 °C 72 % 994,6 hPa 0,0 mm 2,8 km/h (1 Bft) N-NO 32 ° 1 min 0,000 mm 2,2 UV-I 329 W/m² -0,6 °C 4,0 °C 4,8 km/h (1 Bft)
03.03.2018 13:42 3,9 °C 73 % 994,5 hPa 0,0 mm 1,7 km/h (1 Bft) N-NO 22 ° 1 min 0,000 mm 2,1 UV-I 311 W/m² -0,5 °C 3,9 °C 4,8 km/h (1 Bft)
03.03.2018 13:43 3,9 °C 74 % 994,6 hPa 0,0 mm 2,4 km/h (1 Bft) N 10 ° 1 min 0,000 mm 2,2 UV-I 306 W/m² -0,3 °C 3,9 °C 4,8 km/h (1 Bft)
03.03.2018 13:44 3,9 °C 74 % 994,5 hPa 0,0 mm 2,3 km/h (1 Bft) N 10 ° 1 min 0,000 mm 2,2 UV-I 401 W/m² -0,3 °C 3,9 °C 4,8 km/h (1 Bft)
03.03.2018 13:45 4,0 °C 74 % 994,6 hPa 0,0 mm 2,3 km/h (1 Bft) NW 319 ° 1 min 0,000 mm 2,9 UV-I 571 W/m² -0,2 °C 4,0 °C 4,8 km/h (1 Bft)
03.03.2018 13:46 4,1 °C 74 % 994,6 hPa 0,0 mm 5,4 km/h (1 Bft) N 10 ° 1 min 0,000 mm 2,6 UV-I 510 W/m² -0,1 °C 2,9 °C 11,3 km/h (2 Bft)
03.03.2018 13:47 4,1 °C 74 % 994,6 hPa 0,0 mm 3,7 km/h (1 Bft) N 9 ° 1 min 0,000 mm 2,5 UV-I 411 W/m² -0,1 °C 4,1 °C 8,0 km/h (2 Bft)
03.03.2018 13:48 4,1 °C 74 % 994,6 hPa 0,0 mm 1,9 km/h (1 Bft) N 9 ° 1 min 0,000 mm 2,5 UV-I 422 W/m² -0,1 °C 4,1 °C 3,2 km/h (1 Bft)
03.03.2018 13:49 4,1 °C 73 % 994,6 hPa 0,2 mm 3,0 km/h (1 Bft) NO 39 ° 1 min 0,000 mm 2,5 UV-I 388 W/m² -0,3 °C 4,1 °C 4,8 km/h (1 Bft)
03.03.2018 13:50 4,0 °C 73 % 994,6 hPa 0,0 mm 1,5 km/h (1 Bft) NO 39 ° 1 min 0,000 mm 2,3 UV-I 422 W/m² -0,4 °C 4,0 °C 3,2 km/h (1 Bft)
03.03.2018 13:51 4,1 °C 73 % 994,6 hPa 0,0 mm 5,7 km/h (1 Bft) N-NW 348 ° 1 min 0,000 mm 2,6 UV-I 436 W/m² -0,3 °C 2,8 °C 8,0 km/h (2 Bft)
03.03.2018 13:52 4,1 °C 74 % 994,7 hPa 0,0 mm 5,0 km/h (1 Bft) NO 34 ° 1 min 0,000 mm 2,8 UV-I 464 W/m² -0,1 °C 3,1 °C 8,0 km/h (2 Bft)
03.03.2018 13:53 4,1 °C 74 % 994,8 hPa 0,0 mm 7,2 km/h (2 Bft) NO 41 ° 1 min 0,000 mm 2,6 UV-I 464 W/m² -0,1 °C 2,3 °C 9,7 km/h (2 Bft)
03.03.2018 13:54 4,0 °C 74 % 994,7 hPa 0,0 mm 6,5 km/h (2 Bft) N-NO 20 ° 1 min 0,000 mm 2,6 UV-I 401 W/m² -0,2 °C 2,4 °C 8,0 km/h (2 Bft)
03.03.2018 13:55 3,9 °C 74 % 994,8 hPa 0,0 mm 5,8 km/h (2 Bft) NO 47 ° 1 min 0,000 mm 2,6 UV-I 446 W/m² -0,3 °C 2,5 °C 8,0 km/h (2 Bft)
03.03.2018 13:56 3,9 °C 74 % 994,8 hPa 0,0 mm 5,2 km/h (1 Bft) NO 47 ° 1 min 0,000 mm 2,4 UV-I 425 W/m² -0,3 °C 2,8 °C 6,4 km/h (2 Bft)
03.03.2018 13:57 3,9 °C 74 % 994,8 hPa 0,0 mm 4,7 km/h (1 Bft) NO 47 ° 1 min 0,000 mm 2,2 UV-I 385 W/m² -0,3 °C 3,0 °C 6,4 km/h (2 Bft)
03.03.2018 13:58 3,9 °C 73 % 994,8 hPa 0,2 mm 4,6 km/h (1 Bft) NO 42 ° 1 min 0,000 mm 2,1 UV-I 313 W/m² -0,5 °C 3,0 °C 8,0 km/h (2 Bft)
03.03.2018 13:59 3,9 °C 74 % 994,8 hPa 0,0 mm 5,4 km/h (1 Bft) N-NO 25 ° 1 min 0,000 mm 2,1 UV-I 302 W/m² -0,3 °C 2,7 °C 8,0 km/h (2 Bft)
03.03.2018 14:00 3,9 °C 74 % 994,7 hPa 0,0 mm 2,6 km/h (1 Bft) NO 44 ° 1 min 0,000 mm 2,2 UV-I 341 W/m² -0,3 °C 3,9 °C 4,8 km/h (1 Bft)
03.03.2018 14:01 3,8 °C 74 % 994,8 hPa 0,0 mm 3,2 km/h (1 Bft) N-NO 19 ° 1 min 0,178 mm 2,1 UV-I 334 W/m² -0,4 °C 3,8 °C 6,4 km/h (2 Bft)
03.03.2018 14:02 3,9 °C 75 % 994,8 hPa 0,0 mm 0,8 km/h (0 Bft) N-NO 19 ° 1 min 0,000 mm 2,2 UV-I 362 W/m² -0,1 °C 3,9 °C 3,2 km/h (1 Bft)
03.03.2018 14:03 3,9 °C 75 % 994,7 hPa 0,0 mm 3,2 km/h (1 Bft) N-NO 13 ° 1 min 0,000 mm 2,2 UV-I 359 W/m² -0,1 °C 3,9 °C 6,4 km/h (2 Bft)
03.03.2018 14:04 3,9 °C 74 % 994,7 hPa 0,0 mm 3,2 km/h (1 Bft) N-NO 13 ° 1 min 0,000 mm 2,3 UV-I 415 W/m² -0,3 °C 3,9 °C 4,8 km/h (1 Bft)
03.03.2018 14:05 3,9 °C 74 % 994,7 hPa 0,0 mm 3,3 km/h (1 Bft) NO 47 ° 1 min 0,000 mm 2,3 UV-I 397 W/m² -0,3 °C 3,9 °C 4,8 km/h (1 Bft)
03.03.2018 14:06 4,0 °C 74 % 994,7 hPa 0,2 mm 6,4 km/h (2 Bft) N 5 ° 1 min 0,000 mm 2,2 UV-I 397 W/m² -0,2 °C 2,4 °C 9,7 km/h (2 Bft)
03.03.2018 14:07 4,0 °C 74 % 994,7 hPa 0,0 mm 6,2 km/h (2 Bft) NO 52 ° 1 min 0,000 mm 2,0 UV-I 323 W/m² -0,2 °C 2,5 °C 8,0 km/h (2 Bft)
03.03.2018 14:08 4,0 °C 74 % 994,7 hPa 0,0 mm 5,1 km/h (1 Bft) NO 40 ° 0 min 0,000 mm 1,9 UV-I 287 W/m² -0,2 °C 2,9 °C 6,4 km/h (2 Bft)
03.03.2018 14:09 3,9 °C 74 % 994,7 hPa 0,0 mm 3,1 km/h (1 Bft) NO 40 ° 0 min 0,000 mm 1,8 UV-I 260 W/m² -0,3 °C 3,9 °C 4,8 km/h (1 Bft)
03.03.2018 14:10 3,9 °C 74 % 994,7 hPa 0,0 mm 2,1 km/h (1 Bft) N 5 ° 0 min 0,000 mm 1,8 UV-I 253 W/m² -0,3 °C 3,9 °C 4,8 km/h (1 Bft)
03.03.2018 14:11 3,9 °C 75 % 994,8 hPa 0,0 mm 4,0 km/h (1 Bft) N-NO 22 ° 0 min 0,000 mm 1,8 UV-I 251 W/m² -0,1 °C 3,9 °C 6,4 km/h (2 Bft)
03.03.2018 14:12 3,9 °C 74 % 994,8 hPa 0,0 mm 3,5 km/h (1 Bft) N 11 ° 0 min 0,000 mm 1,8 UV-I 251 W/m² -0,3 °C 3,9 °C 6,4 km/h (2 Bft)
03.03.2018 14:13 3,9 °C 74 % 994,7 hPa 0,0 mm 0,3 km/h (0 Bft) N 11 ° 0 min 0,000 mm 1,8 UV-I 251 W/m² -0,3 °C 3,9 °C 1,6 km/h (1 Bft)
03.03.2018 14:14 3,9 °C 75 % 994,8 hPa 0,0 mm 0,1 km/h (0 Bft) N 11 ° 0 min 0,000 mm 1,8 UV-I 258 W/m² -0,1 °C 3,9 °C 1,6 km/h (1 Bft)
03.03.2018 14:15 3,9 °C 73 % 994,7 hPa 0,0 mm 0,6 km/h (0 Bft) N-NO 14 ° 0 min 0,000 mm 1,7 UV-I 251 W/m² -0,5 °C 3,9 °C 3,2 km/h (1 Bft)
03.03.2018 14:16 4,0 °C 74 % 994,8 hPa 0,0 mm 2,4 km/h (1 Bft) O-NO 63 ° 0 min 0,000 mm 1,7 UV-I 243 W/m² -0,2 °C 4,0 °C 4,8 km/h (1 Bft)
03.03.2018 14:17 4,0 °C 73 % 994,7 hPa 0,2 mm 3,4 km/h (1 Bft) O 82 ° 0 min 0,000 mm 1,7 UV-I 237 W/m² -0,4 °C 4,0 °C 6,4 km/h (2 Bft)
03.03.2018 14:18 3,9 °C 73 % 994,7 hPa 0,0 mm 3,0 km/h (1 Bft) O 82 ° 0 min 0,000 mm 1,7 UV-I 237 W/m² -0,5 °C 3,9 °C 6,4 km/h (2 Bft)
03.03.2018 14:19 4,0 °C 73 % 994,8 hPa 0,0 mm 1,6 km/h (1 Bft) O 82 ° 0 min 0,000 mm 1,7 UV-I 244 W/m² -0,4 °C 4,0 °C 4,8 km/h (1 Bft)
03.03.2018 14:20 3,9 °C 73 % 994,8 hPa 0,0 mm 4,2 km/h (1 Bft) O-NO 71 ° 0 min 0,000 mm 1,7 UV-I 246 W/m² -0,5 °C 3,9 °C 4,8 km/h (1 Bft)
03.03.2018 14:21 3,9 °C 74 % 994,8 hPa 0,0 mm 3,5 km/h (1 Bft) O-NO 71 ° 0 min 0,000 mm 1,7 UV-I 243 W/m² -0,3 °C 3,9 °C 4,8 km/h (1 Bft)
03.03.2018 14:22 3,9 °C 73 % 994,8 hPa 0,0 mm 2,9 km/h (1 Bft) O-NO 71 ° 0 min 0,000 mm 1,6 UV-I 234 W/m² -0,5 °C 3,9 °C 4,8 km/h (1 Bft)
03.03.2018 14:23 3,8 °C 75 % 994,8 hPa 0,0 mm 1,4 km/h (1 Bft) O-NO 71 ° 0 min 0,000 mm 1,6 UV-I 223 W/m² -0,2 °C 3,8 °C 3,2 km/h (1 Bft)
03.03.2018 14:24 3,8 °C 74 % 994,8 hPa 0,0 mm 1,5 km/h (1 Bft) O-NO 71 ° 0 min 0,000 mm 1,6 UV-I 220 W/m² -0,4 °C 3,8 °C 3,2 km/h (1 Bft)
03.03.2018 14:25 3,9 °C 74 % 994,8 hPa 0,0 mm 5,2 km/h (1 Bft) NO 34 ° 0 min 0,000 mm 1,6 UV-I 223 W/m² -0,3 °C 2,8 °C 9,7 km/h (2 Bft)
03.03.2018 14:26 3,9 °C 74 % 994,8 hPa 0,0 mm 8,3 km/h (2 Bft) O 97 ° 0 min 0,000 mm 1,6 UV-I 234 W/m² -0,3 °C 1,8 °C 12,9 km/h (3 Bft)
03.03.2018 14:27 3,9 °C 74 % 994,8 hPa 0,0 mm 5,2 km/h (1 Bft) O-NO 71 ° 0 min 0,000 mm 1,7 UV-I 255 W/m² -0,3 °C 2,8 °C 9,7 km/h (2 Bft)
03.03.2018 14:28 3,9 °C 74 % 994,9 hPa 0,2 mm 4,6 km/h (1 Bft) O-NO 72 ° 0 min 0,000 mm 1,7 UV-I 260 W/m² -0,3 °C 3,0 °C 6,4 km/h (2 Bft)
03.03.2018 14:29 3,8 °C 74 % 994,9 hPa 0,0 mm 3,8 km/h (1 Bft) NO 56 ° 0 min 0,000 mm 1,7 UV-I 260 W/m² -0,4 °C 3,8 °C 4,8 km/h (1 Bft)
03.03.2018 14:30 3,8 °C 74 % 994,9 hPa 0,0 mm 2,7 km/h (1 Bft) O-NO 71 ° 0 min 0,000 mm 1,6 UV-I 255 W/m² -0,4 °C 3,8 °C 4,8 km/h (1 Bft)
03.03.2018 14:31 3,8 °C 74 % 994,9 hPa 0,0 mm 5,0 km/h (1 Bft) O 92 ° 0 min 0,000 mm 1,6 UV-I 239 W/m² -0,4 °C 2,7 °C 6,4 km/h (2 Bft)
03.03.2018 14:32 3,8 °C 74 % 994,9 hPa 0,0 mm 6,9 km/h (2 Bft) NO 56 ° 0 min 0,000 mm 1,6 UV-I 232 W/m² -0,4 °C 2,0 °C 9,7 km/h (2 Bft)
03.03.2018 14:33 3,8 °C 74 % 994,9 hPa 0,0 mm 5,0 km/h (1 Bft) NO 51 ° 0 min 0,000 mm 1,5 UV-I 227 W/m² -0,4 °C 2,7 °C 6,4 km/h (2 Bft)
03.03.2018 14:34 3,8 °C 74 % 994,9 hPa 0,0 mm 5,0 km/h (1 Bft) O-NO 66 ° 0 min 0,000 mm 1,5 UV-I 223 W/m² -0,4 °C 2,7 °C 6,4 km/h (2 Bft)
03.03.2018 14:35 3,8 °C 74 % 995,0 hPa 0,0 mm 2,3 km/h (1 Bft) O-NO 66 ° 0 min 0,000 mm 1,5 UV-I 221 W/m² -0,4 °C 3,8 °C 4,8 km/h (1 Bft)
03.03.2018 14:36 3,8 °C 74 % 995,0 hPa 0,0 mm 0,2 km/h (0 Bft) O-NO 66 ° 0 min 0,000 mm 1,4 UV-I 218 W/m² -0,4 °C 3,8 °C 3,2 km/h (1 Bft)
03.03.2018 14:37 3,8 °C 75 % 995,0 hPa 0,0 mm 1,7 km/h (1 Bft) O-NO 61 ° 0 min 0,000 mm 1,4 UV-I 218 W/m² -0,2 °C 3,8 °C 6,4 km/h (2 Bft)
03.03.2018 14:38 3,8 °C 74 % 995,0 hPa 0,0 mm 8,6 km/h (2 Bft) O-NO 71 ° 0 min 0,000 mm 1,4 UV-I 223 W/m² -0,4 °C 1,6 °C 12,9 km/h (3 Bft)
03.03.2018 14:39 3,8 °C 74 % 995,0 hPa 0,0 mm 7,3 km/h (2 Bft) O 85 ° 0 min 0,000 mm 1,5 UV-I 232 W/m² -0,4 °C 1,9 °C 8,0 km/h (2 Bft)
03.03.2018 14:40 3,8 °C 74 % 995,0 hPa 0,0 mm 7,4 km/h (2 Bft) N-NO 24 ° 0 min 0,000 mm 1,5 UV-I 239 W/m² -0,4 °C 1,9 °C 12,9 km/h (3 Bft)
03.03.2018 14:41 3,8 °C 74 % 995,0 hPa 0,0 mm 5,3 km/h (1 Bft) NO 46 ° 0 min 0,000 mm 1,5 UV-I 244 W/m² -0,4 °C 2,6 °C 8,0 km/h (2 Bft)
03.03.2018 14:42 3,8 °C 74 % 995,0 hPa 0,2 mm 3,9 km/h (1 Bft) O-NO 76 ° 0 min 0,000 mm 1,5 UV-I 251 W/m² -0,4 °C 3,8 °C 6,4 km/h (2 Bft)
03.03.2018 14:43 3,8 °C 74 % 994,9 hPa 0,0 mm 3,8 km/h (1 Bft) O-NO 63 ° 0 min 0,000 mm 1,5 UV-I 264 W/m² -0,4 °C 3,8 °C 6,4 km/h (2 Bft)
03.03.2018 14:44 3,7 °C 74 % 994,9 hPa 0,0 mm 2,2 km/h (1 Bft) O-NO 66 ° 0 min 0,000 mm 1,5 UV-I 264 W/m² -0,5 °C 3,7 °C 3,2 km/h (1 Bft)
03.03.2018 14:45 3,8 °C 74 % 994,9 hPa 0,0 mm 3,0 km/h (1 Bft) NO 50 ° 0 min 0,000 mm 1,5 UV-I 248 W/m² -0,4 °C 3,8 °C 4,8 km/h (1 Bft)
03.03.2018 14:46 3,7 °C 74 % 994,9 hPa 0,0 mm 4,0 km/h (1 Bft) O-NO 73 ° 0 min 0,000 mm 1,5 UV-I 244 W/m² -0,5 °C 3,7 °C 6,4 km/h (2 Bft)
03.03.2018 14:47 3,8 °C 75 % 994,9 hPa 0,0 mm 5,0 km/h (1 Bft) NO 55 ° 0 min 0,000 mm 1,5 UV-I 253 W/m² -0,2 °C 2,7 °C 9,7 km/h (2 Bft)
03.03.2018 14:48 3,8 °C 74 % 994,9 hPa 0,0 mm 4,6 km/h (1 Bft) O-NO 67 ° 0 min 0,000 mm 1,5 UV-I 250 W/m² -0,4 °C 2,9 °C 8,0 km/h (2 Bft)
03.03.2018 14:49 3,8 °C 74 % 994,9 hPa 0,0 mm 2,2 km/h (1 Bft) O-NO 67 ° 0 min 0,000 mm 1,5 UV-I 243 W/m² -0,4 °C 3,8 °C 3,2 km/h (1 Bft)
03.03.2018 14:50 3,8 °C 74 % 994,9 hPa 0,0 mm 4,8 km/h (1 Bft) NO 53 ° 0 min 0,000 mm 1,5 UV-I 244 W/m² -0,4 °C 2,8 °C 6,4 km/h (2 Bft)
03.03.2018 14:51 3,8 °C 74 % 994,9 hPa 0,0 mm 4,3 km/h (1 Bft) O 94 ° 0 min 0,000 mm 1,4 UV-I 229 W/m² -0,4 °C 3,8 °C 6,4 km/h (2 Bft)
03.03.2018 14:52 3,8 °C 75 % 995,0 hPa 0,0 mm 3,0 km/h (1 Bft) O 94 ° 0 min 0,000 mm 1,4 UV-I 221 W/m² -0,2 °C 3,8 °C 4,8 km/h (1 Bft)
03.03.2018 14:53 3,9 °C 75 % 995,0 hPa 0,0 mm 3,4 km/h (1 Bft) O-NO 71 ° 0 min 0,000 mm 1,4 UV-I 232 W/m² -0,1 °C 3,9 °C 6,4 km/h (2 Bft)
03.03.2018 14:54 3,8 °C 75 % 995,0 hPa 0,0 mm 5,0 km/h (1 Bft) O 86 ° 0 min 0,000 mm 1,3 UV-I 211 W/m² -0,2 °C 2,7 °C 8,0 km/h (2 Bft)
03.03.2018 14:55 3,9 °C 74 % 995,0 hPa 0,0 mm 4,9 km/h (1 Bft) O 84 ° 0 min 0,000 mm 1,3 UV-I 202 W/m² -0,3 °C 2,9 °C 11,3 km/h (2 Bft)
03.03.2018 14:56 3,8 °C 75 % 995,0 hPa 0,2 mm 5,3 km/h (1 Bft) O-NO 57 ° 0 min 0,000 mm 1,3 UV-I 199 W/m² -0,2 °C 2,6 °C 6,4 km/h (2 Bft)
03.03.2018 14:57 3,8 °C 74 % 995,0 hPa 0,0 mm 2,5 km/h (1 Bft) O-NO 59 ° 0 min 0,000 mm 1,2 UV-I 195 W/m² -0,4 °C 3,8 °C 4,8 km/h (1 Bft)
03.03.2018 14:58 3,8 °C 74 % 995,1 hPa 0,0 mm 5,4 km/h (1 Bft) NO 46 ° 0 min 0,000 mm 1,2 UV-I 190 W/m² -0,4 °C 2,6 °C 8,0 km/h (2 Bft)
03.03.2018 14:59 3,7 °C 74 % 995,1 hPa 0,0 mm 4,6 km/h (1 Bft) O-NO 57 ° 0 min 0,000 mm 1,2 UV-I 183 W/m² -0,5 °C 2,8 °C 6,4 km/h (2 Bft)
03.03.2018 15:00 3,8 °C 74 % 995,1 hPa 0,0 mm 4,6 km/h (1 Bft) NO 49 ° 0 min 0,000 mm 1,1 UV-I 176 W/m² -0,4 °C 2,9 °C 6,4 km/h (2 Bft)
03.03.2018 15:01 3,8 °C 74 % 995,2 hPa 0,0 mm 3,5 km/h (1 Bft) NO 49 ° 0 min 0,102 mm 1,1 UV-I 160 W/m² -0,4 °C 3,8 °C 4,8 km/h (1 Bft)
03.03.2018 15:02 3,8 °C 74 % 995,1 hPa 0,0 mm 2,1 km/h (1 Bft) NO 49 ° 0 min 0,000 mm 1,1 UV-I 160 W/m² -0,4 °C 3,8 °C 3,2 km/h (1 Bft)
03.03.2018 15:03 3,8 °C 74 % 995,1 hPa 0,0 mm 2,1 km/h (1 Bft) NO 49 ° 0 min 0,000 mm 1,1 UV-I 160 W/m² -0,4 °C 3,8 °C 3,2 km/h (1 Bft)
03.03.2018 15:04 3,7 °C 75 % 995,1 hPa 0,0 mm 0,1 km/h (0 Bft) NO 49 ° 0 min 0,000 mm 1,1 UV-I 162 W/m² -0,3 °C 3,7 °C 1,6 km/h (1 Bft)
03.03.2018 15:05 3,7 °C 74 % 995,1 hPa 0,0 mm 1,9 km/h (1 Bft) NO 49 ° 0 min 0,000 mm 1,1 UV-I 163 W/m² -0,5 °C 3,7 °C 3,2 km/h (1 Bft)
03.03.2018 15:06 3,7 °C 75 % 995,2 hPa 0,0 mm 4,2 km/h (1 Bft) O-NO 75 ° 0 min 0,000 mm 1,1 UV-I 167 W/m² -0,3 °C 3,7 °C 6,4 km/h (2 Bft)
03.03.2018 15:07 3,6 °C 76 % 995,1 hPa 0,0 mm 5,6 km/h (1 Bft) O-NO 65 ° 0 min 0,000 mm 1,1 UV-I 165 W/m² -0,2 °C 2,3 °C 6,4 km/h (2 Bft)
03.03.2018 15:08 3,6 °C 75 % 995,2 hPa 0,0 mm 1,5 km/h (1 Bft) O-NO 74 ° 0 min 0,000 mm 1,1 UV-I 165 W/m² -0,4 °C 3,6 °C 6,4 km/h (2 Bft)
03.03.2018 15:09 3,6 °C 75 % 995,2 hPa 0,0 mm 5,2 km/h (1 Bft) NO 52 ° 0 min 0,000 mm 1,1 UV-I 165 W/m² -0,4 °C 2,4 °C 6,4 km/h (2 Bft)
03.03.2018 15:10 3,6 °C 75 % 995,2 hPa 0,0 mm 4,2 km/h (1 Bft) O-NO 59 ° 0 min 0,000 mm 1,1 UV-I 167 W/m² -0,4 °C 3,6 °C 6,4 km/h (2 Bft)
03.03.2018 15:11 3,6 °C 75 % 995,2 hPa 0,0 mm 5,1 km/h (1 Bft) NO 56 ° 0 min 0,000 mm 1,1 UV-I 167 W/m² -0,4 °C 2,5 °C 8,0 km/h (2 Bft)
03.03.2018 15:12 3,6 °C 74 % 995,2 hPa 0,0 mm 3,0 km/h (1 Bft) NO 56 ° 0 min 0,000 mm 1,1 UV-I 167 W/m² -0,6 °C 3,6 °C 4,8 km/h (1 Bft)
03.03.2018 15:13 3,6 °C 75 % 995,2 hPa 0,0 mm 3,6 km/h (1 Bft) NO 55 ° 0 min 0,000 mm 1,1 UV-I 169 W/m² -0,4 °C 3,6 °C 4,8 km/h (1 Bft)
03.03.2018 15:14 3,6 °C 75 % 995,2 hPa 0,0 mm 5,4 km/h (1 Bft) O-NO 65 ° 0 min 0,000 mm 1,1 UV-I 171 W/m² -0,4 °C 2,3 °C 8,0 km/h (2 Bft)
03.03.2018 15:15 3,7 °C 75 % 995,3 hPa 0,2 mm 6,2 km/h (2 Bft) NO 55 ° 0 min 0,000 mm 1,1 UV-I 172 W/m² -0,3 °C 2,2 °C 8,0 km/h (2 Bft)
03.03.2018 15:16 3,6 °C 75 % 995,2 hPa 0,0 mm 5,9 km/h (2 Bft) NO 44 ° 0 min 0,000 mm 1,1 UV-I 174 W/m² -0,4 °C 2,1 °C 6,4 km/h (2 Bft)
03.03.2018 15:17 3,6 °C 75 % 995,3 hPa 0,0 mm 5,6 km/h (1 Bft) NO 51 ° 0 min 0,000 mm 1,1 UV-I 174 W/m² -0,4 °C 2,3 °C 8,0 km/h (2 Bft)
03.03.2018 15:18 3,6 °C 74 % 995,2 hPa 0,0 mm 3,2 km/h (1 Bft) NO 51 ° 0 min 0,000 mm 1,1 UV-I 167 W/m² -0,6 °C 3,6 °C 4,8 km/h (1 Bft)
03.03.2018 15:19 3,6 °C 75 % 995,2 hPa 0,0 mm 1,8 km/h (1 Bft) NO 51 ° 0 min 0,000 mm 1,0 UV-I 163 W/m² -0,4 °C 3,6 °C 3,2 km/h (1 Bft)
03.03.2018 15:20 3,6 °C 75 % 995,2 hPa 0,0 mm 1,1 km/h (1 Bft) NO 51 ° 0 min 0,000 mm 1,0 UV-I 163 W/m² -0,4 °C 3,6 °C 3,2 km/h (1 Bft)
03.03.2018 15:21 3,6 °C 75 % 995,2 hPa 0,0 mm 3,8 km/h (1 Bft) NO 56 ° 0 min 0,000 mm 1,0 UV-I 156 W/m² -0,4 °C 3,6 °C 4,8 km/h (1 Bft)
03.03.2018 15:22 3,6 °C 75 % 995,2 hPa 0,0 mm 3,4 km/h (1 Bft) NO 56 ° 0 min 0,000 mm 1,0 UV-I 156 W/m² -0,4 °C 3,6 °C 4,8 km/h (1 Bft)
03.03.2018 15:23 3,6 °C 75 % 995,3 hPa 0,0 mm 5,2 km/h (1 Bft) O-NO 58 ° 0 min 0,000 mm 1,0 UV-I 158 W/m² -0,4 °C 2,4 °C 11,3 km/h (2 Bft)
03.03.2018 15:24 3,6 °C 75 % 995,3 hPa 0,0 mm 3,3 km/h (1 Bft) O-NO 74 ° 0 min 0,000 mm 1,0 UV-I 160 W/m² -0,4 °C 3,6 °C 6,4 km/h (2 Bft)
03.03.2018 15:25 3,6 °C 75 % 995,3 hPa 0,0 mm 4,4 km/h (1 Bft) NO 50 ° 0 min 0,000 mm 1,0 UV-I 158 W/m² -0,4 °C 3,6 °C 6,4 km/h (2 Bft)
03.03.2018 15:26 3,6 °C 75 % 995,3 hPa 0,0 mm 2,1 km/h (1 Bft) NO 50 ° 0 min 0,000 mm 1,0 UV-I 156 W/m² -0,4 °C 3,6 °C 3,2 km/h (1 Bft)
03.03.2018 15:27 3,5 °C 75 % 995,3 hPa 0,0 mm 1,5 km/h (1 Bft) NO 50 ° 0 min 0,000 mm 0,9 UV-I 153 W/m² -0,5 °C 3,5 °C 3,2 km/h (1 Bft)
03.03.2018 15:28 3,5 °C 75 % 995,3 hPa 0,0 mm 1,4 km/h (1 Bft) NO 50 ° 0 min 0,000 mm 0,9 UV-I 151 W/m² -0,5 °C 3,5 °C 3,2 km/h (1 Bft)
03.03.2018 15:29 3,4 °C 76 % 995,3 hPa 0,0 mm 2,1 km/h (1 Bft) O 85 ° 0 min 0,000 mm 0,9 UV-I 148 W/m² -0,4 °C 3,4 °C 4,8 km/h (1 Bft)
03.03.2018 15:30 3,4 °C 76 % 995,3 hPa 0,0 mm 6,8 km/h (2 Bft) NO 49 ° 0 min 0,000 mm 0,9 UV-I 141 W/m² -0,4 °C 1,6 °C 8,0 km/h (2 Bft)
03.03.2018 15:31 3,4 °C 76 % 995,3 hPa 0,0 mm 5,0 km/h (1 Bft) NO 52 ° 0 min 0,000 mm 0,9 UV-I 137 W/m² -0,4 °C 2,3 °C 8,0 km/h (2 Bft)
03.03.2018 15:32 3,4 °C 76 % 995,3 hPa 0,0 mm 3,5 km/h (1 Bft) O-NO 65 ° 0 min 0,000 mm 0,9 UV-I 137 W/m² -0,4 °C 3,4 °C 4,8 km/h (1 Bft)
03.03.2018 15:33 3,4 °C 76 % 995,3 hPa 0,0 mm 1,1 km/h (1 Bft) O-NO 65 ° 0 min 0,000 mm 0,8 UV-I 132 W/m² -0,4 °C 3,4 °C 3,2 km/h (1 Bft)
03.03.2018 15:34 3,4 °C 76 % 995,4 hPa 0,0 mm 1,8 km/h (1 Bft) NO 56 ° 0 min 0,000 mm 0,8 UV-I 128 W/m² -0,4 °C 3,4 °C 3,2 km/h (1 Bft)
03.03.2018 15:35 3,4 °C 76 % 995,4 hPa 0,0 mm 2,7 km/h (1 Bft) O-NO 71 ° 0 min 0,000 mm 0,8 UV-I 128 W/m² -0,4 °C 3,4 °C 4,8 km/h (1 Bft)
03.03.2018 15:36 3,4 °C 76 % 995,3 hPa 0,0 mm 2,1 km/h (1 Bft) O-NO 69 ° 0 min 0,000 mm 0,8 UV-I 127 W/m² -0,4 °C 3,4 °C 4,8 km/h (1 Bft)
03.03.2018 15:37 3,4 °C 76 % 995,4 hPa 0,2 mm 1,1 km/h (1 Bft) O-NO 69 ° 0 min 0,000 mm 0,8 UV-I 125 W/m² -0,4 °C 3,4 °C 3,2 km/h (1 Bft)
03.03.2018 15:38 3,4 °C 76 % 995,4 hPa 0,0 mm 1,2 km/h (1 Bft) O-NO 69 ° 0 min 0,000 mm 0,8 UV-I 125 W/m² -0,4 °C 3,4 °C 3,2 km/h (1 Bft)
03.03.2018 15:39 3,4 °C 76 % 995,4 hPa 0,0 mm 0,3 km/h (0 Bft) O-NO 69 ° 0 min 0,000 mm 0,8 UV-I 125 W/m² -0,4 °C 3,4 °C 3,2 km/h (1 Bft)
03.03.2018 15:40 3,3 °C 77 % 995,4 hPa 0,0 mm 1,5 km/h (1 Bft) O-NO 69 ° 0 min 0,000 mm 0,8 UV-I 125 W/m² -0,3 °C 3,3 °C 3,2 km/h (1 Bft)
03.03.2018 15:41 3,3 °C 76 % 995,4 hPa 0,0 mm 0,0 km/h (0 Bft) O-NO 69 ° 0 min 0,000 mm 0,8 UV-I 120 W/m² -0,5 °C 3,3 °C 0,0 km/h (0 Bft)
03.03.2018 15:42 3,3 °C 77 % 995,4 hPa 0,0 mm 1,8 km/h (1 Bft) O-NO 69 ° 0 min 0,000 mm 0,8 UV-I 118 W/m² -0,3 °C 3,3 °C 4,8 km/h (1 Bft)
03.03.2018 15:43 3,3 °C 77 % 995,4 hPa 0,0 mm 3,4 km/h (1 Bft) O-NO 71 ° 0 min 0,000 mm 0,8 UV-I 114 W/m² -0,3 °C 3,3 °C 4,8 km/h (1 Bft)
03.03.2018 15:44 3,3 °C 77 % 995,4 hPa 0,0 mm 2,3 km/h (1 Bft) O-NO 57 ° 0 min 0,000 mm 0,7 UV-I 113 W/m² -0,3 °C 3,3 °C 4,8 km/h (1 Bft)
03.03.2018 15:45 3,3 °C 77 % 995,5 hPa 0,0 mm 2,5 km/h (1 Bft) O-NO 57 ° 0 min 0,000 mm 0,7 UV-I 109 W/m² -0,3 °C 3,3 °C 3,2 km/h (1 Bft)
03.03.2018 15:46 3,3 °C 77 % 995,5 hPa 0,0 mm 4,4 km/h (1 Bft) O-NO 57 ° 0 min 0,000 mm 0,7 UV-I 107 W/m² -0,3 °C 3,3 °C 6,4 km/h (2 Bft)
03.03.2018 15:47 3,3 °C 77 % 995,5 hPa 0,0 mm 1,1 km/h (1 Bft) O-NO 57 ° 0 min 0,000 mm 0,7 UV-I 104 W/m² -0,3 °C 3,3 °C 4,8 km/h (1 Bft)
03.03.2018 15:48 3,3 °C 77 % 995,6 hPa 0,0 mm 1,3 km/h (1 Bft) O-NO 57 ° 0 min 0,000 mm 0,7 UV-I 102 W/m² -0,3 °C 3,3 °C 3,2 km/h (1 Bft)
03.03.2018 15:49 3,3 °C 77 % 995,5 hPa 0,0 mm 1,9 km/h (1 Bft) O-NO 57 ° 0 min 0,000 mm 0,7 UV-I 102 W/m² -0,3 °C 3,3 °C 3,2 km/h (1 Bft)
03.03.2018 15:50 3,3 °C 77 % 995,6 hPa 0,0 mm 2,4 km/h (1 Bft) O-NO 57 ° 0 min 0,000 mm 0,7 UV-I 100 W/m² -0,3 °C 3,3 °C 6,4 km/h (2 Bft)
03.03.2018 15:51 3,3 °C 78 % 995,6 hPa 0,0 mm 1,6 km/h (1 Bft) O-NO 57 ° 0 min 0,000 mm 0,7 UV-I 102 W/m² -0,2 °C 3,3 °C 3,2 km/h (1 Bft)
03.03.2018 15:52 3,2 °C 77 % 995,6 hPa 0,0 mm 0,5 km/h (0 Bft) O-NO 57 ° 0 min 0,000 mm 0,7 UV-I 102 W/m² -0,4 °C 3,2 °C 3,2 km/h (1 Bft)
03.03.2018 15:53 3,2 °C 77 % 995,7 hPa 0,0 mm 0,7 km/h (0 Bft) NO 56 ° 0 min 0,000 mm 0,7 UV-I 102 W/m² -0,4 °C 3,2 °C 4,8 km/h (1 Bft)
03.03.2018 15:54 3,2 °C 78 % 995,6 hPa 0,0 mm 3,2 km/h (1 Bft) N-NO 31 ° 0 min 0,000 mm 0,7 UV-I 102 W/m² -0,3 °C 3,2 °C 4,8 km/h (1 Bft)
03.03.2018 15:55 3,2 °C 77 % 995,7 hPa 0,0 mm 3,0 km/h (1 Bft) N-NO 32 ° 0 min 0,000 mm 0,6 UV-I 102 W/m² -0,4 °C 3,2 °C 4,8 km/h (1 Bft)
03.03.2018 15:56 3,2 °C 77 % 995,7 hPa 0,0 mm 4,1 km/h (1 Bft) NO 50 ° 0 min 0,000 mm 0,6 UV-I 102 W/m² -0,4 °C 3,2 °C 4,8 km/h (1 Bft)
03.03.2018 15:57 3,2 °C 77 % 995,7 hPa 0,0 mm 3,6 km/h (1 Bft) NO 50 ° 0 min 0,000 mm 0,6 UV-I 100 W/m² -0,4 °C 3,2 °C 4,8 km/h (1 Bft)
03.03.2018 15:58 3,2 °C 78 % 995,7 hPa 0,0 mm 0,9 km/h (0 Bft) NO 50 ° 0 min 0,000 mm 0,6 UV-I 100 W/m² -0,3 °C 3,2 °C 3,2 km/h (1 Bft)
03.03.2018 15:59 3,1 °C 79 % 995,7 hPa 0,0 mm 1,9 km/h (1 Bft) NO 50 ° 0 min 0,000 mm 0,6 UV-I 102 W/m² -0,2 °C 3,1 °C 3,2 km/h (1 Bft)
03.03.2018 16:00 3,0 °C 79 % 995,6 hPa 0,0 mm 3,0 km/h (1 Bft) NO 49 ° 0 min 0,051 mm 0,6 UV-I 102 W/m² -0,3 °C 3,0 °C 4,8 km/h (1 Bft)
03.03.2018 16:01 3,0 °C 79 % 995,7 hPa 0,0 mm 3,8 km/h (1 Bft) NO 49 ° 0 min 0,000 mm 0,6 UV-I 104 W/m² -0,3 °C 3,0 °C 4,8 km/h (1 Bft)
03.03.2018 16:02 3,0 °C 79 % 995,7 hPa 0,0 mm 4,5 km/h (1 Bft) NO 50 ° 0 min 0,000 mm 0,6 UV-I 104 W/m² -0,3 °C 3,0 °C 6,4 km/h (2 Bft)
03.03.2018 16:03 3,1 °C 78 % 995,6 hPa 0,0 mm 2,9 km/h (1 Bft) NO 50 ° 0 min 0,000 mm 0,6 UV-I 104 W/m² -0,4 °C 3,1 °C 4,8 km/h (1 Bft)
03.03.2018 16:04 3,1 °C 78 % 995,8 hPa 0,0 mm 0,8 km/h (0 Bft) NO 50 ° 0 min 0,000 mm 0,7 UV-I 107 W/m² -0,4 °C 3,1 °C 3,2 km/h (1 Bft)
03.03.2018 16:05 3,1 °C 78 % 995,8 hPa 0,0 mm 0,0 km/h (0 Bft) NO 50 ° 0 min 0,000 mm 0,7 UV-I 109 W/m² -0,4 °C 3,1 °C 0,0 km/h (0 Bft)
03.03.2018 16:06 3,1 °C 78 % 995,7 hPa 0,0 mm 0,0 km/h (0 Bft) NO 50 ° 0 min 0,000 mm 0,7 UV-I 109 W/m² -0,4 °C 3,1 °C 0,0 km/h (0 Bft)
03.03.2018 16:07 3,1 °C 79 % 995,7 hPa 0,0 mm 1,9 km/h (1 Bft) O-NO 65 ° 0 min 0,000 mm 0,7 UV-I 109 W/m² -0,2 °C 3,1 °C 3,2 km/h (1 Bft)
03.03.2018 16:08 3,1 °C 78 % 995,8 hPa 0,0 mm 0,3 km/h (0 Bft) O-NO 65 ° 0 min 0,000 mm 0,7 UV-I 107 W/m² -0,4 °C 3,1 °C 3,2 km/h (1 Bft)
03.03.2018 16:09 3,1 °C 79 % 995,9 hPa 0,2 mm 1,1 km/h (1 Bft) O-NO 65 ° 0 min 0,000 mm 0,6 UV-I 105 W/m² -0,2 °C 3,1 °C 3,2 km/h (1 Bft)
03.03.2018 16:10 3,1 °C 78 % 995,9 hPa 0,0 mm 1,1 km/h (1 Bft) O-NO 65 ° 0 min 0,000 mm 0,6 UV-I 105 W/m² -0,4 °C 3,1 °C 3,2 km/h (1 Bft)
03.03.2018 16:11 3,1 °C 78 % 995,9 hPa 0,0 mm 1,8 km/h (1 Bft) NO 51 ° 0 min 0,000 mm 0,6 UV-I 104 W/m² -0,4 °C 3,1 °C 4,8 km/h (1 Bft)
03.03.2018 16:12 3,1 °C 78 % 995,9 hPa 0,0 mm 0,1 km/h (0 Bft) NO 51 ° 0 min 0,000 mm 0,6 UV-I 102 W/m² -0,4 °C 3,1 °C 1,6 km/h (1 Bft)
03.03.2018 16:13 3,1 °C 78 % 995,9 hPa 0,0 mm 1,1 km/h (1 Bft) O 90 ° 0 min 0,000 mm 0,6 UV-I 102 W/m² -0,4 °C 3,1 °C 3,2 km/h (1 Bft)
03.03.2018 16:14 3,1 °C 78 % 996,0 hPa 0,0 mm 3,4 km/h (1 Bft) O-NO 73 ° 0 min 0,000 mm 0,6 UV-I 102 W/m² -0,4 °C 3,1 °C 4,8 km/h (1 Bft)
03.03.2018 16:15 3,1 °C 78 % 995,9 hPa 0,0 mm 2,2 km/h (1 Bft) O-NO 71 ° 0 min 0,000 mm 0,6 UV-I 102 W/m² -0,4 °C 3,1 °C 4,8 km/h (1 Bft)
03.03.2018 16:16 3,1 °C 78 % 996,0 hPa 0,0 mm 1,9 km/h (1 Bft) O 79 ° 0 min 0,000 mm 0,6 UV-I 102 W/m² -0,4 °C 3,1 °C 3,2 km/h (1 Bft)
03.03.2018 16:17 3,0 °C 78 % 996,0 hPa 0,0 mm 2,8 km/h (1 Bft) O 79 ° 0 min 0,000 mm 0,6 UV-I 102 W/m² -0,5 °C 3,0 °C 4,8 km/h (1 Bft)
03.03.2018 16:18 3,1 °C 78 % 996,0 hPa 0,0 mm 1,9 km/h (1 Bft) O-NO 71 ° 0 min 0,000 mm 0,6 UV-I 104 W/m² -0,4 °C 3,1 °C 3,2 km/h (1 Bft)
03.03.2018 16:19 3,1 °C 78 % 996,1 hPa 0,0 mm 3,6 km/h (1 Bft) O-NO 65 ° 0 min 0,000 mm 0,6 UV-I 104 W/m² -0,4 °C 3,1 °C 4,8 km/h (1 Bft)
03.03.2018 16:20 3,1 °C 78 % 996,1 hPa 0,0 mm 3,4 km/h (1 Bft) O-NO 65 ° 0 min 0,000 mm 0,6 UV-I 107 W/m² -0,4 °C 3,1 °C 4,8 km/h (1 Bft)
03.03.2018 16:21 3,1 °C 78 % 996,1 hPa 0,0 mm 1,6 km/h (1 Bft) O-NO 65 ° 0 min 0,000 mm 0,6 UV-I 111 W/m² -0,4 °C 3,1 °C 3,2 km/h (1 Bft)
03.03.2018 16:22 3,1 °C 78 % 996,1 hPa 0,0 mm 1,1 km/h (1 Bft) O-NO 65 ° 0 min 0,000 mm 0,6 UV-I 111 W/m² -0,4 °C 3,1 °C 1,6 km/h (1 Bft)
03.03.2018 16:23 3,1 °C 78 % 996,1 hPa 0,0 mm 1,1 km/h (1 Bft) O-NO 65 ° 0 min 0,000 mm 0,6 UV-I 111 W/m² -0,4 °C 3,1 °C 3,2 km/h (1 Bft)
03.03.2018 16:24 3,0 °C 79 % 996,2 hPa 0,0 mm 0,0 km/h (0 Bft) O-NO 65 ° 0 min 0,000 mm 0,6 UV-I 111 W/m² -0,3 °C 3,0 °C 0,0 km/h (0 Bft)
03.03.2018 16:25 3,1 °C 79 % 996,2 hPa 0,0 mm 0,3 km/h (0 Bft) O-NO 65 ° 0 min 0,000 mm 0,6 UV-I 111 W/m² -0,2 °C 3,1 °C 1,6 km/h (1 Bft)
03.03.2018 16:26 3,0 °C 79 % 996,3 hPa 0,0 mm 0,0 km/h (0 Bft) O-NO 65 ° 0 min 0,000 mm 0,6 UV-I 113 W/m² -0,3 °C 3,0 °C 0,0 km/h (0 Bft)
03.03.2018 16:27 3,1 °C 79 % 996,3 hPa 0,0 mm 1,9 km/h (1 Bft) O-NO 65 ° 0 min 0,000 mm 0,6 UV-I 114 W/m² -0,2 °C 3,1 °C 3,2 km/h (1 Bft)
03.03.2018 16:28 3,1 °C 79 % 996,3 hPa 0,0 mm 3,2 km/h (1 Bft) O-NO 64 ° 0 min 0,000 mm 0,6 UV-I 116 W/m² -0,2 °C 3,1 °C 4,8 km/h (1 Bft)
03.03.2018 16:29 3,0 °C 79 % 996,3 hPa 0,0 mm 1,8 km/h (1 Bft) O-NO 64 ° 0 min 0,000 mm 0,6 UV-I 120 W/m² -0,3 °C 3,0 °C 3,2 km/h (1 Bft)
03.03.2018 16:30 3,1 °C 79 % 996,3 hPa 0,0 mm 1,1 km/h (1 Bft) O-NO 64 ° 0 min 0,000 mm 0,6 UV-I 121 W/m² -0,2 °C 3,1 °C 3,2 km/h (1 Bft)
03.03.2018 16:31 3,1 °C 79 % 996,3 hPa 0,0 mm 2,3 km/h (1 Bft) O-NO 64 ° 0 min 0,000 mm 0,6 UV-I 125 W/m² -0,2 °C 3,1 °C 3,2 km/h (1 Bft)
03.03.2018 16:32 3,1 °C 79 % 996,3 hPa 0,0 mm 2,7 km/h (1 Bft) O-NO 64 ° 0 min 0,000 mm 0,6 UV-I 125 W/m² -0,2 °C 3,1 °C 4,8 km/h (1 Bft)
03.03.2018 16:33 3,1 °C 79 % 996,3 hPa 0,0 mm 2,3 km/h (1 Bft) N-NO 24 ° 0 min 0,000 mm 0,6 UV-I 127 W/m² -0,2 °C 3,1 °C 3,2 km/h (1 Bft)
03.03.2018 16:34 3,1 °C 79 % 996,3 hPa 0,0 mm 4,3 km/h (1 Bft) N-NO 24 ° 0 min 0,000 mm 0,6 UV-I 128 W/m² -0,2 °C 3,1 °C 6,4 km/h (2 Bft)
03.03.2018 16:35 3,1 °C 78 % 996,3 hPa 0,0 mm 5,0 km/h (1 Bft) N-NO 15 ° 0 min 0,000 mm 0,6 UV-I 127 W/m² -0,4 °C 1,9 °C 8,0 km/h (2 Bft)
03.03.2018 16:36 3,1 °C 79 % 996,3 hPa 0,0 mm 3,1 km/h (1 Bft) N-NO 15 ° 0 min 0,000 mm 0,6 UV-I 125 W/m² -0,2 °C 3,1 °C 4,8 km/h (1 Bft)
03.03.2018 16:37 3,1 °C 79 % 996,3 hPa 0,0 mm 3,0 km/h (1 Bft) N-NO 15 ° 0 min 0,000 mm 0,6 UV-I 123 W/m² -0,2 °C 3,1 °C 4,8 km/h (1 Bft)
03.03.2018 16:38 3,1 °C 79 % 996,4 hPa 0,0 mm 1,4 km/h (1 Bft) N-NO 13 ° 0 min 0,000 mm 0,5 UV-I 123 W/m² -0,2 °C 3,1 °C 4,8 km/h (1 Bft)
03.03.2018 16:39 3,1 °C 79 % 996,4 hPa 0,0 mm 0,1 km/h (0 Bft) N-NO 13 ° 0 min 0,000 mm 0,5 UV-I 121 W/m² -0,2 °C 3,1 °C 1,6 km/h (1 Bft)
03.03.2018 16:40 3,1 °C 79 % 996,4 hPa 0,0 mm 0,2 km/h (0 Bft) N-NO 13 ° 0 min 0,000 mm 0,5 UV-I 118 W/m² -0,2 °C 3,1 °C 1,6 km/h (1 Bft)
03.03.2018 16:41 3,0 °C 79 % 996,4 hPa 0,0 mm 0,1 km/h (0 Bft) N-NO 13 ° 0 min 0,000 mm 0,5 UV-I 118 W/m² -0,3 °C 3,0 °C 1,6 km/h (1 Bft)
03.03.2018 16:42 3,0 °C 79 % 996,4 hPa 0,0 mm 2,5 km/h (1 Bft) N-NO 13 ° 0 min 0,000 mm 0,5 UV-I 118 W/m² -0,3 °C 3,0 °C 4,8 km/h (1 Bft)
03.03.2018 16:43 3,0 °C 79 % 996,3 hPa 0,2 mm 1,7 km/h (1 Bft) N-NO 13 ° 0 min 0,000 mm 0,5 UV-I 116 W/m² -0,3 °C 3,0 °C 3,2 km/h (1 Bft)
03.03.2018 16:44 2,9 °C 79 % 996,4 hPa 0,0 mm 2,2 km/h (1 Bft) N-NO 13 ° 0 min 0,000 mm 0,5 UV-I 114 W/m² -0,4 °C 2,9 °C 3,2 km/h (1 Bft)
03.03.2018 16:45 3,0 °C 79 % 996,4 hPa 0,0 mm 0,9 km/h (0 Bft) N-NO 13 ° 0 min 0,000 mm 0,5 UV-I 114 W/m² -0,3 °C 3,0 °C 1,6 km/h (1 Bft)
03.03.2018 16:46 2,9 °C 79 % 996,4 hPa 0,0 mm 3,8 km/h (1 Bft) NO 49 ° 0 min 0,000 mm 0,5 UV-I 109 W/m² -0,4 °C 2,9 °C 8,0 km/h (2 Bft)
03.03.2018 16:47 2,9 °C 79 % 996,5 hPa 0,0 mm 3,6 km/h (1 Bft) O-NO 77 ° 0 min 0,000 mm 0,5 UV-I 107 W/m² -0,4 °C 2,9 °C 6,4 km/h (2 Bft)
03.03.2018 16:48 2,9 °C 79 % 996,5 hPa 0,0 mm 3,6 km/h (1 Bft) NO 36 ° 0 min 0,000 mm 0,5 UV-I 105 W/m² -0,4 °C 2,9 °C 6,4 km/h (2 Bft)
03.03.2018 16:49 2,9 °C 79 % 996,5 hPa 0,0 mm 3,2 km/h (1 Bft) NO 35 ° 0 min 0,000 mm 0,5 UV-I 104 W/m² -0,4 °C 2,9 °C 4,8 km/h (1 Bft)
03.03.2018 16:50 2,8 °C 79 % 996,5 hPa 0,0 mm 0,3 km/h (0 Bft) NO 35 ° 0 min 0,000 mm 0,5 UV-I 104 W/m² -0,5 °C 2,8 °C 1,6 km/h (1 Bft)
03.03.2018 16:51 2,9 °C 79 % 996,5 hPa 0,0 mm 2,8 km/h (1 Bft) O-NO 62 ° 0 min 0,000 mm 0,5 UV-I 100 W/m² -0,4 °C 2,9 °C 6,4 km/h (2 Bft)
03.03.2018 16:52 2,8 °C 79 % 996,5 hPa 0,0 mm 3,6 km/h (1 Bft) NO 40 ° 0 min 0,000 mm 0,5 UV-I 97 W/m² -0,5 °C 2,8 °C 4,8 km/h (1 Bft)
03.03.2018 16:53 2,8 °C 79 % 996,5 hPa 0,0 mm 3,6 km/h (1 Bft) NO 40 ° 0 min 0,000 mm 0,0 UV-I 93 W/m² -0,5 °C 2,8 °C 4,8 km/h (1 Bft)
03.03.2018 16:54 2,8 °C 79 % 996,4 hPa 0,0 mm 4,4 km/h (1 Bft) NO 36 ° 0 min 0,000 mm 0,0 UV-I 90 W/m² -0,5 °C 2,8 °C 6,4 km/h (2 Bft)
03.03.2018 16:55 2,8 °C 79 % 996,5 hPa 0,0 mm 1,3 km/h (1 Bft) NO 36 ° 0 min 0,000 mm 0,0 UV-I 88 W/m² -0,5 °C 2,8 °C 3,2 km/h (1 Bft)
03.03.2018 16:56 2,8 °C 79 % 996,5 hPa 0,0 mm 4,3 km/h (1 Bft) N-NO 21 ° 0 min 0,000 mm 0,0 UV-I 84 W/m² -0,5 °C 2,8 °C 6,4 km/h (2 Bft)
03.03.2018 16:57 2,8 °C 79 % 996,5 hPa 0,0 mm 4,4 km/h (1 Bft) N-NO 19 ° 0 min 0,000 mm 0,0 UV-I 81 W/m² -0,5 °C 2,8 °C 6,4 km/h (2 Bft)
03.03.2018 16:58 2,8 °C 79 % 996,5 hPa 0,0 mm 1,4 km/h (1 Bft) N-NO 19 ° 0 min 0,000 mm 0,0 UV-I 74 W/m² -0,5 °C 2,8 °C 1,6 km/h (1 Bft)
03.03.2018 16:59 2,8 °C 79 % 996,6 hPa 0,0 mm 1,5 km/h (1 Bft) N-NO 13 ° 0 min 0,000 mm 0,0 UV-I 72 W/m² -0,5 °C 2,8 °C 4,8 km/h (1 Bft)
03.03.2018 17:00 2,8 °C 79 % 996,6 hPa 0,0 mm 0,5 km/h (0 Bft) N-NO 13 ° 0 min 0,000 mm 0,0 UV-I 69 W/m² -0,5 °C 2,8 °C 1,6 km/h (1 Bft)
03.03.2018 17:01 2,8 °C 79 % 996,7 hPa 0,0 mm 2,3 km/h (1 Bft) N-NO 13 ° 0 min 0,050 mm 0,0 UV-I 67 W/m² -0,5 °C 2,8 °C 3,2 km/h (1 Bft)
03.03.2018 17:02 2,7 °C 79 % 996,8 hPa 0,0 mm 3,3 km/h (1 Bft) N 360 ° 0 min 0,000 mm 0,0 UV-I 65 W/m² -0,6 °C 2,7 °C 4,8 km/h (1 Bft)
03.03.2018 17:03 2,7 °C 79 % 996,9 hPa 0,0 mm 2,7 km/h (1 Bft) N 360 ° 0 min 0,000 mm 0,0 UV-I 63 W/m² -0,6 °C 2,7 °C 4,8 km/h (1 Bft)
03.03.2018 17:04 2,7 °C 79 % 996,9 hPa 0,0 mm 0,4 km/h (0 Bft) N 360 ° 0 min 0,000 mm 0,0 UV-I 58 W/m² -0,6 °C 2,7 °C 1,6 km/h (1 Bft)
03.03.2018 17:05 2,7 °C 79 % 997,0 hPa 0,0 mm 0,0 km/h (0 Bft) N 360 ° 0 min 0,000 mm 0,0 UV-I 56 W/m² -0,6 °C 2,7 °C 0,0 km/h (0 Bft)
03.03.2018 17:06 2,7 °C 80 % 997,0 hPa 0,0 mm 0,7 km/h (0 Bft) N 360 ° 0 min 0,000 mm 0,0 UV-I 54 W/m² -0,4 °C 2,7 °C 3,2 km/h (1 Bft)
03.03.2018 17:07 2,7 °C 80 % 997,0 hPa 0,0 mm 2,8 km/h (1 Bft) NW 321 ° 0 min 0,000 mm 0,0 UV-I 53 W/m² -0,4 °C 2,7 °C 4,8 km/h (1 Bft)
03.03.2018 17:08 2,6 °C 80 % 997,1 hPa 0,0 mm 3,4 km/h (1 Bft) NW 321 ° 0 min 0,000 mm 0,0 UV-I 53 W/m² -0,5 °C 2,6 °C 4,8 km/h (1 Bft)
03.03.2018 17:09 2,6 °C 80 % 997,1 hPa 0,0 mm 2,1 km/h (1 Bft) N-NW 346 ° 0 min 0,000 mm 0,0 UV-I 46 W/m² -0,5 °C 2,6 °C 4,8 km/h (1 Bft)
03.03.2018 17:10 2,6 °C 80 % 997,0 hPa 0,0 mm 3,4 km/h (1 Bft) N 5 ° 0 min 0,000 mm 0,0 UV-I 42 W/m² -0,5 °C 2,6 °C 4,8 km/h (1 Bft)
03.03.2018 17:11 2,5 °C 80 % 997,0 hPa 0,0 mm 1,8 km/h (1 Bft) N 5 ° 0 min 0,000 mm 0,0 UV-I 40 W/m² -0,6 °C 2,5 °C 3,2 km/h (1 Bft)
03.03.2018 17:12 2,5 °C 80 % 997,0 hPa 0,0 mm 0,0 km/h (0 Bft) N 5 ° 0 min 0,000 mm 0,0 UV-I 39 W/m² -0,6 °C 2,5 °C 0,0 km/h (0 Bft)
03.03.2018 17:13 2,4 °C 81 % 997,1 hPa 0,0 mm 0,0 km/h (0 Bft) N 5 ° 0 min 0,000 mm 0,0 UV-I 35 W/m² -0,5 °C 2,4 °C 0,0 km/h (0 Bft)
03.03.2018 17:14 2,4 °C 81 % 997,2 hPa 0,0 mm 0,0 km/h (0 Bft) N 360 ° 0 min 0,000 mm 0,0 UV-I 33 W/m² -0,5 °C 2,4 °C 0,0 km/h (0 Bft)
03.03.2018 17:15 2,4 °C 81 % 997,1 hPa 0,0 mm 0,0 km/h (0 Bft) N 360 ° 0 min 0,000 mm 0,0 UV-I 30 W/m² -0,5 °C 2,4 °C 0,0 km/h (0 Bft)
03.03.2018 17:16 2,4 °C 81 % 997,1 hPa 0,0 mm 0,0 km/h (0 Bft) N 360 ° 0 min 0,000 mm 0,0 UV-I 28 W/m² -0,5 °C 2,4 °C 0,0 km/h (0 Bft)
03.03.2018 17:17 2,3 °C 81 % 997,1 hPa 0,0 mm 1,3 km/h (1 Bft) N 360 ° 0 min 0,000 mm 0,0 UV-I 26 W/m² -0,6 °C 2,3 °C 3,2 km/h (1 Bft)
03.03.2018 17:18 2,3 °C 81 % 997,2 hPa 0,0 mm 0,1 km/h (0 Bft) N 360 ° 0 min 0,000 mm 0,0 UV-I 26 W/m² -0,6 °C 2,3 °C 1,6 km/h (1 Bft)
03.03.2018 17:19 2,3 °C 82 % 997,2 hPa 0,0 mm 0,0 km/h (0 Bft) N 360 ° 0 min 0,000 mm 0,0 UV-I 25 W/m² -0,4 °C 2,3 °C 0,0 km/h (0 Bft)
03.03.2018 17:20 2,2 °C 82 % 997,3 hPa 0,0 mm 0,0 km/h (0 Bft) N 360 ° 0 min 0,000 mm 0,0 UV-I 25 W/m² -0,5 °C 2,2 °C 0,0 km/h (0 Bft)
03.03.2018 17:21 2,2 °C 82 % 997,3 hPa 0,0 mm 1,1 km/h (1 Bft) N 360 ° 0 min 0,000 mm 0,0 UV-I 23 W/m² -0,5 °C 2,2 °C 3,2 km/h (1 Bft)
03.03.2018 17:22 2,2 °C 82 % 997,3 hPa 0,0 mm 0,5 km/h (0 Bft) N 360 ° 0 min 0,000 mm 0,0 UV-I 23 W/m² -0,5 °C 2,2 °C 1,6 km/h (1 Bft)
03.03.2018 17:23 2,2 °C 82 % 997,4 hPa 0,0 mm 2,3 km/h (1 Bft) N 360 ° 0 min 0,000 mm 0,0 UV-I 23 W/m² -0,5 °C 2,2 °C 4,8 km/h (1 Bft)
03.03.2018 17:24 2,2 °C 82 % 997,4 hPa 0,0 mm 1,5 km/h (1 Bft) N 360 ° 0 min 0,000 mm 0,0 UV-I 23 W/m² -0,5 °C 2,2 °C 3,2 km/h (1 Bft)
03.03.2018 17:25 2,2 °C 82 % 997,4 hPa 0,0 mm 0,3 km/h (0 Bft) N 360 ° 0 min 0,000 mm 0,0 UV-I 23 W/m² -0,5 °C 2,2 °C 1,6 km/h (1 Bft)
03.03.2018 17:26 2,2 °C 82 % 997,5 hPa 0,0 mm 0,0 km/h (0 Bft) N 360 ° 0 min 0,000 mm 0,0 UV-I 23 W/m² -0,5 °C 2,2 °C 0,0 km/h (0 Bft)
03.03.2018 17:27 2,1 °C 82 % 997,5 hPa 0,0 mm 0,0 km/h (0 Bft) N 360 ° 0 min 0,000 mm 0,0 UV-I 21 W/m² -0,6 °C 2,1 °C 0,0 km/h (0 Bft)
03.03.2018 17:28 2,1 °C 82 % 997,5 hPa 0,0 mm 0,0 km/h (0 Bft) N 360 ° 0 min 0,000 mm 0,0 UV-I 21 W/m² -0,6 °C 2,1 °C 0,0 km/h (0 Bft)
03.03.2018 17:29 2,1 °C 82 % 997,5 hPa 0,0 mm 0,0 km/h (0 Bft) N 360 ° 0 min 0,000 mm 0,0 UV-I 19 W/m² -0,6 °C 2,1 °C 0,0 km/h (0 Bft)
03.03.2018 17:30 2,0 °C 82 % 997,5 hPa 0,0 mm 0,0 km/h (0 Bft) N 360 ° 0 min 0,000 mm 0,0 UV-I 19 W/m² -0,7 °C 2,0 °C 0,0 km/h (0 Bft)
03.03.2018 17:31 2,1 °C 82 % 997,5 hPa 0,0 mm 0,0 km/h (0 Bft) N 360 ° 0 min 0,000 mm 0,0 UV-I 19 W/m² -0,6 °C 2,1 °C 0,0 km/h (0 Bft)
03.03.2018 17:32 2,0 °C 82 % 997,5 hPa 0,0 mm 0,0 km/h (0 Bft) N 360 ° 0 min 0,000 mm 0,0 UV-I 18 W/m² -0,7 °C 2,0 °C 0,0 km/h (0 Bft)
03.03.2018 17:33 2,0 °C 82 % 997,5 hPa 0,0 mm 0,0 km/h (0 Bft) N 360 ° 0 min 0,000 mm 0,0 UV-I 18 W/m² -0,7 °C 2,0 °C 0,0 km/h (0 Bft)
03.03.2018 17:34 2,0 °C 82 % 997,5 hPa 0,0 mm 0,0 km/h (0 Bft) N 360 ° 0 min 0,000 mm 0,0 UV-I 18 W/m² -0,7 °C 2,0 °C 0,0 km/h (0 Bft)
03.03.2018 17:35 1,9 °C 82 % 997,5 hPa 0,0 mm 0,0 km/h (0 Bft) N 360 ° 0 min 0,000 mm 0,0 UV-I 16 W/m² -0,8 °C 1,9 °C 0,0 km/h (0 Bft)
03.03.2018 17:36 2,0 °C 82 % 997,6 hPa 0,0 mm 0,0 km/h (0 Bft) N 360 ° 0 min 0,000 mm 0,0 UV-I 16 W/m² -0,7 °C 2,0 °C 0,0 km/h (0 Bft)
03.03.2018 17:37 2,0 °C 82 % 997,6 hPa 0,0 mm 0,0 km/h (0 Bft) N 360 ° 0 min 0,000 mm 0,0 UV-I 16 W/m² -0,7 °C 2,0 °C 0,0 km/h (0 Bft)
03.03.2018 17:38 1,9 °C 82 % 997,6 hPa 0,0 mm 0,0 km/h (0 Bft) N 360 ° 0 min 0,000 mm 0,0 UV-I 14 W/m² -0,8 °C 1,9 °C 0,0 km/h (0 Bft)
03.03.2018 17:39 1,9 °C 82 % 997,6 hPa 0,0 mm 0,0 km/h (0 Bft) N 360 ° 0 min 0,000 mm 0,0 UV-I 14 W/m² -0,8 °C 1,9 °C 0,0 km/h (0 Bft)
03.03.2018 17:40 1,9 °C 82 % 997,6 hPa 0,0 mm 0,0 km/h (0 Bft) N 360 ° 0 min 0,000 mm 0,0 UV-I 14 W/m² -0,8 °C 1,9 °C 0,0 km/h (0 Bft)
03.03.2018 17:41 1,9 °C 83 % 997,6 hPa 0,0 mm 0,0 km/h (0 Bft) N 360 ° 0 min 0,000 mm 0,0 UV-I 14 W/m² -0,7 °C 1,9 °C 0,0 km/h (0 Bft)
03.03.2018 17:42 1,9 °C 83 % 997,7 hPa 0,0 mm 0,0 km/h (0 Bft) N 360 ° 0 min 0,000 mm 0,0 UV-I 12 W/m² -0,7 °C 1,9 °C 0,0 km/h (0 Bft)
03.03.2018 17:43 1,9 °C 83 % 997,7 hPa 0,0 mm 0,0 km/h (0 Bft) N 360 ° 0 min 0,000 mm 0,0 UV-I 12 W/m² -0,7 °C 1,9 °C 0,0 km/h (0 Bft)
03.03.2018 17:44 1,8 °C 83 % 997,7 hPa 0,0 mm 0,0 km/h (0 Bft) N 360 ° 0 min 0,000 mm 0,0 UV-I 12 W/m² -0,8 °C 1,8 °C 0,0 km/h (0 Bft)
03.03.2018 17:45 1,8 °C 83 % 997,7 hPa 0,0 mm 1,0 km/h (0 Bft) N 360 ° 0 min 0,000 mm 0,0 UV-I 12 W/m² -0,8 °C 1,8 °C 1,6 km/h (1 Bft)
03.03.2018 17:46 1,7 °C 83 % 997,7 hPa 0,0 mm 1,3 km/h (1 Bft) N 360 ° 0 min 0,000 mm 0,0 UV-I 11 W/m² -0,9 °C 1,7 °C 1,6 km/h (1 Bft)
03.03.2018 17:47 1,7 °C 84 % 997,7 hPa 0,0 mm 0,7 km/h (0 Bft) N 360 ° 0 min 0,000 mm 0,0 UV-I 11 W/m² -0,7 °C 1,7 °C 1,6 km/h (1 Bft)
03.03.2018 17:48 1,7 °C 85 % 997,7 hPa 0,0 mm 0,3 km/h (0 Bft) N 360 ° 0 min 0,000 mm 0,0 UV-I 11 W/m² -0,5 °C 1,7 °C 1,6 km/h (1 Bft)
03.03.2018 17:49 1,6 °C 85 % 997,7 hPa 0,0 mm 0,0 km/h (0 Bft) N 360 ° 0 min 0,000 mm 0,0 UV-I 9 W/m² -0,6 °C 1,6 °C 0,0 km/h (0 Bft)
03.03.2018 17:50 1,6 °C 85 % 997,7 hPa 0,0 mm 0,0 km/h (0 Bft) N 360 ° 0 min 0,000 mm 0,0 UV-I 7 W/m² -0,6 °C 1,6 °C 0,0 km/h (0 Bft)
03.03.2018 17:51 1,6 °C 85 % 997,8 hPa 0,0 mm 0,0 km/h (0 Bft) N 360 ° 0 min 0,000 mm 0,0 UV-I 7 W/m² -0,6 °C 1,6 °C 0,0 km/h (0 Bft)
03.03.2018 17:52 1,5 °C 85 % 997,8 hPa 0,0 mm 0,0 km/h (0 Bft) N 360 ° 0 min 0,000 mm 0,0 UV-I 7 W/m² -0,7 °C 1,5 °C 0,0 km/h (0 Bft)
03.03.2018 17:53 1,5 °C 85 % 997,8 hPa 0,0 mm 0,0 km/h (0 Bft) N 360 ° 0 min 0,000 mm 0,0 UV-I 7 W/m² -0,7 °C 1,5 °C 0,0 km/h (0 Bft)
03.03.2018 17:54 1,4 °C 85 % 997,8 hPa 0,0 mm 0,0 km/h (0 Bft) N 360 ° 0 min 0,000 mm 0,0 UV-I 5 W/m² -0,8 °C 1,4 °C 0,0 km/h (0 Bft)
03.03.2018 17:55 1,4 °C 85 % 997,8 hPa 0,0 mm 0,0 km/h (0 Bft) N 360 ° 0 min 0,000 mm 0,0 UV-I 5 W/m² -0,8 °C 1,4 °C 0,0 km/h (0 Bft)
03.03.2018 17:56 1,4 °C 85 % 997,8 hPa 0,0 mm 0,0 km/h (0 Bft) N 360 ° 0 min 0,000 mm 0,0 UV-I 5 W/m² -0,8 °C 1,4 °C 0,0 km/h (0 Bft)
03.03.2018 17:57 1,4 °C 85 % 997,9 hPa 0,0 mm 0,0 km/h (0 Bft) N 360 ° 0 min 0,000 mm 0,0 UV-I 5 W/m² -0,8 °C 1,4 °C 0,0 km/h (0 Bft)
03.03.2018 17:58 1,4 °C 85 % 997,9 hPa 0,0 mm 0,0 km/h (0 Bft) N 360 ° 0 min 0,000 mm 0,0 UV-I 0 W/m² -0,8 °C 1,4 °C 0,0 km/h (0 Bft)
03.03.2018 17:59 1,4 °C 85 % 997,9 hPa 0,0 mm 0,0 km/h (0 Bft) N 360 ° 0 min 0,000 mm 0,0 UV-I 0 W/m² -0,8 °C 1,4 °C 0,0 km/h (0 Bft)
03.03.2018 18:00 1,4 °C 85 % 997,9 hPa 0,0 mm 0,0 km/h (0 Bft) N 360 ° 0 min 0,000 mm 0,0 UV-I 0 W/m² -0,8 °C 1,4 °C 0,0 km/h (0 Bft)
03.03.2018 18:01 1,4 °C 85 % 997,9 hPa 0,0 mm 0,0 km/h (0 Bft) N 360 ° 0 min 0,000 mm 0,0 UV-I 0 W/m² -0,8 °C 1,4 °C 0,0 km/h (0 Bft)
03.03.2018 18:02 1,4 °C 86 % 998,0 hPa 0,0 mm 0,7 km/h (0 Bft) N 360 ° 0 min 0,000 mm 0,0 UV-I 0 W/m² -0,7 °C 1,4 °C 1,6 km/h (1 Bft)
03.03.2018 18:03 1,3 °C 86 % 998,0 hPa 0,0 mm 1,5 km/h (1 Bft) N 360 ° 0 min 0,000 mm 0,0 UV-I 0 W/m² -0,8 °C 1,3 °C 3,2 km/h (1 Bft)
03.03.2018 18:04 1,4 °C 86 % 998,0 hPa 0,0 mm 1,2 km/h (1 Bft) N 360 ° 0 min 0,000 mm 0,0 UV-I 0 W/m² -0,7 °C 1,4 °C 3,2 km/h (1 Bft)
03.03.2018 18:05 1,4 °C 86 % 998,1 hPa 0,0 mm 1,2 km/h (1 Bft) N 360 ° 0 min 0,000 mm 0,0 UV-I 0 W/m² -0,7 °C 1,4 °C 3,2 km/h (1 Bft)
03.03.2018 18:06 1,4 °C 86 % 998,1 hPa 0,0 mm 3,0 km/h (1 Bft) N 360 ° 0 min 0,000 mm 0,0 UV-I 0 W/m² -0,7 °C 1,4 °C 3,2 km/h (1 Bft)
03.03.2018 18:07 1,3 °C 87 % 998,1 hPa 0,0 mm 1,5 km/h (1 Bft) N 360 ° 0 min 0,000 mm 0,0 UV-I 0 W/m² -0,6 °C 1,3 °C 3,2 km/h (1 Bft)
03.03.2018 18:08 1,3 °C 87 % 998,1 hPa 0,0 mm 1,3 km/h (1 Bft) N 360 ° 0 min 0,000 mm 0,0 UV-I 0 W/m² -0,6 °C 1,3 °C 1,6 km/h (1 Bft)
03.03.2018 18:09 1,3 °C 87 % 998,2 hPa 0,0 mm 0,0 km/h (0 Bft) N 360 ° 0 min 0,000 mm 0,0 UV-I 0 W/m² -0,6 °C 1,3 °C 0,0 km/h (0 Bft)
03.03.2018 18:10 1,3 °C 87 % 998,2 hPa 0,0 mm 0,0 km/h (0 Bft) N 360 ° 0 min 0,000 mm 0,0 UV-I 0 W/m² -0,6 °C 1,3 °C 0,0 km/h (0 Bft)
03.03.2018 18:11 1,2 °C 87 % 998,3 hPa 0,0 mm 0,0 km/h (0 Bft) N 360 ° 0 min 0,000 mm 0,0 UV-I 0 W/m² -0,7 °C 1,2 °C 0,0 km/h (0 Bft)
03.03.2018 18:12 1,2 °C 87 % 998,3 hPa 0,0 mm 0,0 km/h (0 Bft) N 360 ° 0 min 0,000 mm 0,0 UV-I 0 W/m² -0,7 °C 1,2 °C 0,0 km/h (0 Bft)
03.03.2018 18:13 1,2 °C 88 % 998,3 hPa 0,0 mm 0,0 km/h (0 Bft) N 360 ° 0 min 0,000 mm 0,0 UV-I 0 W/m² -0,6 °C 1,2 °C 0,0 km/h (0 Bft)
03.03.2018 18:14 1,2 °C 88 % 998,3 hPa 0,0 mm 0,0 km/h (0 Bft) N 360 ° 0 min 0,000 mm 0,0 UV-I 0 W/m² -0,6 °C 1,2 °C 0,0 km/h (0 Bft)
03.03.2018 18:15 1,1 °C 88 % 998,4 hPa 0,0 mm 0,0 km/h (0 Bft) N 360 ° 0 min 0,000 mm 0,0 UV-I 0 W/m² -0,7 °C 1,1 °C 0,0 km/h (0 Bft)
03.03.2018 18:16 1,1 °C 88 % 998,4 hPa 0,0 mm 0,0 km/h (0 Bft) N 360 ° 0 min 0,000 mm 0,0 UV-I 0 W/m² -0,7 °C 1,1 °C 0,0 km/h (0 Bft)
03.03.2018 18:17 1,1 °C 88 % 998,4 hPa 0,0 mm 0,0 km/h (0 Bft) N 360 ° 0 min 0,000 mm 0,0 UV-I 0 W/m² -0,7 °C 1,1 °C 0,0 km/h (0 Bft)
03.03.2018 18:18 1,1 °C 88 % 998,4 hPa 0,0 mm 0,0 km/h (0 Bft) N 360 ° 0 min 0,000 mm 0,0 UV-I 0 W/m² -0,7 °C 1,1 °C 0,0 km/h (0 Bft)
03.03.2018 18:19 1,1 °C 88 % 998,5 hPa 0,0 mm 0,0 km/h (0 Bft) N 360 ° 0 min 0,000 mm 0,0 UV-I 0 W/m² -0,7 °C 1,1 °C 0,0 km/h (0 Bft)
03.03.2018 18:20 1,1 °C 88 % 998,5 hPa 0,0 mm 0,0 km/h (0 Bft) N 360 ° 0 min 0,000 mm 0,0 UV-I 0 W/m² -0,7 °C 1,1 °C 0,0 km/h (0 Bft)
03.03.2018 18:21 1,1 °C 88 % 998,6 hPa 0,0 mm 0,0 km/h (0 Bft) N 360 ° 0 min 0,000 mm 0,0 UV-I 0 W/m² -0,7 °C 1,1 °C 0,0 km/h (0 Bft)
03.03.2018 18:22 1,1 °C 88 % 998,6 hPa 0,0 mm 0,0 km/h (0 Bft) N 360 ° 0 min 0,000 mm 0,0 UV-I 0 W/m² -0,7 °C 1,1 °C 0,0 km/h (0 Bft)
03.03.2018 18:23 1,1 °C 88 % 998,6 hPa 0,0 mm 0,0 km/h (0 Bft) N 360 ° 0 min 0,000 mm 0,0 UV-I 0 W/m² -0,7 °C 1,1 °C 0,0 km/h (0 Bft)
03.03.2018 18:24 1,1 °C 88 % 998,6 hPa 0,0 mm 0,0 km/h (0 Bft) N 360 ° 0 min 0,000 mm 0,0 UV-I 0 W/m² -0,7 °C 1,1 °C 0,0 km/h (0 Bft)
03.03.2018 18:25 1,1 °C 88 % 998,7 hPa 0,0 mm 0,0 km/h (0 Bft) N 360 ° 0 min 0,000 mm 0,0 UV-I 0 W/m² -0,7 °C 1,1 °C 0,0 km/h (0 Bft)
03.03.2018 18:26 1,1 °C 88 % 998,7 hPa 0,0 mm 0,0 km/h (0 Bft) N 360 ° 0 min 0,000 mm 0,0 UV-I 0 W/m² -0,7 °C 1,1 °C 0,0 km/h (0 Bft)
03.03.2018 18:27 1,1 °C 88 % 998,7 hPa 0,0 mm 0,0 km/h (0 Bft) N 360 ° 0 min 0,000 mm 0,0 UV-I 0 W/m² -0,7 °C 1,1 °C 0,0 km/h (0 Bft)
03.03.2018 18:28 1,1 °C 88 % 998,7 hPa 0,0 mm 0,0 km/h (0 Bft) N 360 ° 0 min 0,000 mm 0,0 UV-I 0 W/m² -0,7 °C 1,1 °C 0,0 km/h (0 Bft)
03.03.2018 18:29 1,1 °C 88 % 998,8 hPa 0,0 mm 0,3 km/h (0 Bft) N 360 ° 0 min 0,000 mm 0,0 UV-I 0 W/m² -0,7 °C 1,1 °C 1,6 km/h (1 Bft)
03.03.2018 18:30 1,0 °C 88 % 998,8 hPa 0,0 mm 0,6 km/h (0 Bft) N 360 ° 0 min 0,000 mm 0,0 UV-I 0 W/m² -0,8 °C 1,0 °C 1,6 km/h (1 Bft)
03.03.2018 18:31 1,0 °C 88 % 998,8 hPa 0,0 mm 2,3 km/h (1 Bft) N 360 ° 0 min 0,000 mm 0,0 UV-I 0 W/m² -0,8 °C 1,0 °C 4,8 km/h (1 Bft)
03.03.2018 18:32 1,0 °C 88 % 998,8 hPa 0,0 mm 2,7 km/h (1 Bft) N 360 ° 0 min 0,000 mm 0,0 UV-I 0 W/m² -0,8 °C 1,0 °C 3,2 km/h (1 Bft)
03.03.2018 18:33 1,1 °C 89 % 998,8 hPa 0,0 mm 0,7 km/h (0 Bft) N 360 ° 0 min 0,000 mm 0,0 UV-I 0 W/m² -0,5 °C 1,1 °C 1,6 km/h (1 Bft)
03.03.2018 18:34 1,1 °C 88 % 998,8 hPa 0,0 mm 0,0 km/h (0 Bft) N 360 ° 0 min 0,000 mm 0,0 UV-I 0 W/m² -0,7 °C 1,1 °C 0,0 km/h (0 Bft)
03.03.2018 18:35 1,1 °C 88 % 998,8 hPa 0,0 mm 1,3 km/h (1 Bft) N 360 ° 0 min 0,000 mm 0,0 UV-I 0 W/m² -0,7 °C 1,1 °C 3,2 km/h (1 Bft)
03.03.2018 18:36 1,1 °C 88 % 998,9 hPa 0,0 mm 1,3 km/h (1 Bft) N 360 ° 0 min 0,000 mm 0,0 UV-I 0 W/m² -0,7 °C 1,1 °C 3,2 km/h (1 Bft)
03.03.2018 18:37 1,1 °C 88 % 998,9 hPa 0,0 mm 3,2 km/h (1 Bft) N 360 ° 0 min 0,000 mm 0,0 UV-I 0 W/m² -0,7 °C 1,1 °C 4,8 km/h (1 Bft)
03.03.2018 18:38 1,1 °C 88 % 998,9 hPa 0,0 mm 0,5 km/h (0 Bft) N 360 ° 0 min 0,000 mm 0,0 UV-I 0 W/m² -0,7 °C 1,1 °C 3,2 km/h (1 Bft)
03.03.2018 18:39 1,1 °C 88 % 998,9 hPa 0,0 mm 1,4 km/h (1 Bft) N 360 ° 0 min 0,000 mm 0,0 UV-I 0 W/m² -0,7 °C 1,1 °C 3,2 km/h (1 Bft)
03.03.2018 18:40 1,0 °C 88 % 998,9 hPa 0,0 mm 0,7 km/h (0 Bft) N 360 ° 0 min 0,000 mm 0,0 UV-I 0 W/m² -0,8 °C 1,0 °C 1,6 km/h (1 Bft)
03.03.2018 18:41 1,0 °C 89 % 998,9 hPa 0,0 mm 0,0 km/h (0 Bft) N 360 ° 0 min 0,000 mm 0,0 UV-I 0 W/m² -0,6 °C 1,0 °C 0,0 km/h (0 Bft)
03.03.2018 18:42 1,0 °C 89 % 998,9 hPa 0,0 mm 0,9 km/h (0 Bft) N 360 ° 0 min 0,000 mm 0,0 UV-I 0 W/m² -0,6 °C 1,0 °C 1,6 km/h (1 Bft)
03.03.2018 18:43 1,0 °C 89 % 999,0 hPa 0,0 mm 1,7 km/h (1 Bft) N 360 ° 0 min 0,000 mm 0,0 UV-I 0 W/m² -0,6 °C 1,0 °C 3,2 km/h (1 Bft)
03.03.2018 18:44 1,1 °C 88 % 999,0 hPa 0,0 mm 1,6 km/h (1 Bft) N 360 ° 0 min 0,000 mm 0,0 UV-I 0 W/m² -0,7 °C 1,1 °C 3,2 km/h (1 Bft)
03.03.2018 18:45 1,1 °C 88 % 999,0 hPa 0,0 mm 3,0 km/h (1 Bft) N 360 ° 0 min 0,000 mm 0,0 UV-I 0 W/m² -0,7 °C 1,1 °C 4,8 km/h (1 Bft)
03.03.2018 18:46 1,1 °C 88 % 999,0 hPa 0,0 mm 0,9 km/h (0 Bft) N 360 ° 0 min 0,000 mm 0,0 UV-I 0 W/m² -0,7 °C 1,1 °C 3,2 km/h (1 Bft)
03.03.2018 18:47 1,1 °C 88 % 998,9 hPa 0,0 mm 0,5 km/h (0 Bft) N 5 ° 0 min 0,000 mm 0,0 UV-I 0 W/m² -0,7 °C 1,1 °C 1,6 km/h (1 Bft)
03.03.2018 18:48 1,1 °C 88 % 999,0 hPa 0,0 mm 0,0 km/h (0 Bft) N 5 ° 0 min 0,000 mm 0,0 UV-I 0 W/m² -0,7 °C 1,1 °C 0,0 km/h (0 Bft)
03.03.2018 18:49 1,2 °C 88 % 998,9 hPa 0,0 mm 0,4 km/h (0 Bft) N 5 ° 0 min 0,000 mm 0,0 UV-I 0 W/m² -0,6 °C 1,2 °C 1,6 km/h (1 Bft)
03.03.2018 18:50 1,2 °C 87 % 999,0 hPa 0,0 mm 0,0 km/h (0 Bft) N 5 ° 0 min 0,000 mm 0,0 UV-I 0 W/m² -0,7 °C 1,2 °C 0,0 km/h (0 Bft)
03.03.2018 18:51 1,3 °C 87 % 999,0 hPa 0,0 mm 0,0 km/h (0 Bft) N 5 ° 0 min 0,000 mm 0,0 UV-I 0 W/m² -0,6 °C 1,3 °C 0,0 km/h (0 Bft)
03.03.2018 18:52 1,3 °C 87 % 998,9 hPa 0,0 mm 0,3 km/h (0 Bft) N 5 ° 0 min 0,000 mm 0,0 UV-I 0 W/m² -0,6 °C 1,3 °C 3,2 km/h (1 Bft)
03.03.2018 18:53 1,3 °C 86 % 999,0 hPa 0,0 mm 1,9 km/h (1 Bft) N 5 ° 0 min 0,000 mm 0,0 UV-I 0 W/m² -0,8 °C 1,3 °C 3,2 km/h (1 Bft)
03.03.2018 18:54 1,4 °C 86 % 998,9 hPa 0,0 mm 1,1 km/h (1 Bft) N 5 ° 0 min 0,000 mm 0,0 UV-I 0 W/m² -0,7 °C 1,4 °C 3,2 km/h (1 Bft)
03.03.2018 18:55 1,4 °C 86 % 999,0 hPa 0,0 mm 1,4 km/h (1 Bft) N 5 ° 0 min 0,000 mm 0,0 UV-I 0 W/m² -0,7 °C 1,4 °C 3,2 km/h (1 Bft)
03.03.2018 18:56 1,4 °C 86 % 999,0 hPa 0,0 mm 1,9 km/h (1 Bft) N 355 ° 0 min 0,000 mm 0,0 UV-I 0 W/m² -0,7 °C 1,4 °C 3,2 km/h (1 Bft)
03.03.2018 18:57 1,4 °C 86 % 999,0 hPa 0,0 mm 4,4 km/h (1 Bft) W 266 ° 0 min 0,000 mm 0,0 UV-I 0 W/m² -0,7 °C 1,4 °C 4,8 km/h (1 Bft)
03.03.2018 18:58 1,4 °C 86 % 999,0 hPa 0,0 mm 2,0 km/h (1 Bft) W 266 ° 0 min 0,000 mm 0,0 UV-I 0 W/m² -0,7 °C 1,4 °C 3,2 km/h (1 Bft)
03.03.2018 18:59 1,4 °C 86 % 999,0 hPa 0,0 mm 2,7 km/h (1 Bft) W-NW 285 ° 0 min 0,000 mm 0,0 UV-I 0 W/m² -0,7 °C 1,4 °C 3,2 km/h (1 Bft)
03.03.2018 19:00 1,4 °C 86 % 999,1 hPa 0,0 mm 0,2 km/h (0 Bft) W-NW 285 ° 0 min 0,000 mm 0,0 UV-I 0 W/m² -0,7 °C 1,4 °C 1,6 km/h (1 Bft)
03.03.2018 19:01 1,4 °C 86 % 999,1 hPa 0,0 mm 0,0 km/h (0 Bft) W-NW 285 ° 0 min 0,000 mm 0,0 UV-I 0 W/m² -0,7 °C 1,4 °C 0,0 km/h (0 Bft)
03.03.2018 19:02 1,4 °C 86 % 999,1 hPa 0,0 mm 0,0 km/h (0 Bft) W-NW 285 ° 0 min 0,000 mm 0,0 UV-I 0 W/m² -0,7 °C 1,4 °C 0,0 km/h (0 Bft)
03.03.2018 19:03 1,4 °C 86 % 999,1 hPa 0,0 mm 1,4 km/h (1 Bft) W-NW 285 ° 0 min 0,000 mm 0,0 UV-I 0 W/m² -0,7 °C 1,4 °C 4,8 km/h (1 Bft)
03.03.2018 19:04 1,3 °C 86 % 999,1 hPa 0,0 mm 1,9 km/h (1 Bft) W-NW 285 ° 0 min 0,000 mm 0,0 UV-I 0 W/m² -0,8 °C 1,3 °C 3,2 km/h (1 Bft)
03.03.2018 19:05 1,3 °C 86 % 999,1 hPa 0,0 mm 2,3 km/h (1 Bft) W-NW 284 ° 0 min 0,000 mm 0,0 UV-I 0 W/m² -0,8 °C 1,3 °C 4,8 km/h (1 Bft)
03.03.2018 19:06 1,3 °C 86 % 999,2 hPa 0,0 mm 2,1 km/h (1 Bft) W-NW 284 ° 0 min 0,000 mm 0,0 UV-I 0 W/m² -0,8 °C 1,3 °C 3,2 km/h (1 Bft)
03.03.2018 19:07 1,3 °C 86 % 999,2 hPa 0,0 mm 1,8 km/h (1 Bft) W-NW 284 ° 0 min 0,000 mm 0,0 UV-I 0 W/m² -0,8 °C 1,3 °C 3,2 km/h (1 Bft)
03.03.2018 19:08 1,3 °C 86 % 999,1 hPa 0,0 mm 1,4 km/h (1 Bft) W-NW 284 ° 0 min 0,000 mm 0,0 UV-I 0 W/m² -0,8 °C 1,3 °C 3,2 km/h (1 Bft)
03.03.2018 19:09 1,3 °C 86 % 999,2 hPa 0,0 mm 0,9 km/h (0 Bft) W-NW 284 ° 0 min 0,000 mm 0,0 UV-I 0 W/m² -0,8 °C 1,3 °C 1,6 km/h (1 Bft)
03.03.2018 19:10 1,2 °C 86 % 999,2 hPa 0,0 mm 0,3 km/h (0 Bft) W-NW 285 ° 0 min 0,000 mm 0,0 UV-I 0 W/m² -0,9 °C 1,2 °C 1,6 km/h (1 Bft)
03.03.2018 19:11 1,2 °C 87 % 999,1 hPa 0,0 mm 1,0 km/h (0 Bft) W-NW 284 ° 0 min 0,000 mm 0,0 UV-I 0 W/m² -0,7 °C 1,2 °C 3,2 km/h (1 Bft)
03.03.2018 19:12 1,2 °C 87 % 999,2 hPa 0,0 mm 1,0 km/h (0 Bft) W-NW 285 ° 0 min 0,000 mm 0,0 UV-I 0 W/m² -0,7 °C 1,2 °C 3,2 km/h (1 Bft)
03.03.2018 19:13 1,2 °C 86 % 999,2 hPa 0,0 mm 1,2 km/h (1 Bft) W-NW 284 ° 0 min 0,000 mm 0,0 UV-I 0 W/m² -0,9 °C 1,2 °C 3,2 km/h (1 Bft)
03.03.2018 19:14 1,2 °C 87 % 999,1 hPa 0,0 mm 0,0 km/h (0 Bft) W-NW 284 ° 0 min 0,000 mm 0,0 UV-I 0 W/m² -0,7 °C 1,2 °C 0,0 km/h (0 Bft)
03.03.2018 19:15 1,2 °C 87 % 999,2 hPa 0,0 mm 0,0 km/h (0 Bft) W-NW 284 ° 0 min 0,000 mm 0,0 UV-I 0 W/m² -0,7 °C 1,2 °C 0,0 km/h (0 Bft)
03.03.2018 19:16 1,2 °C 87 % 999,2 hPa 0,0 mm 0,0 km/h (0 Bft) W-NW 285 ° 0 min 0,000 mm 0,0 UV-I 0 W/m² -0,7 °C 1,2 °C 0,0 km/h (0 Bft)
03.03.2018 19:17 1,2 °C 87 % 999,2 hPa 0,0 mm 0,0 km/h (0 Bft) W-NW 285 ° 0 min 0,000 mm 0,0 UV-I 0 W/m² -0,7 °C 1,2 °C 0,0 km/h (0 Bft)
03.03.2018 19:18 1,2 °C 87 % 999,2 hPa 0,0 mm 0,0 km/h (0 Bft) W-NW 284 ° 0 min 0,000 mm 0,0 UV-I 0 W/m² -0,7 °C 1,2 °C 0,0 km/h (0 Bft)
03.03.2018 19:19 1,1 °C 87 % 999,2 hPa 0,0 mm 0,0 km/h (0 Bft) W-NW 284 ° 0 min 0,000 mm 0,0 UV-I 0 W/m² -0,8 °C 1,1 °C 0,0 km/h (0 Bft)
03.03.2018 19:20 1,1 °C 87 % 999,2 hPa 0,0 mm 0,0 km/h (0 Bft) W-NW 285 ° 0 min 0,000 mm 0,0 UV-I 0 W/m² -0,8 °C 1,1 °C 0,0 km/h (0 Bft)
03.03.2018 19:21 1,1 °C 87 % 999,2 hPa 0,0 mm 0,0 km/h (0 Bft) W-NW 284 ° 0 min 0,000 mm 0,0 UV-I 0 W/m² -0,8 °C 1,1 °C 0,0 km/h (0 Bft)
03.03.2018 19:22 1,1 °C 87 % 999,2 hPa 0,0 mm 0,0 km/h (0 Bft) W-NW 285 ° 0 min 0,000 mm 0,0 UV-I 0 W/m² -0,8 °C 1,1 °C 0,0 km/h (0 Bft)
03.03.2018 19:23 1,1 °C 87 % 999,2 hPa 0,0 mm 0,0 km/h (0 Bft) W-NW 284 ° 0 min 0,000 mm 0,0 UV-I 0 W/m² -0,8 °C 1,1 °C 0,0 km/h (0 Bft)
03.03.2018 19:24 1,1 °C 87 % 999,3 hPa 0,0 mm 0,0 km/h (0 Bft) W-NW 284 ° 0 min 0,000 mm 0,0 UV-I 0 W/m² -0,8 °C 1,1 °C 0,0 km/h (0 Bft)
03.03.2018 19:25 1,1 °C 87 % 999,3 hPa 0,0 mm 0,0 km/h (0 Bft) W-NW 284 ° 0 min 0,000 mm 0,0 UV-I 0 W/m² -0,8 °C 1,1 °C 0,0 km/h (0 Bft)
03.03.2018 19:26 1,1 °C 87 % 999,3 hPa 0,0 mm 0,0 km/h (0 Bft) W-NW 284 ° 0 min 0,000 mm 0,0 UV-I 0 W/m² -0,8 °C 1,1 °C 0,0 km/h (0 Bft)
03.03.2018 19:27 1,1 °C 87 % 999,3 hPa 0,0 mm 0,0 km/h (0 Bft) W-NW 284 ° 0 min 0,000 mm 0,0 UV-I 0 W/m² -0,8 °C 1,1 °C 0,0 km/h (0 Bft)
03.03.2018 19:28 1,1 °C 87 % 999,3 hPa 0,0 mm 0,0 km/h (0 Bft) W-NW 284 ° 0 min 0,000 mm 0,0 UV-I 0 W/m² -0,8 °C 1,1 °C 0,0 km/h (0 Bft)
03.03.2018 19:29 1,1 °C 87 % 999,3 hPa 0,0 mm 0,0 km/h (0 Bft) W-NW 284 ° 0 min 0,000 mm 0,0 UV-I 0 W/m² -0,8 °C 1,1 °C 0,0 km/h (0 Bft)
03.03.2018 19:30 0,9 °C 87 % 999,3 hPa 0,0 mm 0,0 km/h (0 Bft) W-NW 284 ° 0 min 0,000 mm 0,0 UV-I 0 W/m² -1,0 °C 0,9 °C 0,0 km/h (0 Bft)
03.03.2018 19:31 0,9 °C 87 % 999,3 hPa 0,0 mm 0,8 km/h (0 Bft) W-NW 284 ° 0 min 0,000 mm 0,0 UV-I 0 W/m² -1,0 °C 0,9 °C 1,6 km/h (1 Bft)
03.03.2018 19:32 0,9 °C 88 % 999,3 hPa 0,0 mm 1,6 km/h (1 Bft) W-NW 284 ° 0 min 0,000 mm 0,0 UV-I 0 W/m² -0,9 °C 0,9 °C 3,2 km/h (1 Bft)
03.03.2018 19:33 0,9 °C 88 % 999,3 hPa 0,0 mm 0,1 km/h (0 Bft) W-NW 284 ° 0 min 0,000 mm 0,0 UV-I 0 W/m² -0,9 °C 0,9 °C 1,6 km/h (1 Bft)
03.03.2018 19:34 0,9 °C 87 % 999,4 hPa 0,0 mm 0,1 km/h (0 Bft) W-NW 284 ° 0 min 0,000 mm 0,0 UV-I 0 W/m² -1,0 °C 0,9 °C 1,6 km/h (1 Bft)
03.03.2018 19:35 0,9 °C 87 % 999,4 hPa 0,0 mm 0,0 km/h (0 Bft) W-NW 284 ° 0 min 0,000 mm 0,0 UV-I 0 W/m² -1,0 °C 0,9 °C 0,0 km/h (0 Bft)
03.03.2018 19:36 0,9 °C 88 % 999,4 hPa 0,0 mm 0,2 km/h (0 Bft) W-NW 284 ° 0 min 0,000 mm 0,0 UV-I 0 W/m² -0,9 °C 0,9 °C 1,6 km/h (1 Bft)
03.03.2018 19:37 0,9 °C 88 % 999,4 hPa 0,0 mm 0,8 km/h (0 Bft) W-NW 284 ° 0 min 0,000 mm 0,0 UV-I 0 W/m² -0,9 °C 0,9 °C 1,6 km/h (1 Bft)
03.03.2018 19:38 0,8 °C 88 % 999,4 hPa 0,0 mm 1,1 km/h (1 Bft) W-NW 284 ° 0 min 0,000 mm 0,0 UV-I 0 W/m² -1,0 °C 0,8 °C 1,6 km/h (1 Bft)
03.03.2018 19:39 0,8 °C 88 % 999,4 hPa 0,0 mm 1,0 km/h (0 Bft) W-NW 284 ° 0 min 0,000 mm 0,0 UV-I 0 W/m² -1,0 °C 0,8 °C 1,6 km/h (1 Bft)
03.03.2018 19:40 0,8 °C 88 % 999,4 hPa 0,0 mm 0,2 km/h (0 Bft) W-NW 284 ° 0 min 0,000 mm 0,0 UV-I 0 W/m² -1,0 °C 0,8 °C 1,6 km/h (1 Bft)
03.03.2018 19:41 0,8 °C 88 % 999,4 hPa 0,0 mm 0,0 km/h (0 Bft) W-NW 284 ° 0 min 0,000 mm 0,0 UV-I 0 W/m² -1,0 °C 0,8 °C 0,0 km/h (0 Bft)
03.03.2018 19:42 0,8 °C 88 % 999,4 hPa 0,0 mm 0,0 km/h (0 Bft) W-NW 284 ° 0 min 0,000 mm 0,0 UV-I 0 W/m² -1,0 °C 0,8 °C 0,0 km/h (0 Bft)
03.03.2018 19:43 0,8 °C 88 % 999,4 hPa 0,0 mm 0,0 km/h (0 Bft) W-NW 284 ° 0 min 0,000 mm 0,0 UV-I 0 W/m² -1,0 °C 0,8 °C 0,0 km/h (0 Bft)
03.03.2018 19:44 0,8 °C 88 % 999,4 hPa 0,0 mm 0,0 km/h (0 Bft) W-NW 284 ° 0 min 0,000 mm 0,0 UV-I 0 W/m² -1,0 °C 0,8 °C 0,0 km/h (0 Bft)
03.03.2018 19:45 0,8 °C 88 % 999,4 hPa 0,0 mm 0,0 km/h (0 Bft) W-NW 284 ° 0 min 0,000 mm 0,0 UV-I 0 W/m² -1,0 °C 0,8 °C 0,0 km/h (0 Bft)
03.03.2018 19:46 0,8 °C 88 % 999,4 hPa 0,0 mm 0,0 km/h (0 Bft) W-NW 284 ° 0 min 0,000 mm 0,0 UV-I 0 W/m² -1,0 °C 0,8 °C 0,0 km/h (0 Bft)
03.03.2018 19:47 0,8 °C 88 % 999,5 hPa 0,0 mm 0,0 km/h (0 Bft) W-NW 284 ° 0 min 0,000 mm 0,0 UV-I 0 W/m² -1,0 °C 0,8 °C 0,0 km/h (0 Bft)
03.03.2018 19:48 0,8 °C 88 % 999,5 hPa 0,0 mm 0,0 km/h (0 Bft) W-NW 284 ° 0 min 0,000 mm 0,0 UV-I 0 W/m² -1,0 °C 0,8 °C 0,0 km/h (0 Bft)
03.03.2018 19:49 0,8 °C 88 % 999,5 hPa 0,0 mm 0,0 km/h (0 Bft) W-NW 284 ° 0 min 0,000 mm 0,0 UV-I 0 W/m² -1,0 °C 0,8 °C 0,0 km/h (0 Bft)
03.03.2018 19:50 0,8 °C 88 % 999,5 hPa 0,0 mm 0,0 km/h (0 Bft) W-NW 284 ° 0 min 0,000 mm 0,0 UV-I 0 W/m² -1,0 °C 0,8 °C 0,0 km/h (0 Bft)
03.03.2018 19:51 0,8 °C 88 % 999,6 hPa 0,0 mm 0,0 km/h (0 Bft) W-NW 284 ° 0 min 0,000 mm 0,0 UV-I 0 W/m² -1,0 °C 0,8 °C 0,0 km/h (0 Bft)
03.03.2018 19:52 0,8 °C 88 % 999,6 hPa 0,0 mm 0,0 km/h (0 Bft) W-NW 284 ° 0 min 0,000 mm 0,0 UV-I 0 W/m² -1,0 °C 0,8 °C 0,0 km/h (0 Bft)
03.03.2018 19:53 0,8 °C 88 % 999,5 hPa 0,0 mm 0,0 km/h (0 Bft) W-NW 284 ° 0 min 0,000 mm 0,0 UV-I 0 W/m² -1,0 °C 0,8 °C 0,0 km/h (0 Bft)
03.03.2018 19:54 0,8 °C 88 % 999,6 hPa 0,0 mm 0,0 km/h (0 Bft) W-NW 284 ° 0 min 0,000 mm 0,0 UV-I 0 W/m² -1,0 °C 0,8 °C 0,0 km/h (0 Bft)
03.03.2018 19:55 0,8 °C 88 % 999,6 hPa 0,0 mm 0,0 km/h (0 Bft) W-NW 284 ° 0 min 0,000 mm 0,0 UV-I 0 W/m² -1,0 °C 0,8 °C 0,0 km/h (0 Bft)
03.03.2018 19:56 0,8 °C 88 % 999,6 hPa 0,0 mm 0,0 km/h (0 Bft) W-NW 284 ° 0 min 0,000 mm 0,0 UV-I 0 W/m² -1,0 °C 0,8 °C 0,0 km/h (0 Bft)
03.03.2018 19:57 0,8 °C 88 % 999,6 hPa 0,0 mm 0,0 km/h (0 Bft) W-NW 284 ° 0 min 0,000 mm 0,0 UV-I 0 W/m² -1,0 °C 0,8 °C 0,0 km/h (0 Bft)
03.03.2018 19:58 0,8 °C 88 % 999,6 hPa 0,0 mm 0,0 km/h (0 Bft) W-NW 284 ° 0 min 0,000 mm 0,0 UV-I 0 W/m² -1,0 °C 0,8 °C 0,0 km/h (0 Bft)
03.03.2018 19:59 0,8 °C 88 % 999,6 hPa 0,0 mm 0,0 km/h (0 Bft) W-NW 284 ° 0 min 0,000 mm 0,0 UV-I 0 W/m² -1,0 °C 0,8 °C 0,0 km/h (0 Bft)
03.03.2018 20:00 0,7 °C 88 % 999,6 hPa 0,0 mm 0,0 km/h (0 Bft) W-NW 284 ° 0 min 0,000 mm 0,0 UV-I 0 W/m² -1,1 °C 0,7 °C 0,0 km/h (0 Bft)
03.03.2018 20:01 0,7 °C 89 % 999,6 hPa 0,0 mm 0,0 km/h (0 Bft) W-NW 285 ° 0 min 0,000 mm 0,0 UV-I 0 W/m² -0,9 °C 0,7 °C 0,0 km/h (0 Bft)
03.03.2018 20:02 0,7 °C 89 % 999,6 hPa 0,0 mm 0,0 km/h (0 Bft) W-NW 284 ° 0 min 0,000 mm 0,0 UV-I 0 W/m² -0,9 °C 0,7 °C 0,0 km/h (0 Bft)
03.03.2018 20:03 0,6 °C 89 % 999,6 hPa 0,0 mm 0,0 km/h (0 Bft) W-NW 284 ° 0 min 0,000 mm 0,0 UV-I 0 W/m² -1,0 °C 0,6 °C 0,0 km/h (0 Bft)
03.03.2018 20:04 0,6 °C 89 % 999,6 hPa 0,0 mm 0,0 km/h (0 Bft) W-NW 284 ° 0 min 0,000 mm 0,0 UV-I 0 W/m² -1,0 °C 0,6 °C 0,0 km/h (0 Bft)
03.03.2018 20:05 0,6 °C 89 % 999,6 hPa 0,0 mm 0,0 km/h (0 Bft) W-NW 284 ° 0 min 0,000 mm 0,0 UV-I 0 W/m² -1,0 °C 0,6 °C 0,0 km/h (0 Bft)
03.03.2018 20:06 0,6 °C 89 % 999,6 hPa 0,0 mm 1,3 km/h (1 Bft) W-NW 284 ° 0 min 0,000 mm 0,0 UV-I 0 W/m² -1,0 °C 0,6 °C 3,2 km/h (1 Bft)
03.03.2018 20:07 0,6 °C 89 % 999,7 hPa 0,0 mm 0,2 km/h (0 Bft) W-NW 284 ° 0 min 0,000 mm 0,0 UV-I 0 W/m² -1,0 °C 0,6 °C 1,6 km/h (1 Bft)
03.03.2018 20:08 0,6 °C 89 % 999,7 hPa 0,0 mm 0,0 km/h (0 Bft) W-NW 284 ° 0 min 0,000 mm 0,0 UV-I 0 W/m² -1,0 °C 0,6 °C 0,0 km/h (0 Bft)
03.03.2018 20:09 0,7 °C 89 % 999,7 hPa 0,0 mm 0,0 km/h (0 Bft) W-NW 284 ° 0 min 0,000 mm 0,0 UV-I 0 W/m² -0,9 °C 0,7 °C 0,0 km/h (0 Bft)
03.03.2018 20:10 0,7 °C 89 % 999,7 hPa 0,0 mm 0,0 km/h (0 Bft) W-NW 284 ° 0 min 0,000 mm 0,0 UV-I 0 W/m² -0,9 °C 0,7 °C 0,0 km/h (0 Bft)
03.03.2018 20:11 0,7 °C 89 % 999,7 hPa 0,0 mm 0,0 km/h (0 Bft) W-NW 284 ° 0 min 0,000 mm 0,0 UV-I 0 W/m² -0,9 °C 0,7 °C 0,0 km/h (0 Bft)
03.03.2018 20:12 0,7 °C 89 % 999,7 hPa 0,0 mm 0,0 km/h (0 Bft) W-NW 284 ° 0 min 0,000 mm 0,0 UV-I 0 W/m² -0,9 °C 0,7 °C 0,0 km/h (0 Bft)
03.03.2018 20:13 0,7 °C 89 % 999,7 hPa 0,0 mm 0,0 km/h (0 Bft) W-NW 284 ° 0 min 0,000 mm 0,0 UV-I 0 W/m² -0,9 °C 0,7 °C 0,0 km/h (0 Bft)
03.03.2018 20:14 0,7 °C 89 % 999,7 hPa 0,0 mm 0,0 km/h (0 Bft) W-NW 284 ° 0 min 0,000 mm 0,0 UV-I 0 W/m² -0,9 °C 0,7 °C 0,0 km/h (0 Bft)
03.03.2018 20:15 0,7 °C 89 % 999,8 hPa 0,0 mm 0,0 km/h (0 Bft) W-NW 284 ° 0 min 0,000 mm 0,0 UV-I 0 W/m² -0,9 °C 0,7 °C 0,0 km/h (0 Bft)
03.03.2018 20:16 0,6 °C 89 % 999,7 hPa 0,0 mm 0,0 km/h (0 Bft) W-NW 284 ° 0 min 0,000 mm 0,0 UV-I 0 W/m² -1,0 °C 0,6 °C 0,0 km/h (0 Bft)
03.03.2018 20:17 0,6 °C 89 % 999,8 hPa 0,0 mm 0,0 km/h (0 Bft) W-NW 284 ° 0 min 0,000 mm 0,0 UV-I 0 W/m² -1,0 °C 0,6 °C 0,0 km/h (0 Bft)
03.03.2018 20:18 0,7 °C 89 % 999,8 hPa 0,0 mm 0,0 km/h (0 Bft) W-NW 284 ° 0 min 0,000 mm 0,0 UV-I 0 W/m² -0,9 °C 0,7 °C 0,0 km/h (0 Bft)
03.03.2018 20:19 0,6 °C 89 % 999,8 hPa 0,0 mm 0,0 km/h (0 Bft) W-NW 284 ° 0 min 0,000 mm 0,0 UV-I 0 W/m² -1,0 °C 0,6 °C 0,0 km/h (0 Bft)
03.03.2018 20:20 0,7 °C 89 % 999,7 hPa 0,0 mm 0,1 km/h (0 Bft) W-NW 284 ° 0 min 0,000 mm 0,0 UV-I 0 W/m² -0,9 °C 0,7 °C 1,6 km/h (1 Bft)
03.03.2018 20:21 0,8 °C 89 % 999,8 hPa 0,0 mm 0,6 km/h (0 Bft) W-NW 284 ° 0 min 0,000 mm 0,0 UV-I 0 W/m² -0,8 °C 0,8 °C 1,6 km/h (1 Bft)
03.03.2018 20:22 0,8 °C 89 % 999,8 hPa 0,0 mm 0,3 km/h (0 Bft) W-NW 284 ° 0 min 0,000 mm 0,0 UV-I 0 W/m² -0,8 °C 0,8 °C 1,6 km/h (1 Bft)
03.03.2018 20:23 0,8 °C 88 % 999,8 hPa 0,0 mm 0,0 km/h (0 Bft) W-NW 284 ° 0 min 0,000 mm 0,0 UV-I 0 W/m² -1,0 °C 0,8 °C 0,0 km/h (0 Bft)
03.03.2018 20:24 0,9 °C 88 % 999,8 hPa 0,0 mm 0,0 km/h (0 Bft) W-NW 284 ° 0 min 0,000 mm 0,0 UV-I 0 W/m² -0,9 °C 0,9 °C 0,0 km/h (0 Bft)
03.03.2018 20:25 0,9 °C 88 % 999,8 hPa 0,0 mm 0,0 km/h (0 Bft) W-NW 284 ° 0 min 0,000 mm 0,0 UV-I 0 W/m² -0,9 °C 0,9 °C 0,0 km/h (0 Bft)
03.03.2018 20:26 0,9 °C 88 % 999,8 hPa 0,0 mm 0,0 km/h (0 Bft) W-NW 284 ° 0 min 0,000 mm 0,0 UV-I 0 W/m² -0,9 °C 0,9 °C 0,0 km/h (0 Bft)
03.03.2018 20:27 0,9 °C 88 % 999,9 hPa 0,0 mm 0,0 km/h (0 Bft) W-NW 284 ° 0 min 0,000 mm 0,0 UV-I 0 W/m² -0,9 °C 0,9 °C 0,0 km/h (0 Bft)
03.03.2018 20:28 0,8 °C 88 % 999,8 hPa 0,0 mm 0,0 km/h (0 Bft) W-NW 284 ° 0 min 0,000 mm 0,0 UV-I 0 W/m² -1,0 °C 0,8 °C 0,0 km/h (0 Bft)
03.03.2018 20:29 0,8 °C 88 % 999,8 hPa 0,0 mm 0,0 km/h (0 Bft) W-NW 284 ° 0 min 0,000 mm 0,0 UV-I 0 W/m² -1,0 °C 0,8 °C 0,0 km/h (0 Bft)
03.03.2018 20:30 0,8 °C 88 % 999,9 hPa 0,0 mm 0,0 km/h (0 Bft) W-NW 284 ° 0 min 0,000 mm 0,0 UV-I 0 W/m² -1,0 °C 0,8 °C 0,0 km/h (0 Bft)
03.03.2018 20:31 0,7 °C 89 % 999,8 hPa 0,0 mm 0,0 km/h (0 Bft) W-NW 284 ° 0 min 0,000 mm 0,0 UV-I 0 W/m² -0,9 °C 0,7 °C 0,0 km/h (0 Bft)
03.03.2018 20:32 0,7 °C 89 % 999,9 hPa 0,0 mm 0,0 km/h (0 Bft) W-NW 284 ° 0 min 0,000 mm 0,0 UV-I 0 W/m² -0,9 °C 0,7 °C 0,0 km/h (0 Bft)
03.03.2018 20:33 0,7 °C 89 % 999,9 hPa 0,0 mm 0,0 km/h (0 Bft) W-NW 284 ° 0 min 0,000 mm 0,0 UV-I 0 W/m² -0,9 °C 0,7 °C 0,0 km/h (0 Bft)
03.03.2018 20:34 0,6 °C 89 % 999,9 hPa 0,0 mm 0,0 km/h (0 Bft) W-NW 284 ° 0 min 0,000 mm 0,0 UV-I 0 W/m² -1,0 °C 0,6 °C 0,0 km/h (0 Bft)
03.03.2018 20:35 0,6 °C 89 % 999,9 hPa 0,0 mm 0,0 km/h (0 Bft) W-NW 284 ° 0 min 0,000 mm 0,0 UV-I 0 W/m² -1,0 °C 0,6 °C 0,0 km/h (0 Bft)
03.03.2018 20:36 0,6 °C 89 % 999,8 hPa 0,0 mm 0,0 km/h (0 Bft) W-NW 284 ° 0 min 0,000 mm 0,0 UV-I 0 W/m² -1,0 °C 0,6 °C 0,0 km/h (0 Bft)
03.03.2018 20:37 0,6 °C 89 % 999,9 hPa 0,0 mm 0,0 km/h (0 Bft) W-NW 284 ° 0 min 0,000 mm 0,0 UV-I 0 W/m² -1,0 °C 0,6 °C 0,0 km/h (0 Bft)
03.03.2018 20:38 0,6 °C 89 % 999,9 hPa 0,0 mm 0,0 km/h (0 Bft) W-NW 284 ° 0 min 0,000 mm 0,0 UV-I 0 W/m² -1,0 °C 0,6 °C 0,0 km/h (0 Bft)
03.03.2018 20:39 0,7 °C 89 % 999,9 hPa 0,0 mm 0,0 km/h (0 Bft) W-NW 284 ° 0 min 0,000 mm 0,0 UV-I 0 W/m² -0,9 °C 0,7 °C 0,0 km/h (0 Bft)
03.03.2018 20:40 0,7 °C 89 % 999,9 hPa 0,0 mm 0,0 km/h (0 Bft) W-NW 284 ° 0 min 0,000 mm 0,0 UV-I 0 W/m² -0,9 °C 0,7 °C 0,0 km/h (0 Bft)
03.03.2018 20:41 0,7 °C 89 % 999,9 hPa 0,0 mm 0,0 km/h (0 Bft) W-NW 285 ° 0 min 0,000 mm 0,0 UV-I 0 W/m² -0,9 °C 0,7 °C 0,0 km/h (0 Bft)
03.03.2018 20:42 0,6 °C 89 % 999,9 hPa 0,0 mm 0,0 km/h (0 Bft) W-NW 284 ° 0 min 0,000 mm 0,0 UV-I 0 W/m² -1,0 °C 0,6 °C 0,0 km/h (0 Bft)
03.03.2018 20:43 0,6 °C 89 % 999,9 hPa 0,0 mm 0,0 km/h (0 Bft) W-NW 284 ° 0 min 0,000 mm 0,0 UV-I 0 W/m² -1,0 °C 0,6 °C 0,0 km/h (0 Bft)
03.03.2018 20:44 0,6 °C 90 % 1000,0 hPa 0,0 mm 0,0 km/h (0 Bft) W-NW 284 ° 0 min 0,000 mm 0,0 UV-I 0 W/m² -0,8 °C 0,6 °C 0,0 km/h (0 Bft)
03.03.2018 20:45 0,5 °C 90 % 1000,0 hPa 0,0 mm 0,0 km/h (0 Bft) W-NW 284 ° 0 min 0,000 mm 0,0 UV-I 0 W/m² -0,9 °C 0,5 °C 0,0 km/h (0 Bft)
03.03.2018 20:46 0,5 °C 90 % 1000,0 hPa 0,0 mm 0,0 km/h (0 Bft) W-NW 284 ° 0 min 0,000 mm 0,0 UV-I 0 W/m² -0,9 °C 0,5 °C 0,0 km/h (0 Bft)
03.03.2018 20:47 0,4 °C 90 % 1000,0 hPa 0,0 mm 0,0 km/h (0 Bft) W-NW 284 ° 0 min 0,000 mm 0,0 UV-I 0 W/m² -1,0 °C 0,4 °C 0,0 km/h (0 Bft)
03.03.2018 20:48 0,4 °C 90 % 1000,0 hPa 0,0 mm 0,0 km/h (0 Bft) W-NW 284 ° 0 min 0,000 mm 0,0 UV-I 0 W/m² -1,0 °C 0,4 °C 0,0 km/h (0 Bft)
03.03.2018 20:49 0,4 °C 90 % 1000,0 hPa 0,0 mm 0,0 km/h (0 Bft) W-NW 284 ° 0 min 0,000 mm 0,0 UV-I 0 W/m² -1,0 °C 0,4 °C 0,0 km/h (0 Bft)
03.03.2018 20:50 0,4 °C 90 % 1000,0 hPa 0,0 mm 0,0 km/h (0 Bft) W-NW 284 ° 0 min 0,000 mm 0,0 UV-I 0 W/m² -1,0 °C 0,4 °C 0,0 km/h (0 Bft)
03.03.2018 20:51 0,4 °C 90 % 1000,0 hPa 0,0 mm 0,0 km/h (0 Bft) W-NW 284 ° 0 min 0,000 mm 0,0 UV-I 0 W/m² -1,0 °C 0,4 °C 0,0 km/h (0 Bft)
03.03.2018 20:52 0,4 °C 90 % 1000,0 hPa 0,0 mm 0,0 km/h (0 Bft) W-NW 284 ° 0 min 0,000 mm 0,0 UV-I 0 W/m² -1,0 °C 0,4 °C 0,0 km/h (0 Bft)
03.03.2018 20:53 0,4 °C 90 % 1000,1 hPa 0,0 mm 0,0 km/h (0 Bft) W-NW 284 ° 0 min 0,000 mm 0,0 UV-I 0 W/m² -1,0 °C 0,4 °C 0,0 km/h (0 Bft)
03.03.2018 20:54 0,3 °C 90 % 1000,0 hPa 0,0 mm 0,0 km/h (0 Bft) W-NW 284 ° 0 min 0,000 mm 0,0 UV-I 0 W/m² -1,1 °C 0,3 °C 0,0 km/h (0 Bft)
03.03.2018 20:55 0,4 °C 90 % 1000,1 hPa 0,0 mm 0,0 km/h (0 Bft) W-NW 284 ° 0 min 0,000 mm 0,0 UV-I 0 W/m² -1,0 °C 0,4 °C 0,0 km/h (0 Bft)
03.03.2018 20:56 0,4 °C 90 % 1000,1 hPa 0,0 mm 0,0 km/h (0 Bft) W-NW 284 ° 0 min 0,000 mm 0,0 UV-I 0 W/m² -1,0 °C 0,4 °C 0,0 km/h (0 Bft)
03.03.2018 20:57 0,4 °C 90 % 1000,0 hPa 0,0 mm 0,0 km/h (0 Bft) W-NW 284 ° 0 min 0,000 mm 0,0 UV-I 0 W/m² -1,0 °C 0,4 °C 0,0 km/h (0 Bft)
03.03.2018 20:58 0,4 °C 90 % 1000,1 hPa 0,0 mm 0,0 km/h (0 Bft) W-NW 284 ° 0 min 0,000 mm 0,0 UV-I 0 W/m² -1,0 °C 0,4 °C 0,0 km/h (0 Bft)
03.03.2018 20:59 0,4 °C 90 % 1000,1 hPa 0,0 mm 0,0 km/h (0 Bft) W-NW 284 ° 0 min 0,000 mm 0,0 UV-I 0 W/m² -1,0 °C 0,4 °C 0,0 km/h (0 Bft)
03.03.2018 21:00 0,4 °C 90 % 1000,1 hPa 0,0 mm 0,0 km/h (0 Bft) W-NW 284 ° 0 min 0,000 mm 0,0 UV-I 0 W/m² -1,0 °C 0,4 °C 0,0 km/h (0 Bft)
03.03.2018 21:01 0,4 °C 91 % 1000,1 hPa 0,0 mm 0,0 km/h (0 Bft) W-NW 284 ° 0 min 0,000 mm 0,0 UV-I 0 W/m² -0,9 °C 0,4 °C 0,0 km/h (0 Bft)
03.03.2018 21:02 0,4 °C 91 % 1000,1 hPa 0,0 mm 0,0 km/h (0 Bft) W-NW 284 ° 0 min 0,000 mm 0,0 UV-I 0 W/m² -0,9 °C 0,4 °C 0,0 km/h (0 Bft)
03.03.2018 21:03 0,3 °C 91 % 1000,1 hPa 0,0 mm 0,0 km/h (0 Bft) W-NW 284 ° 0 min 0,000 mm 0,0 UV-I 0 W/m² -1,0 °C 0,3 °C 0,0 km/h (0 Bft)
03.03.2018 21:04 0,3 °C 91 % 1000,2 hPa 0,0 mm 0,0 km/h (0 Bft) W-NW 284 ° 0 min 0,000 mm 0,0 UV-I 0 W/m² -1,0 °C 0,3 °C 0,0 km/h (0 Bft)
03.03.2018 21:05 0,3 °C 91 % 1000,1 hPa 0,0 mm 0,0 km/h (0 Bft) W-NW 284 ° 0 min 0,000 mm 0,0 UV-I 0 W/m² -1,0 °C 0,3 °C 0,0 km/h (0 Bft)
03.03.2018 21:06 0,3 °C 91 % 1000,2 hPa 0,0 mm 0,0 km/h (0 Bft) W-NW 284 ° 0 min 0,000 mm 0,0 UV-I 0 W/m² -1,0 °C 0,3 °C 0,0 km/h (0 Bft)
03.03.2018 21:07 0,3 °C 91 % 1000,2 hPa 0,0 mm 0,0 km/h (0 Bft) W-NW 284 ° 0 min 0,000 mm 0,0 UV-I 0 W/m² -1,0 °C 0,3 °C 0,0 km/h (0 Bft)
03.03.2018 21:08 0,2 °C 91 % 1000,2 hPa 0,0 mm 0,0 km/h (0 Bft) W-NW 284 ° 0 min 0,000 mm 0,0 UV-I 0 W/m² -1,1 °C 0,2 °C 0,0 km/h (0 Bft)
03.03.2018 21:09 0,2 °C 91 % 1000,2 hPa 0,0 mm 0,0 km/h (0 Bft) W-NW 284 ° 0 min 0,000 mm 0,0 UV-I 0 W/m² -1,1 °C 0,2 °C 0,0 km/h (0 Bft)
03.03.2018 21:10 0,2 °C 91 % 1000,2 hPa 0,0 mm 0,0 km/h (0 Bft) W-NW 284 ° 0 min 0,000 mm 0,0 UV-I 0 W/m² -1,1 °C 0,2 °C 0,0 km/h (0 Bft)
03.03.2018 21:11 0,2 °C 91 % 1000,2 hPa 0,0 mm 0,0 km/h (0 Bft) W-NW 284 ° 0 min 0,000 mm 0,0 UV-I 0 W/m² -1,1 °C 0,2 °C 0,0 km/h (0 Bft)
03.03.2018 21:12 0,2 °C 91 % 1000,2 hPa 0,0 mm 0,0 km/h (0 Bft) W-NW 284 ° 0 min 0,000 mm 0,0 UV-I 0 W/m² -1,1 °C 0,2 °C 0,0 km/h (0 Bft)
03.03.2018 21:13 0,2 °C 91 % 1000,1 hPa 0,0 mm 0,0 km/h (0 Bft) W-NW 284 ° 0 min 0,000 mm 0,0 UV-I 0 W/m² -1,1 °C 0,2 °C 0,0 km/h (0 Bft)
03.03.2018 21:14 0,2 °C 91 % 1000,2 hPa 0,0 mm 0,0 km/h (0 Bft) W-NW 284 ° 0 min 0,000 mm 0,0 UV-I 0 W/m² -1,1 °C 0,2 °C 0,0 km/h (0 Bft)
03.03.2018 21:15 0,2 °C 91 % 1000,2 hPa 0,0 mm 0,0 km/h (0 Bft) W-NW 284 ° 0 min 0,000 mm 0,0 UV-I 0 W/m² -1,1 °C 0,2 °C 0,0 km/h (0 Bft)
03.03.2018 21:16 0,2 °C 91 % 1000,2 hPa 0,0 mm 0,0 km/h (0 Bft) W-NW 284 ° 0 min 0,000 mm 0,0 UV-I 0 W/m² -1,1 °C 0,2 °C 0,0 km/h (0 Bft)
03.03.2018 21:17 0,2 °C 91 % 1000,2 hPa 0,0 mm 0,0 km/h (0 Bft) W-NW 284 ° 0 min 0,000 mm 0,0 UV-I 0 W/m² -1,1 °C 0,2 °C 0,0 km/h (0 Bft)
03.03.2018 21:18 0,2 °C 91 % 1000,2 hPa 0,0 mm 0,0 km/h (0 Bft) W-NW 284 ° 0 min 0,000 mm 0,0 UV-I 0 W/m² -1,1 °C 0,2 °C 0,0 km/h (0 Bft)
03.03.2018 21:19 0,1 °C 91 % 1000,2 hPa 0,0 mm 0,0 km/h (0 Bft) W-NW 284 ° 0 min 0,000 mm 0,0 UV-I 0 W/m² -1,2 °C 0,1 °C 0,0 km/h (0 Bft)
03.03.2018 21:20 0,2 °C 91 % 1000,2 hPa 0,0 mm 0,0 km/h (0 Bft) W-NW 284 ° 0 min 0,000 mm 0,0 UV-I 0 W/m² -1,1 °C 0,2 °C 0,0 km/h (0 Bft)
03.03.2018 21:21 0,1 °C 91 % 1000,1 hPa 0,0 mm 0,0 km/h (0 Bft) W-NW 284 ° 0 min 0,000 mm 0,0 UV-I 0 W/m² -1,2 °C 0,1 °C 0,0 km/h (0 Bft)
03.03.2018 21:22 0,1 °C 91 % 1000,3 hPa 0,0 mm 0,0 km/h (0 Bft) W-NW 284 ° 0 min 0,000 mm 0,0 UV-I 0 W/m² -1,2 °C 0,1 °C 0,0 km/h (0 Bft)
03.03.2018 21:23 0,1 °C 91 % 1000,2 hPa 0,0 mm 0,0 km/h (0 Bft) W-NW 284 ° 0 min 0,000 mm 0,0 UV-I 0 W/m² -1,2 °C 0,1 °C 0,0 km/h (0 Bft)
03.03.2018 21:24 0,1 °C 91 % 1000,3 hPa 0,0 mm 0,0 km/h (0 Bft) W-NW 284 ° 0 min 0,000 mm 0,0 UV-I 0 W/m² -1,2 °C 0,1 °C 0,0 km/h (0 Bft)
03.03.2018 21:25 0,1 °C 91 % 1000,3 hPa 0,0 mm 0,0 km/h (0 Bft) W-NW 284 ° 0 min 0,000 mm 0,0 UV-I 0 W/m² -1,2 °C 0,1 °C 0,0 km/h (0 Bft)
03.03.2018 21:26 0,1 °C 91 % 1000,3 hPa 0,0 mm 0,0 km/h (0 Bft) W-NW 284 ° 0 min 0,000 mm 0,0 UV-I 0 W/m² -1,2 °C 0,1 °C 0,0 km/h (0 Bft)
03.03.2018 21:27 0,1 °C 91 % 1000,3 hPa 0,0 mm 0,0 km/h (0 Bft) W-NW 284 ° 0 min 0,000 mm 0,0 UV-I 0 W/m² -1,2 °C 0,1 °C 0,0 km/h (0 Bft)
03.03.2018 21:28 0,1 °C 91 % 1000,3 hPa 0,0 mm 0,0 km/h (0 Bft) W-NW 284 ° 0 min 0,000 mm 0,0 UV-I 0 W/m² -1,2 °C 0,1 °C 0,0 km/h (0 Bft)
03.03.2018 21:29 0,1 °C 91 % 1000,3 hPa 0,0 mm 0,0 km/h (0 Bft) W-NW 284 ° 0 min 0,000 mm 0,0 UV-I 0 W/m² -1,2 °C 0,1 °C 0,0 km/h (0 Bft)
03.03.2018 21:30 0,1 °C 91 % 1000,4 hPa 0,0 mm 0,0 km/h (0 Bft) W-NW 284 ° 0 min 0,000 mm 0,0 UV-I 0 W/m² -1,2 °C 0,1 °C 0,0 km/h (0 Bft)
03.03.2018 21:31 0,1 °C 91 % 1000,4 hPa 0,0 mm 0,0 km/h (0 Bft) W-NW 284 ° 0 min 0,000 mm 0,0 UV-I 0 W/m² -1,2 °C 0,1 °C 0,0 km/h (0 Bft)
03.03.2018 21:32 0,1 °C 91 % 1000,4 hPa 0,0 mm 0,0 km/h (0 Bft) W-NW 284 ° 0 min 0,000 mm 0,0 UV-I 0 W/m² -1,2 °C 0,1 °C 0,0 km/h (0 Bft)
03.03.2018 21:33 0,1 °C 91 % 1000,4 hPa 0,0 mm 0,0 km/h (0 Bft) W-NW 284 ° 0 min 0,000 mm 0,0 UV-I 0 W/m² -1,2 °C 0,1 °C 0,0 km/h (0 Bft)
03.03.2018 21:34 0,1 °C 91 % 1000,4 hPa 0,0 mm 0,0 km/h (0 Bft) W-NW 284 ° 0 min 0,000 mm 0,0 UV-I 0 W/m² -1,2 °C 0,1 °C 0,0 km/h (0 Bft)
03.03.2018 21:35 0,1 °C 91 % 1000,4 hPa 0,0 mm 0,0 km/h (0 Bft) W-NW 284 ° 0 min 0,000 mm 0,0 UV-I 0 W/m² -1,2 °C 0,1 °C 0,0 km/h (0 Bft)
03.03.2018 21:36 0,1 °C 91 % 1000,4 hPa 0,0 mm 0,0 km/h (0 Bft) W-NW 284 ° 0 min 0,000 mm 0,0 UV-I 0 W/m² -1,2 °C 0,1 °C 0,0 km/h (0 Bft)
03.03.2018 21:37 0,1 °C 91 % 1000,4 hPa 0,0 mm 0,0 km/h (0 Bft) W-NW 284 ° 0 min 0,000 mm 0,0 UV-I 0 W/m² -1,2 °C 0,1 °C 0,0 km/h (0 Bft)
03.03.2018 21:38 0,1 °C 91 % 1000,4 hPa 0,0 mm 0,0 km/h (0 Bft) W-NW 284 ° 0 min 0,000 mm 0,0 UV-I 0 W/m² -1,2 °C 0,1 °C 0,0 km/h (0 Bft)
03.03.2018 21:39 0,1 °C 91 % 1000,4 hPa 0,0 mm 0,0 km/h (0 Bft) W-NW 284 ° 0 min 0,000 mm 0,0 UV-I 0 W/m² -1,2 °C 0,1 °C 0,0 km/h (0 Bft)
03.03.2018 21:40 0,0 °C 91 % 1000,4 hPa 0,0 mm 0,0 km/h (0 Bft) W-NW 284 ° 0 min 0,000 mm 0,0 UV-I 0 W/m² -1,3 °C 0,0 °C 0,0 km/h (0 Bft)
03.03.2018 21:41 0,0 °C 91 % 1000,4 hPa 0,0 mm 0,0 km/h (0 Bft) W-NW 284 ° 0 min 0,000 mm 0,0 UV-I 0 W/m² -1,3 °C 0,0 °C 0,0 km/h (0 Bft)
03.03.2018 21:42 0,0 °C 91 % 1000,4 hPa 0,0 mm 0,0 km/h (0 Bft) W-NW 284 ° 0 min 0,000 mm 0,0 UV-I 0 W/m² -1,3 °C 0,0 °C 0,0 km/h (0 Bft)
03.03.2018 21:43 0,0 °C 92 % 1000,4 hPa 0,0 mm 0,0 km/h (0 Bft) W-NW 285 ° 0 min 0,000 mm 0,0 UV-I 0 W/m² -1,1 °C 0,0 °C 0,0 km/h (0 Bft)
03.03.2018 21:44 0,0 °C 92 % 1000,4 hPa 0,0 mm 0,0 km/h (0 Bft) W-NW 284 ° 0 min 0,000 mm 0,0 UV-I 0 W/m² -1,1 °C 0,0 °C 0,0 km/h (0 Bft)
03.03.2018 21:45 0,0 °C 92 % 1000,4 hPa 0,0 mm 0,0 km/h (0 Bft) W-NW 284 ° 0 min 0,000 mm 0,0 UV-I 0 W/m² -1,1 °C 0,0 °C 0,0 km/h (0 Bft)
03.03.2018 21:46 0,0 °C 92 % 1000,4 hPa 0,0 mm 0,0 km/h (0 Bft) W-NW 284 ° 0 min 0,000 mm 0,0 UV-I 0 W/m² -1,1 °C 0,0 °C 0,0 km/h (0 Bft)
03.03.2018 21:47 0,0 °C 92 % 1000,4 hPa 0,0 mm 0,0 km/h (0 Bft) W-NW 284 ° 0 min 0,000 mm 0,0 UV-I 0 W/m² -1,1 °C 0,0 °C 0,0 km/h (0 Bft)
03.03.2018 21:48 0,0 °C 92 % 1000,4 hPa 0,0 mm 0,0 km/h (0 Bft) W-NW 284 ° 0 min 0,000 mm 0,0 UV-I 0 W/m² -1,1 °C 0,0 °C 0,0 km/h (0 Bft)
03.03.2018 21:49 0,0 °C 92 % 1000,4 hPa 0,0 mm 0,0 km/h (0 Bft) W-NW 284 ° 0 min 0,000 mm 0,0 UV-I 0 W/m² -1,1 °C 0,0 °C 0,0 km/h (0 Bft)
03.03.2018 21:50 0,0 °C 92 % 1000,4 hPa 0,0 mm 0,0 km/h (0 Bft) W-NW 284 ° 0 min 0,000 mm 0,0 UV-I 0 W/m² -1,1 °C 0,0 °C 0,0 km/h (0 Bft)
03.03.2018 21:51 0,0 °C 92 % 1000,5 hPa 0,0 mm 0,0 km/h (0 Bft) W-NW 284 ° 0 min 0,000 mm 0,0 UV-I 0 W/m² -1,1 °C 0,0 °C 0,0 km/h (0 Bft)
03.03.2018 21:52 0,0 °C 92 % 1000,5 hPa 0,0 mm 0,0 km/h (0 Bft) W-NW 284 ° 0 min 0,000 mm 0,0 UV-I 0 W/m² -1,1 °C 0,0 °C 0,0 km/h (0 Bft)
03.03.2018 21:53 0,0 °C 92 % 1000,5 hPa 0,0 mm 0,0 km/h (0 Bft) W-NW 284 ° 0 min 0,000 mm 0,0 UV-I 0 W/m² -1,1 °C 0,0 °C 0,0 km/h (0 Bft)
03.03.2018 21:54 0,0 °C 92 % 1000,5 hPa 0,0 mm 0,0 km/h (0 Bft) W-NW 284 ° 0 min 0,000 mm 0,0 UV-I 0 W/m² -1,1 °C 0,0 °C 0,0 km/h (0 Bft)
03.03.2018 21:55 0,0 °C 92 % 1000,5 hPa 0,0 mm 0,0 km/h (0 Bft) W-NW 284 ° 0 min 0,000 mm 0,0 UV-I 0 W/m² -1,1 °C 0,0 °C 0,0 km/h (0 Bft)
03.03.2018 21:56 -0,1 °C 92 % 1000,5 hPa 0,0 mm 0,0 km/h (0 Bft) W-NW 284 ° 0 min 0,000 mm 0,0 UV-I 0 W/m² -1,2 °C -0,1 °C 0,0 km/h (0 Bft)
03.03.2018 21:57 -0,1 °C 92 % 1000,5 hPa 0,0 mm 0,0 km/h (0 Bft) W-NW 284 ° 0 min 0,000 mm 0,0 UV-I 0 W/m² -1,2 °C -0,1 °C 0,0 km/h (0 Bft)
03.03.2018 21:58 -0,1 °C 92 % 1000,6 hPa 0,0 mm 0,0 km/h (0 Bft) W-NW 284 ° 0 min 0,000 mm 0,0 UV-I 0 W/m² -1,2 °C -0,1 °C 0,0 km/h (0 Bft)
03.03.2018 21:59 -0,1 °C 92 % 1000,6 hPa 0,0 mm 0,0 km/h (0 Bft) W-NW 284 ° 0 min 0,000 mm 0,0 UV-I 0 W/m² -1,2 °C -0,1 °C 0,0 km/h (0 Bft)
03.03.2018 22:00 -0,1 °C 92 % 1000,6 hPa 0,0 mm 0,0 km/h (0 Bft) W-NW 284 ° 0 min 0,000 mm 0,0 UV-I 0 W/m² -1,2 °C -0,1 °C 0,0 km/h (0 Bft)
03.03.2018 22:01 -0,1 °C 92 % 1000,6 hPa 0,0 mm 0,0 km/h (0 Bft) W-NW 284 ° 0 min 0,000 mm 0,0 UV-I 0 W/m² -1,2 °C -0,1 °C 0,0 km/h (0 Bft)
03.03.2018 22:02 -0,1 °C 92 % 1000,6 hPa 0,0 mm 0,0 km/h (0 Bft) W-NW 284 ° 0 min 0,000 mm 0,0 UV-I 0 W/m² -1,2 °C -0,1 °C 0,0 km/h (0 Bft)
03.03.2018 22:03 -0,2 °C 92 % 1000,6 hPa 0,0 mm 0,0 km/h (0 Bft) W-NW 284 ° 0 min 0,000 mm 0,0 UV-I 0 W/m² -1,3 °C -0,2 °C 0,0 km/h (0 Bft)
03.03.2018 22:04 -0,2 °C 92 % 1000,6 hPa 0,0 mm 0,0 km/h (0 Bft) W-NW 284 ° 0 min 0,000 mm 0,0 UV-I 0 W/m² -1,3 °C -0,2 °C 0,0 km/h (0 Bft)
03.03.2018 22:05 -0,1 °C 92 % 1000,6 hPa 0,0 mm 0,0 km/h (0 Bft) W-NW 284 ° 0 min 0,000 mm 0,0 UV-I 0 W/m² -1,2 °C -0,1 °C 0,0 km/h (0 Bft)
03.03.2018 22:06 -0,2 °C 92 % 1000,6 hPa 0,0 mm 0,0 km/h (0 Bft) W-NW 284 ° 0 min 0,000 mm 0,0 UV-I 0 W/m² -1,3 °C -0,2 °C 0,0 km/h (0 Bft)
03.03.2018 22:07 -0,2 °C 92 % 1000,7 hPa 0,0 mm 0,0 km/h (0 Bft) W-NW 284 ° 0 min 0,000 mm 0,0 UV-I 0 W/m² -1,3 °C -0,2 °C 0,0 km/h (0 Bft)
03.03.2018 22:08 -0,2 °C 92 % 1000,7 hPa 0,0 mm 0,0 km/h (0 Bft) W-NW 284 ° 0 min 0,000 mm 0,0 UV-I 0 W/m² -1,3 °C -0,2 °C 0,0 km/h (0 Bft)
03.03.2018 22:09 -0,2 °C 92 % 1000,7 hPa 0,0 mm 0,0 km/h (0 Bft) W-NW 284 ° 0 min 0,000 mm 0,0 UV-I 0 W/m² -1,3 °C -0,2 °C 0,0 km/h (0 Bft)
03.03.2018 22:10 -0,2 °C 92 % 1000,6 hPa 0,0 mm 0,0 km/h (0 Bft) W-NW 284 ° 0 min 0,000 mm 0,0 UV-I 0 W/m² -1,3 °C -0,2 °C 0,0 km/h (0 Bft)
03.03.2018 22:11 -0,2 °C 92 % 1000,7 hPa 0,0 mm 0,0 km/h (0 Bft) W-NW 284 ° 0 min 0,000 mm 0,0 UV-I 0 W/m² -1,3 °C -0,2 °C 0,0 km/h (0 Bft)
03.03.2018 22:12 -0,2 °C 92 % 1000,7 hPa 0,0 mm 0,0 km/h (0 Bft) W-NW 284 ° 0 min 0,000 mm 0,0 UV-I 0 W/m² -1,3 °C -0,2 °C 0,0 km/h (0 Bft)
03.03.2018 22:13 -0,2 °C 92 % 1000,7 hPa 0,0 mm 0,0 km/h (0 Bft) W-NW 284 ° 0 min 0,000 mm 0,0 UV-I 0 W/m² -1,3 °C -0,2 °C 0,0 km/h (0 Bft)
03.03.2018 22:14 -0,2 °C 92 % 1000,7 hPa 0,0 mm 0,0 km/h (0 Bft) W-NW 284 ° 0 min 0,000 mm 0,0 UV-I 0 W/m² -1,3 °C -0,2 °C 0,0 km/h (0 Bft)
03.03.2018 22:15 -0,2 °C 92 % 1000,7 hPa 0,0 mm 0,0 km/h (0 Bft) W-NW 284 ° 0 min 0,000 mm 0,0 UV-I 0 W/m² -1,3 °C -0,2 °C 0,0 km/h (0 Bft)
03.03.2018 22:16 -0,2 °C 92 % 1000,7 hPa 0,0 mm 0,0 km/h (0 Bft) W-NW 284 ° 0 min 0,000 mm 0,0 UV-I 0 W/m² -1,3 °C -0,2 °C 0,0 km/h (0 Bft)
03.03.2018 22:17 -0,2 °C 92 % 1000,7 hPa 0,0 mm 0,0 km/h (0 Bft) W-NW 284 ° 0 min 0,000 mm 0,0 UV-I 0 W/m² -1,3 °C -0,2 °C 0,0 km/h (0 Bft)
03.03.2018 22:18 -0,2 °C 92 % 1000,7 hPa 0,0 mm 0,0 km/h (0 Bft) W-NW 284 ° 0 min 0,000 mm 0,0 UV-I 0 W/m² -1,3 °C -0,2 °C 0,0 km/h (0 Bft)
03.03.2018 22:19 -0,2 °C 92 % 1000,7 hPa 0,0 mm 0,0 km/h (0 Bft) W-NW 284 ° 0 min 0,000 mm 0,0 UV-I 0 W/m² -1,3 °C -0,2 °C 0,0 km/h (0 Bft)
03.03.2018 22:20 -0,2 °C 93 % 1000,7 hPa 0,0 mm 0,0 km/h (0 Bft) W-NW 284 ° 0 min 0,000 mm 0,0 UV-I 0 W/m² -1,2 °C -0,2 °C 0,0 km/h (0 Bft)
03.03.2018 22:21 -0,2 °C 93 % 1000,7 hPa 0,0 mm 0,0 km/h (0 Bft) W-NW 284 ° 0 min 0,000 mm 0,0 UV-I 0 W/m² -1,2 °C -0,2 °C 0,0 km/h (0 Bft)
03.03.2018 22:22 -0,2 °C 93 % 1000,7 hPa 0,0 mm 0,0 km/h (0 Bft) W-NW 284 ° 0 min 0,000 mm 0,0 UV-I 0 W/m² -1,2 °C -0,2 °C 0,0 km/h (0 Bft)
03.03.2018 22:23 -0,3 °C 93 % 1000,7 hPa 0,0 mm 0,0 km/h (0 Bft) W-NW 284 ° 0 min 0,000 mm 0,0 UV-I 0 W/m² -1,3 °C -0,3 °C 0,0 km/h (0 Bft)
03.03.2018 22:24 -0,2 °C 93 % 1000,7 hPa 0,0 mm 0,0 km/h (0 Bft) W-NW 285 ° 0 min 0,000 mm 0,0 UV-I 0 W/m² -1,2 °C -0,2 °C 0,0 km/h (0 Bft)
03.03.2018 22:25 -0,2 °C 93 % 1000,7 hPa 0,0 mm 0,0 km/h (0 Bft) W-NW 284 ° 0 min 0,000 mm 0,0 UV-I 0 W/m² -1,2 °C -0,2 °C 0,0 km/h (0 Bft)
03.03.2018 22:26 -0,2 °C 93 % 1000,8 hPa 0,0 mm 0,0 km/h (0 Bft) W-NW 284 ° 0 min 0,000 mm 0,0 UV-I 0 W/m² -1,2 °C -0,2 °C 0,0 km/h (0 Bft)
03.03.2018 22:27 -0,3 °C 93 % 1000,7 hPa 0,0 mm 0,0 km/h (0 Bft) W-NW 284 ° 0 min 0,000 mm 0,0 UV-I 0 W/m² -1,3 °C -0,3 °C 0,0 km/h (0 Bft)
03.03.2018 22:28 -0,3 °C 93 % 1000,7 hPa 0,0 mm 0,0 km/h (0 Bft) W-NW 284 ° 0 min 0,000 mm 0,0 UV-I 0 W/m² -1,3 °C -0,3 °C 0,0 km/h (0 Bft)
03.03.2018 22:29 -0,3 °C 93 % 1000,8 hPa 0,0 mm 0,0 km/h (0 Bft) W-NW 284 ° 0 min 0,000 mm 0,0 UV-I 0 W/m² -1,3 °C -0,3 °C 0,0 km/h (0 Bft)
03.03.2018 22:30 -0,2 °C 93 % 1000,8 hPa 0,0 mm 0,0 km/h (0 Bft) W-NW 284 ° 0 min 0,000 mm 0,0 UV-I 0 W/m² -1,2 °C -0,2 °C 0,0 km/h (0 Bft)
03.03.2018 22:31 -0,2 °C 93 % 1000,8 hPa 0,0 mm 0,0 km/h (0 Bft) W-NW 284 ° 0 min 0,000 mm 0,0 UV-I 0 W/m² -1,2 °C -0,2 °C 0,0 km/h (0 Bft)
03.03.2018 22:32 -0,2 °C 93 % 1000,8 hPa 0,0 mm 0,0 km/h (0 Bft) W-NW 284 ° 0 min 0,000 mm 0,0 UV-I 0 W/m² -1,2 °C -0,2 °C 0,0 km/h (0 Bft)
03.03.2018 22:33 -0,3 °C 93 % 1000,8 hPa 0,0 mm 0,0 km/h (0 Bft) W-NW 284 ° 0 min 0,000 mm 0,0 UV-I 0 W/m² -1,3 °C -0,3 °C 0,0 km/h (0 Bft)
03.03.2018 22:34 -0,2 °C 93 % 1000,8 hPa 0,0 mm 0,0 km/h (0 Bft) W-NW 284 ° 0 min 0,000 mm 0,0 UV-I 0 W/m² -1,2 °C -0,2 °C 0,0 km/h (0 Bft)
03.03.2018 22:35 -0,2 °C 93 % 1000,8 hPa 0,0 mm 0,0 km/h (0 Bft) W-NW 284 ° 0 min 0,000 mm 0,0 UV-I 0 W/m² -1,2 °C -0,2 °C 0,0 km/h (0 Bft)
03.03.2018 22:36 -0,2 °C 93 % 1000,8 hPa 0,0 mm 0,0 km/h (0 Bft) W-NW 284 ° 0 min 0,000 mm 0,0 UV-I 0 W/m² -1,2 °C -0,2 °C 0,0 km/h (0 Bft)
03.03.2018 22:37 -0,2 °C 93 % 1000,8 hPa 0,0 mm 0,0 km/h (0 Bft) W-NW 284 ° 0 min 0,000 mm 0,0 UV-I 0 W/m² -1,2 °C -0,2 °C 0,0 km/h (0 Bft)
03.03.2018 22:38 -0,2 °C 93 % 1000,8 hPa 0,0 mm 0,0 km/h (0 Bft) W-NW 284 ° 0 min 0,000 mm 0,0 UV-I 0 W/m² -1,2 °C -0,2 °C 0,0 km/h (0 Bft)
03.03.2018 22:39 -0,2 °C 93 % 1000,8 hPa 0,0 mm 0,0 km/h (0 Bft) W-NW 284 ° 0 min 0,000 mm 0,0 UV-I 0 W/m² -1,2 °C -0,2 °C 0,0 km/h (0 Bft)
03.03.2018 22:40 -0,2 °C 93 % 1000,8 hPa 0,0 mm 0,0 km/h (0 Bft) W-NW 284 ° 0 min 0,000 mm 0,0 UV-I 0 W/m² -1,2 °C -0,2 °C 0,0 km/h (0 Bft)
03.03.2018 22:41 -0,3 °C 93 % 1000,9 hPa 0,0 mm 0,0 km/h (0 Bft) W-NW 284 ° 0 min 0,000 mm 0,0 UV-I 0 W/m² -1,3 °C -0,3 °C 0,0 km/h (0 Bft)
03.03.2018 22:42 -0,2 °C 93 % 1000,9 hPa 0,0 mm 0,0 km/h (0 Bft) W-NW 284 ° 0 min 0,000 mm 0,0 UV-I 0 W/m² -1,2 °C -0,2 °C 0,0 km/h (0 Bft)
03.03.2018 22:43 -0,2 °C 93 % 1000,8 hPa 0,0 mm 0,0 km/h (0 Bft) W-NW 284 ° 0 min 0,000 mm 0,0 UV-I 0 W/m² -1,2 °C -0,2 °C 0,0 km/h (0 Bft)
03.03.2018 22:44 -0,2 °C 93 % 1000,9 hPa 0,0 mm 0,0 km/h (0 Bft) W-NW 284 ° 0 min 0,000 mm 0,0 UV-I 0 W/m² -1,2 °C -0,2 °C 0,0 km/h (0 Bft)
03.03.2018 22:45 -0,2 °C 93 % 1000,9 hPa 0,0 mm 0,0 km/h (0 Bft) W-NW 284 ° 0 min 0,000 mm 0,0 UV-I 0 W/m² -1,2 °C -0,2 °C 0,0 km/h (0 Bft)
03.03.2018 22:46 -0,2 °C 93 % 1000,9 hPa 0,0 mm 0,0 km/h (0 Bft) W-NW 284 ° 0 min 0,000 mm 0,0 UV-I 0 W/m² -1,2 °C -0,2 °C 0,0 km/h (0 Bft)
03.03.2018 22:47 -0,2 °C 93 % 1000,9 hPa 0,0 mm 0,0 km/h (0 Bft) W-NW 284 ° 0 min 0,000 mm 0,0 UV-I 0 W/m² -1,2 °C -0,2 °C 0,0 km/h (0 Bft)
03.03.2018 22:48 -0,2 °C 93 % 1000,9 hPa 0,0 mm 0,0 km/h (0 Bft) W-NW 284 ° 0 min 0,000 mm 0,0 UV-I 0 W/m² -1,2 °C -0,2 °C 0,0 km/h (0 Bft)
03.03.2018 22:49 -0,2 °C 93 % 1001,0 hPa 0,0 mm 0,0 km/h (0 Bft) W-NW 284 ° 0 min 0,000 mm 0,0 UV-I 0 W/m² -1,2 °C -0,2 °C 0,0 km/h (0 Bft)
03.03.2018 22:50 -0,1 °C 93 % 1000,9 hPa 0,0 mm 0,0 km/h (0 Bft) W-NW 284 ° 0 min 0,000 mm 0,0 UV-I 0 W/m² -1,1 °C -0,1 °C 0,0 km/h (0 Bft)
03.03.2018 22:51 0,0 °C 94 % 1001,0 hPa 0,0 mm 0,0 km/h (0 Bft) W-NW 284 ° 0 min 0,000 mm 0,0 UV-I 0 W/m² -0,8 °C 0,0 °C 0,0 km/h (0 Bft)
03.03.2018 22:52 0,0 °C 94 % 1000,9 hPa 0,0 mm 0,0 km/h (0 Bft) W-NW 284 ° 0 min 0,000 mm 0,0 UV-I 0 W/m² -0,8 °C 0,0 °C 0,0 km/h (0 Bft)
03.03.2018 22:53 0,0 °C 93 % 1001,0 hPa 0,0 mm 0,0 km/h (0 Bft) W-NW 284 ° 0 min 0,000 mm 0,0 UV-I 0 W/m² -1,0 °C 0,0 °C 0,0 km/h (0 Bft)
03.03.2018 22:54 -0,1 °C 93 % 1001,0 hPa 0,0 mm 0,0 km/h (0 Bft) W-NW 284 ° 0 min 0,000 mm 0,0 UV-I 0 W/m² -1,1 °C -0,1 °C 0,0 km/h (0 Bft)
03.03.2018 22:55 -0,1 °C 93 % 1001,0 hPa 0,0 mm 0,0 km/h (0 Bft) W-NW 284 ° 0 min 0,000 mm 0,0 UV-I 0 W/m² -1,1 °C -0,1 °C 0,0 km/h (0 Bft)
03.03.2018 22:56 -0,1 °C 93 % 1001,0 hPa 0,0 mm 0,0 km/h (0 Bft) W-NW 284 ° 0 min 0,000 mm 0,0 UV-I 0 W/m² -1,1 °C -0,1 °C 0,0 km/h (0 Bft)
03.03.2018 22:57 -0,1 °C 93 % 1001,0 hPa 0,0 mm 0,0 km/h (0 Bft) W-NW 284 ° 0 min 0,000 mm 0,0 UV-I 0 W/m² -1,1 °C -0,1 °C 0,0 km/h (0 Bft)
03.03.2018 22:58 -0,2 °C 93 % 1001,0 hPa 0,0 mm 0,0 km/h (0 Bft) W-NW 284 ° 0 min 0,000 mm 0,0 UV-I 0 W/m² -1,2 °C -0,2 °C 0,0 km/h (0 Bft)
03.03.2018 22:59 -0,1 °C 93 % 1000,9 hPa 0,0 mm 0,0 km/h (0 Bft) W-NW 284 ° 0 min 0,000 mm 0,0 UV-I 0 W/m² -1,1 °C -0,1 °C 0,0 km/h (0 Bft)
03.03.2018 23:00 -0,2 °C 93 % 1000,9 hPa 0,0 mm 0,0 km/h (0 Bft) W-NW 284 ° 0 min 0,000 mm 0,0 UV-I 0 W/m² -1,2 °C -0,2 °C 0,0 km/h (0 Bft)
03.03.2018 23:01 -0,2 °C 93 % 1000,9 hPa 0,0 mm 0,0 km/h (0 Bft) W-NW 284 ° 0 min 0,000 mm 0,0 UV-I 0 W/m² -1,2 °C -0,2 °C 0,0 km/h (0 Bft)
03.03.2018 23:02 -0,2 °C 93 % 1000,9 hPa 0,0 mm 0,0 km/h (0 Bft) W-NW 285 ° 0 min 0,000 mm 0,0 UV-I 0 W/m² -1,2 °C -0,2 °C 0,0 km/h (0 Bft)
03.03.2018 23:03 -0,2 °C 93 % 1000,8 hPa 0,0 mm 2,3 km/h (1 Bft) W-NW 285 ° 0 min 0,000 mm 0,0 UV-I 0 W/m² -1,2 °C -0,2 °C 3,2 km/h (1 Bft)
03.03.2018 23:04 -0,1 °C 94 % 1000,8 hPa 0,0 mm 0,6 km/h (0 Bft) W-NW 285 ° 0 min 0,000 mm 0,0 UV-I 0 W/m² -0,9 °C -0,1 °C 1,6 km/h (1 Bft)
03.03.2018 23:05 -0,1 °C 94 % 1000,8 hPa 0,0 mm 0,0 km/h (0 Bft) W-NW 284 ° 0 min 0,000 mm 0,0 UV-I 0 W/m² -0,9 °C -0,1 °C 0,0 km/h (0 Bft)
03.03.2018 23:06 -0,1 °C 94 % 1000,9 hPa 0,0 mm 1,0 km/h (0 Bft) W-NW 284 ° 0 min 0,000 mm 0,0 UV-I 0 W/m² -0,9 °C -0,1 °C 1,6 km/h (1 Bft)
03.03.2018 23:07 -0,1 °C 94 % 1000,9 hPa 0,0 mm 0,9 km/h (0 Bft) W-NW 284 ° 0 min 0,000 mm 0,0 UV-I 0 W/m² -0,9 °C -0,1 °C 1,6 km/h (1 Bft)
03.03.2018 23:08 -0,1 °C 94 % 1000,8 hPa 0,0 mm 0,1 km/h (0 Bft) W-NW 285 ° 0 min 0,000 mm 0,0 UV-I 0 W/m² -0,9 °C -0,1 °C 1,6 km/h (1 Bft)
03.03.2018 23:09 -0,1 °C 94 % 1000,9 hPa 0,0 mm 0,0 km/h (0 Bft) W-NW 284 ° 0 min 0,000 mm 0,0 UV-I 0 W/m² -0,9 °C -0,1 °C 0,0 km/h (0 Bft)
03.03.2018 23:10 -0,1 °C 94 % 1000,9 hPa 0,0 mm 0,0 km/h (0 Bft) W-NW 284 ° 0 min 0,000 mm 0,0 UV-I 0 W/m² -0,9 °C -0,1 °C 0,0 km/h (0 Bft)
03.03.2018 23:11 -0,1 °C 94 % 1000,8 hPa 0,0 mm 0,0 km/h (0 Bft) W-NW 285 ° 0 min 0,000 mm 0,0 UV-I 0 W/m² -0,9 °C -0,1 °C 0,0 km/h (0 Bft)
03.03.2018 23:12 -0,1 °C 94 % 1000,9 hPa 0,0 mm 0,0 km/h (0 Bft) W-NW 284 ° 0 min 0,000 mm 0,0 UV-I 0 W/m² -0,9 °C -0,1 °C 0,0 km/h (0 Bft)
03.03.2018 23:13 -0,1 °C 94 % 1000,9 hPa 0,0 mm 0,0 km/h (0 Bft) W-NW 284 ° 0 min 0,000 mm 0,0 UV-I 0 W/m² -0,9 °C -0,1 °C 0,0 km/h (0 Bft)
03.03.2018 23:14 -0,1 °C 94 % 1000,8 hPa 0,0 mm 0,0 km/h (0 Bft) W-NW 285 ° 0 min 0,000 mm 0,0 UV-I 0 W/m² -0,9 °C -0,1 °C 0,0 km/h (0 Bft)
03.03.2018 23:15 -0,1 °C 94 % 1000,8 hPa 0,0 mm 0,0 km/h (0 Bft) W-NW 284 ° 0 min 0,000 mm 0,0 UV-I 0 W/m² -0,9 °C -0,1 °C 0,0 km/h (0 Bft)
03.03.2018 23:16 -0,1 °C 94 % 1000,8 hPa 0,0 mm 0,0 km/h (0 Bft) W-NW 285 ° 0 min 0,000 mm 0,0 UV-I 0 W/m² -0,9 °C -0,1 °C 0,0 km/h (0 Bft)
03.03.2018 23:17 -0,1 °C 94 % 1000,8 hPa 0,0 mm 0,0 km/h (0 Bft) W-NW 285 ° 0 min 0,000 mm 0,0 UV-I 0 W/m² -0,9 °C -0,1 °C 0,0 km/h (0 Bft)
03.03.2018 23:18 -0,1 °C 94 % 1000,8 hPa 0,0 mm 0,0 km/h (0 Bft) W-NW 284 ° 0 min 0,000 mm 0,0 UV-I 0 W/m² -0,9 °C -0,1 °C 0,0 km/h (0 Bft)
03.03.2018 23:19 0,0 °C 94 % 1000,8 hPa 0,0 mm 0,0 km/h (0 Bft) W-NW 284 ° 0 min 0,000 mm 0,0 UV-I 0 W/m² -0,8 °C 0,0 °C 0,0 km/h (0 Bft)
03.03.2018 23:20 0,0 °C 94 % 1000,8 hPa 0,0 mm 0,0 km/h (0 Bft) W-NW 285 ° 0 min 0,000 mm 0,0 UV-I 0 W/m² -0,8 °C 0,0 °C 0,0 km/h (0 Bft)
03.03.2018 23:21 0,0 °C 94 % 1000,8 hPa 0,0 mm 0,0 km/h (0 Bft) W-NW 285 ° 0 min 0,000 mm 0,0 UV-I 0 W/m² -0,8 °C 0,0 °C 0,0 km/h (0 Bft)
03.03.2018 23:22 0,0 °C 94 % 1000,8 hPa 0,0 mm 0,0 km/h (0 Bft) W-NW 285 ° 0 min 0,000 mm 0,0 UV-I 0 W/m² -0,8 °C 0,0 °C 0,0 km/h (0 Bft)
03.03.2018 23:23 0,0 °C 94 % 1000,8 hPa 0,0 mm 0,0 km/h (0 Bft) W-NW 285 ° 0 min 0,000 mm 0,0 UV-I 0 W/m² -0,8 °C 0,0 °C 0,0 km/h (0 Bft)
03.03.2018 23:24 0,0 °C 94 % 1000,8 hPa 0,0 mm 0,0 km/h (0 Bft) W-NW 285 ° 0 min 0,000 mm 0,0 UV-I 0 W/m² -0,8 °C 0,0 °C 0,0 km/h (0 Bft)
03.03.2018 23:25 0,0 °C 94 % 1000,8 hPa 0,0 mm 0,0 km/h (0 Bft) W-NW 284 ° 0 min 0,000 mm 0,0 UV-I 0 W/m² -0,8 °C 0,0 °C 0,0 km/h (0 Bft)
03.03.2018 23:26 0,1 °C 94 % 1000,8 hPa 0,0 mm 0,0 km/h (0 Bft) W-NW 284 ° 0 min 0,000 mm 0,0 UV-I 0 W/m² -0,7 °C 0,1 °C 0,0 km/h (0 Bft)
03.03.2018 23:27 0,0 °C 94 % 1000,8 hPa 0,0 mm 0,0 km/h (0 Bft) W-NW 284 ° 0 min 0,000 mm 0,0 UV-I 0 W/m² -0,8 °C 0,0 °C 0,0 km/h (0 Bft)
03.03.2018 23:28 0,1 °C 94 % 1000,8 hPa 0,0 mm 0,0 km/h (0 Bft) W-NW 285 ° 0 min 0,000 mm 0,0 UV-I 0 W/m² -0,7 °C 0,1 °C 0,0 km/h (0 Bft)
03.03.2018 23:29 0,1 °C 94 % 1000,8 hPa 0,0 mm 0,0 km/h (0 Bft) W-NW 284 ° 0 min 0,000 mm 0,0 UV-I 0 W/m² -0,7 °C 0,1 °C 0,0 km/h (0 Bft)
03.03.2018 23:30 0,1 °C 94 % 1000,8 hPa 0,0 mm 0,0 km/h (0 Bft) W-NW 284 ° 0 min 0,000 mm 0,0 UV-I 0 W/m² -0,7 °C 0,1 °C 0,0 km/h (0 Bft)
03.03.2018 23:31 0,0 °C 94 % 1000,8 hPa 0,0 mm 0,0 km/h (0 Bft) W-NW 285 ° 0 min 0,000 mm 0,0 UV-I 0 W/m² -0,8 °C 0,0 °C 0,0 km/h (0 Bft)
03.03.2018 23:32 0,1 °C 94 % 1000,8 hPa 0,0 mm 0,0 km/h (0 Bft) W-NW 285 ° 0 min 0,000 mm 0,0 UV-I 0 W/m² -0,7 °C 0,1 °C 0,0 km/h (0 Bft)
03.03.2018 23:33 0,0 °C 94 % 1000,8 hPa 0,0 mm 0,0 km/h (0 Bft) W-NW 284 ° 0 min 0,000 mm 0,0 UV-I 0 W/m² -0,8 °C 0,0 °C 0,0 km/h (0 Bft)
03.03.2018 23:34 0,0 °C 94 % 1000,8 hPa 0,0 mm 0,0 km/h (0 Bft) W-NW 285 ° 0 min 0,000 mm 0,0 UV-I 0 W/m² -0,8 °C 0,0 °C 0,0 km/h (0 Bft)
03.03.2018 23:35 0,0 °C 94 % 1000,8 hPa 0,0 mm 0,0 km/h (0 Bft) W-NW 284 ° 0 min 0,000 mm 0,0 UV-I 0 W/m² -0,8 °C 0,0 °C 0,0 km/h (0 Bft)
03.03.2018 23:36 0,0 °C 94 % 1000,8 hPa 0,0 mm 0,0 km/h (0 Bft) W-NW 284 ° 0 min 0,000 mm 0,0 UV-I 0 W/m² -0,8 °C 0,0 °C 0,0 km/h (0 Bft)
03.03.2018 23:37 0,0 °C 94 % 1000,8 hPa 0,0 mm 0,0 km/h (0 Bft) W-NW 285 ° 0 min 0,000 mm 0,0 UV-I 0 W/m² -0,8 °C 0,0 °C 0,0 km/h (0 Bft)
03.03.2018 23:38 0,0 °C 94 % 1000,8 hPa 0,0 mm 0,0 km/h (0 Bft) W-NW 285 ° 0 min 0,000 mm 0,0 UV-I 0 W/m² -0,8 °C 0,0 °C 0,0 km/h (0 Bft)
03.03.2018 23:39 0,0 °C 94 % 1000,8 hPa 0,0 mm 0,0 km/h (0 Bft) W-NW 284 ° 0 min 0,000 mm 0,0 UV-I 0 W/m² -0,8 °C 0,0 °C 0,0 km/h (0 Bft)
03.03.2018 23:40 0,0 °C 94 % 1000,8 hPa 0,0 mm 0,0 km/h (0 Bft) W-NW 285 ° 0 min 0,000 mm 0,0 UV-I 0 W/m² -0,8 °C 0,0 °C 0,0 km/h (0 Bft)
03.03.2018 23:41 0,0 °C 94 % 1000,8 hPa 0,0 mm 0,0 km/h (0 Bft) W-NW 285 ° 0 min 0,000 mm 0,0 UV-I 0 W/m² -0,8 °C 0,0 °C 0,0 km/h (0 Bft)
03.03.2018 23:42 0,0 °C 94 % 1000,8 hPa 0,0 mm 0,0 km/h (0 Bft) W-NW 284 ° 0 min 0,000 mm 0,0 UV-I 0 W/m² -0,8 °C 0,0 °C 0,0 km/h (0 Bft)
03.03.2018 23:43 0,0 °C 94 % 1000,8 hPa 0,0 mm 0,0 km/h (0 Bft) W-NW 285 ° 0 min 0,000 mm 0,0 UV-I 0 W/m² -0,8 °C 0,0 °C 0,0 km/h (0 Bft)
03.03.2018 23:44 0,0 °C 94 % 1000,8 hPa 0,0 mm 0,0 km/h (0 Bft) W-NW 285 ° 0 min 0,000 mm 0,0 UV-I 0 W/m² -0,8 °C 0,0 °C 0,0 km/h (0 Bft)
03.03.2018 23:45 0,0 °C 94 % 1000,8 hPa 0,0 mm 0,0 km/h (0 Bft) W-NW 285 ° 0 min 0,000 mm 0,0 UV-I 0 W/m² -0,8 °C 0,0 °C 0,0 km/h (0 Bft)
03.03.2018 23:46 0,0 °C 94 % 1000,8 hPa 0,0 mm 0,0 km/h (0 Bft) W-NW 285 ° 0 min 0,000 mm 0,0 UV-I 0 W/m² -0,8 °C 0,0 °C 0,0 km/h (0 Bft)
03.03.2018 23:47 -0,1 °C 94 % 1000,8 hPa 0,0 mm 0,0 km/h (0 Bft) W-NW 284 ° 0 min 0,000 mm 0,0 UV-I 0 W/m² -0,9 °C -0,1 °C 0,0 km/h (0 Bft)
03.03.2018 23:48 0,0 °C 94 % 1000,8 hPa 0,0 mm 0,0 km/h (0 Bft) W-NW 285 ° 0 min 0,000 mm 0,0 UV-I 0 W/m² -0,8 °C 0,0 °C 0,0 km/h (0 Bft)
03.03.2018 23:49 0,0 °C 94 % 1000,8 hPa 0,0 mm 0,0 km/h (0 Bft) W-NW 284 ° 0 min 0,000 mm 0,0 UV-I 0 W/m² -0,8 °C 0,0 °C 0,0 km/h (0 Bft)
03.03.2018 23:50 -0,1 °C 94 % 1000,8 hPa 0,0 mm 0,0 km/h (0 Bft) W-NW 285 ° 0 min 0,000 mm 0,0 UV-I 0 W/m² -0,9 °C -0,1 °C 0,0 km/h (0 Bft)
03.03.2018 23:51 0,0 °C 94 % 1000,8 hPa 0,0 mm 0,0 km/h (0 Bft) W-NW 284 ° 0 min 0,000 mm 0,0 UV-I 0 W/m² -0,8 °C 0,0 °C 0,0 km/h (0 Bft)
03.03.2018 23:52 -0,1 °C 94 % 1000,8 hPa 0,0 mm 0,0 km/h (0 Bft) W-NW 284 ° 0 min 0,000 mm 0,0 UV-I 0 W/m² -0,9 °C -0,1 °C 0,0 km/h (0 Bft)
03.03.2018 23:53 0,0 °C 94 % 1000,8 hPa 0,0 mm 0,0 km/h (0 Bft) W-NW 284 ° 0 min 0,000 mm 0,0 UV-I 0 W/m² -0,8 °C 0,0 °C 0,0 km/h (0 Bft)
03.03.2018 23:54 0,0 °C 94 % 1000,8 hPa 0,0 mm 0,0 km/h (0 Bft) W-NW 284 ° 0 min 0,000 mm 0,0 UV-I 0 W/m² -0,8 °C 0,0 °C 0,0 km/h (0 Bft)
03.03.2018 23:55 -0,1 °C 94 % 1000,8 hPa 0,0 mm 0,0 km/h (0 Bft) W-NW 284 ° 0 min 0,000 mm 0,0 UV-I 0 W/m² -0,9 °C -0,1 °C 0,0 km/h (0 Bft)
03.03.2018 23:56 0,0 °C 94 % 1000,8 hPa 0,0 mm 0,0 km/h (0 Bft) W-NW 285 ° 0 min 0,000 mm 0,0 UV-I 0 W/m² -0,8 °C 0,0 °C 0,0 km/h (0 Bft)
03.03.2018 23:57 0,0 °C 94 % 1000,8 hPa 0,0 mm 0,0 km/h (0 Bft) W-NW 285 ° 0 min 0,000 mm 0,0 UV-I 0 W/m² -0,8 °C 0,0 °C 0,0 km/h (0 Bft)
03.03.2018 23:58 0,0 °C 94 % 1000,8 hPa 0,0 mm 0,0 km/h (0 Bft) W-NW 284 ° 0 min 0,000 mm 0,0 UV-I 0 W/m² -0,8 °C 0,0 °C 0,0 km/h (0 Bft)
03.03.2018 23:59 0,0 °C 94 % 1000,8 hPa 0,0 mm 0,0 km/h (0 Bft) W-NW 284 ° 0 min 0,000 mm 0,0 UV-I 0 W/m² -0,8 °C 0,0 °C 0,0 km/h (0 Bft)
_ Min-Zeit 04:41 13:09 12:32 - 23:59 - - - - - - 04:41 04:43 23:59
Minimum _ -5,3 °C 70 % 994,0 hPa - 0,0 km/h (0 Bft) - - - - - - -6,3 °C -5,2 °C 0,0 km/h (0 Bft)
_ Max-Zeit 13:39 23:59 01:43 16:43 13:18 - - 14:07 14:01 12:58 12:58 13:53 13:49 13:06
Maximum _ 4,2 °C 94 % 1001,3 hPa 0,2 mm 9,6 km/h
NO (2 Bft)
- - 1 min 0,178 mm 3,5 UV-I 643 W/m² -0,1 °C 4,1 °C 16,1 km/h
O (3 Bft)
Durchschnitt _ 0,0 °C 85 % 997,9 hPa #6,8 mm 1,4 km/h (1 Bft) O-NO - #3:36 h #0,914 mm 1,7 UV-I 102 W/m² -2,2 °C -0,1 °C 2,4 km/h (1 Bft)